<?xml version='1.0' encoding='UTF-8'?>
<gpx version="1.1" creator="https://www.komoot.de" xmlns="http://www.topografix.com/GPX/1/1" xmlns:xsi="http://www.w3.org/2001/XMLSchema-instance" xsi:schemaLocation="http://www.topografix.com/GPX/1/1 http://www.topografix.com/GPX/1/1/gpx.xsd">
  <metadata>
    <name>Von Jachenau über die Jocheralm zum Jochberg und zurück über den Walchensee</name>
    <author>
      <link href="https://www.komoot.de">
        <text>komoot</text>
        <type>text/html</type>
      </link>
    </author>
  </metadata>
  <trk>
    <name>Von Jachenau über die Jocheralm zum Jochberg und zurück über den Walchensee</name>
    <trkseg>
      <trkpt lat="47.606325" lon="11.432929">
        <ele>827.313449</ele>
        <time>2026-05-08T09:59:04.913Z</time>
      </trkpt>
      <trkpt lat="47.606278" lon="11.432772">
        <ele>827.313449</ele>
        <time>2026-05-08T09:59:38.318Z</time>
      </trkpt>
      <trkpt lat="47.606270" lon="11.432638">
        <ele>827.313449</ele>
        <time>2026-05-08T09:59:43.305Z</time>
      </trkpt>
      <trkpt lat="47.606250" lon="11.432480">
        <ele>827.313449</ele>
        <time>2026-05-08T09:59:58.310Z</time>
      </trkpt>
      <trkpt lat="47.606227" lon="11.432329">
        <ele>827.313449</ele>
        <time>2026-05-08T10:00:02.310Z</time>
      </trkpt>
      <trkpt lat="47.606221" lon="11.432170">
        <ele>827.313449</ele>
        <time>2026-05-08T10:00:06.302Z</time>
      </trkpt>
      <trkpt lat="47.606240" lon="11.432002">
        <ele>827.313449</ele>
        <time>2026-05-08T10:00:10.310Z</time>
      </trkpt>
      <trkpt lat="47.606286" lon="11.431881">
        <ele>827.313449</ele>
        <time>2026-05-08T10:00:13.304Z</time>
      </trkpt>
      <trkpt lat="47.606330" lon="11.431743">
        <ele>827.313449</ele>
        <time>2026-05-08T10:00:16.318Z</time>
      </trkpt>
      <trkpt lat="47.606371" lon="11.431610">
        <ele>827.396287</ele>
        <time>2026-05-08T10:00:19.312Z</time>
      </trkpt>
      <trkpt lat="47.606423" lon="11.431490">
        <ele>827.609561</ele>
        <time>2026-05-08T10:00:22.310Z</time>
      </trkpt>
      <trkpt lat="47.606475" lon="11.431341">
        <ele>827.860407</ele>
        <time>2026-05-08T10:00:25.303Z</time>
      </trkpt>
      <trkpt lat="47.606505" lon="11.431182">
        <ele>828.107261</ele>
        <time>2026-05-08T10:00:28.323Z</time>
      </trkpt>
      <trkpt lat="47.606540" lon="11.431053">
        <ele>828.315161</ele>
        <time>2026-05-08T10:00:31.310Z</time>
      </trkpt>
      <trkpt lat="47.606564" lon="11.430895">
        <ele>828.557308</ele>
        <time>2026-05-08T10:00:34.309Z</time>
      </trkpt>
      <trkpt lat="47.606596" lon="11.430757">
        <ele>828.775494</ele>
        <time>2026-05-08T10:00:37.305Z</time>
      </trkpt>
      <trkpt lat="47.606624" lon="11.430589">
        <ele>829.034231</ele>
        <time>2026-05-08T10:00:40.314Z</time>
      </trkpt>
      <trkpt lat="47.606641" lon="11.430415">
        <ele>829.297096</ele>
        <time>2026-05-08T10:00:43.307Z</time>
      </trkpt>
      <trkpt lat="47.606668" lon="11.430254">
        <ele>829.545141</ele>
        <time>2026-05-08T10:00:46.306Z</time>
      </trkpt>
      <trkpt lat="47.606693" lon="11.430087">
        <ele>829.800904</ele>
        <time>2026-05-08T10:00:49.302Z</time>
      </trkpt>
      <trkpt lat="47.606716" lon="11.429930">
        <ele>830.041111</ele>
        <time>2026-05-08T10:00:52.304Z</time>
      </trkpt>
      <trkpt lat="47.606748" lon="11.429788">
        <ele>830.264960</ele>
        <time>2026-05-08T10:00:55.306Z</time>
      </trkpt>
      <trkpt lat="47.606772" lon="11.429644">
        <ele>830.486735</ele>
        <time>2026-05-08T10:00:58.313Z</time>
      </trkpt>
      <trkpt lat="47.606798" lon="11.429513">
        <ele>830.690902</ele>
        <time>2026-05-08T10:01:01.309Z</time>
      </trkpt>
      <trkpt lat="47.606842" lon="11.429373">
        <ele>830.921840</ele>
        <time>2026-05-08T10:01:04.302Z</time>
      </trkpt>
      <trkpt lat="47.606891" lon="11.429244">
        <ele>831.143210</ele>
        <time>2026-05-08T10:01:07.314Z</time>
      </trkpt>
      <trkpt lat="47.606965" lon="11.429117">
        <ele>831.491921</ele>
        <time>2026-05-08T10:01:11.311Z</time>
      </trkpt>
      <trkpt lat="47.607041" lon="11.428998">
        <ele>831.996904</ele>
        <time>2026-05-08T10:01:15.308Z</time>
      </trkpt>
      <trkpt lat="47.607115" lon="11.428889">
        <ele>832.473459</ele>
        <time>2026-05-08T10:01:19.309Z</time>
      </trkpt>
      <trkpt lat="47.607184" lon="11.428762">
        <ele>832.975946</ele>
        <time>2026-05-08T10:01:23.306Z</time>
      </trkpt>
      <trkpt lat="47.607244" lon="11.428621">
        <ele>833.489621</ele>
        <time>2026-05-08T10:01:27.306Z</time>
      </trkpt>
      <trkpt lat="47.607309" lon="11.428483">
        <ele>834.008241</ele>
        <time>2026-05-08T10:01:31.303Z</time>
      </trkpt>
      <trkpt lat="47.607383" lon="11.428357">
        <ele>834.523042</ele>
        <time>2026-05-08T10:01:35.303Z</time>
      </trkpt>
      <trkpt lat="47.607447" lon="11.428255">
        <ele>834.952309</ele>
        <time>2026-05-08T10:01:38.303Z</time>
      </trkpt>
      <trkpt lat="47.607518" lon="11.428156">
        <ele>835.397593</ele>
        <time>2026-05-08T10:01:41.303Z</time>
      </trkpt>
      <trkpt lat="47.607616" lon="11.428047">
        <ele>835.957321</ele>
        <time>2026-05-08T10:01:45.309Z</time>
      </trkpt>
      <trkpt lat="47.607695" lon="11.427982">
        <ele>836.370130</ele>
        <time>2026-05-08T10:01:48.304Z</time>
      </trkpt>
      <trkpt lat="47.607784" lon="11.427896">
        <ele>836.855502</ele>
        <time>2026-05-08T10:01:52.314Z</time>
      </trkpt>
      <trkpt lat="47.607876" lon="11.427789">
        <ele>837.389721</ele>
        <time>2026-05-08T10:01:56.310Z</time>
      </trkpt>
      <trkpt lat="47.607955" lon="11.427679">
        <ele>837.884849</ele>
        <time>2026-05-08T10:02:00.318Z</time>
      </trkpt>
      <trkpt lat="47.608017" lon="11.427576">
        <ele>838.310233</ele>
        <time>2026-05-08T10:02:03.312Z</time>
      </trkpt>
      <trkpt lat="47.608065" lon="11.427458">
        <ele>838.734802</ele>
        <time>2026-05-08T10:02:06.305Z</time>
      </trkpt>
      <trkpt lat="47.608118" lon="11.427347">
        <ele>839.153835</ele>
        <time>2026-05-08T10:02:09.310Z</time>
      </trkpt>
      <trkpt lat="47.608186" lon="11.427256">
        <ele>839.559052</ele>
        <time>2026-05-08T10:02:12.307Z</time>
      </trkpt>
      <trkpt lat="47.608267" lon="11.427131">
        <ele>839.955393</ele>
        <time>2026-05-08T10:02:16.301Z</time>
      </trkpt>
      <trkpt lat="47.608325" lon="11.427010">
        <ele>840.294787</ele>
        <time>2026-05-08T10:02:19.304Z</time>
      </trkpt>
      <trkpt lat="47.608372" lon="11.426861">
        <ele>840.670841</ele>
        <time>2026-05-08T10:02:22.308Z</time>
      </trkpt>
      <trkpt lat="47.608410" lon="11.426733">
        <ele>840.990563</ele>
        <time>2026-05-08T10:02:25.305Z</time>
      </trkpt>
      <trkpt lat="47.608464" lon="11.426615">
        <ele>841.316585</ele>
        <time>2026-05-08T10:02:28.306Z</time>
      </trkpt>
      <trkpt lat="47.608529" lon="11.426512">
        <ele>841.639100</ele>
        <time>2026-05-08T10:02:31.308Z</time>
      </trkpt>
      <trkpt lat="47.608612" lon="11.426395">
        <ele>842.027352</ele>
        <time>2026-05-08T10:02:35.304Z</time>
      </trkpt>
      <trkpt lat="47.608669" lon="11.426242">
        <ele>842.426958</ele>
        <time>2026-05-08T10:02:39.311Z</time>
      </trkpt>
      <trkpt lat="47.608711" lon="11.426121">
        <ele>842.738072</ele>
        <time>2026-05-08T10:02:42.305Z</time>
      </trkpt>
      <trkpt lat="47.608748" lon="11.425953">
        <ele>843.142092</ele>
        <time>2026-05-08T10:02:46.311Z</time>
      </trkpt>
      <trkpt lat="47.608781" lon="11.425781">
        <ele>843.550895</ele>
        <time>2026-05-08T10:02:50.303Z</time>
      </trkpt>
      <trkpt lat="47.608842" lon="11.425633">
        <ele>843.947437</ele>
        <time>2026-05-08T10:02:54.308Z</time>
      </trkpt>
      <trkpt lat="47.608920" lon="11.425514">
        <ele>844.326845</ele>
        <time>2026-05-08T10:02:58.311Z</time>
      </trkpt>
      <trkpt lat="47.609005" lon="11.425408">
        <ele>844.703386</ele>
        <time>2026-05-08T10:03:02.319Z</time>
      </trkpt>
      <trkpt lat="47.609079" lon="11.425307">
        <ele>845.044363</ele>
        <time>2026-05-08T10:03:06.312Z</time>
      </trkpt>
      <trkpt lat="47.609154" lon="11.425202">
        <ele>845.394055</ele>
        <time>2026-05-08T10:03:10.307Z</time>
      </trkpt>
      <trkpt lat="47.609226" lon="11.425100">
        <ele>845.695985</ele>
        <time>2026-05-08T10:03:14.307Z</time>
      </trkpt>
      <trkpt lat="47.609286" lon="11.424981">
        <ele>845.927595</ele>
        <time>2026-05-08T10:03:18.306Z</time>
      </trkpt>
      <trkpt lat="47.609353" lon="11.424840">
        <ele>846.196465</ele>
        <time>2026-05-08T10:03:22.305Z</time>
      </trkpt>
      <trkpt lat="47.609412" lon="11.424676">
        <ele>846.486198</ele>
        <time>2026-05-08T10:03:26.314Z</time>
      </trkpt>
      <trkpt lat="47.609485" lon="11.424556">
        <ele>846.738120</ele>
        <time>2026-05-08T10:03:29.304Z</time>
      </trkpt>
      <trkpt lat="47.609561" lon="11.424447">
        <ele>846.982527</ele>
        <time>2026-05-08T10:03:32.309Z</time>
      </trkpt>
      <trkpt lat="47.609641" lon="11.424328">
        <ele>847.244460</ele>
        <time>2026-05-08T10:03:36.319Z</time>
      </trkpt>
      <trkpt lat="47.609720" lon="11.424227">
        <ele>847.485579</ele>
        <time>2026-05-08T10:03:40.302Z</time>
      </trkpt>
      <trkpt lat="47.609796" lon="11.424105">
        <ele>847.744480</ele>
        <time>2026-05-08T10:03:44.306Z</time>
      </trkpt>
      <trkpt lat="47.609867" lon="11.423985">
        <ele>847.993328</ele>
        <time>2026-05-08T10:03:47.312Z</time>
      </trkpt>
      <trkpt lat="47.609927" lon="11.423859">
        <ele>848.233763</ele>
        <time>2026-05-08T10:03:50.317Z</time>
      </trkpt>
      <trkpt lat="47.609984" lon="11.423747">
        <ele>848.452483</ele>
        <time>2026-05-08T10:03:53.306Z</time>
      </trkpt>
      <trkpt lat="47.610042" lon="11.423628">
        <ele>848.681352</ele>
        <time>2026-05-08T10:03:56.311Z</time>
      </trkpt>
      <trkpt lat="47.610110" lon="11.423533">
        <ele>848.897312</ele>
        <time>2026-05-08T10:03:59.307Z</time>
      </trkpt>
      <trkpt lat="47.610205" lon="11.423417">
        <ele>849.181786</ele>
        <time>2026-05-08T10:04:03.308Z</time>
      </trkpt>
      <trkpt lat="47.610271" lon="11.423292">
        <ele>849.429252</ele>
        <time>2026-05-08T10:04:06.313Z</time>
      </trkpt>
      <trkpt lat="47.610334" lon="11.423176">
        <ele>849.661420</ele>
        <time>2026-05-08T10:04:09.303Z</time>
      </trkpt>
      <trkpt lat="47.610432" lon="11.423077">
        <ele>849.897983</ele>
        <time>2026-05-08T10:04:13.309Z</time>
      </trkpt>
      <trkpt lat="47.610513" lon="11.422961">
        <ele>850.096297</ele>
        <time>2026-05-08T10:04:17.304Z</time>
      </trkpt>
      <trkpt lat="47.610590" lon="11.422838">
        <ele>850.295613</ele>
        <time>2026-05-08T10:04:21.305Z</time>
      </trkpt>
      <trkpt lat="47.610675" lon="11.422751">
        <ele>850.477512</ele>
        <time>2026-05-08T10:04:25.317Z</time>
      </trkpt>
      <trkpt lat="47.610734" lon="11.422642">
        <ele>850.643500</ele>
        <time>2026-05-08T10:04:29.332Z</time>
      </trkpt>
      <trkpt lat="47.610801" lon="11.422538">
        <ele>850.814315</ele>
        <time>2026-05-08T10:04:33.307Z</time>
      </trkpt>
      <trkpt lat="47.610859" lon="11.422430">
        <ele>850.978275</ele>
        <time>2026-05-08T10:04:36.311Z</time>
      </trkpt>
      <trkpt lat="47.610945" lon="11.422339">
        <ele>851.164345</ele>
        <time>2026-05-08T10:04:40.305Z</time>
      </trkpt>
      <trkpt lat="47.611004" lon="11.422230">
        <ele>851.330332</ele>
        <time>2026-05-08T10:04:44.307Z</time>
      </trkpt>
      <trkpt lat="47.611064" lon="11.422087">
        <ele>851.530337</ele>
        <time>2026-05-08T10:04:48.303Z</time>
      </trkpt>
      <trkpt lat="47.611109" lon="11.421945">
        <ele>851.716654</ele>
        <time>2026-05-08T10:04:52.302Z</time>
      </trkpt>
      <trkpt lat="47.611186" lon="11.421807">
        <ele>851.929366</ele>
        <time>2026-05-08T10:04:56.314Z</time>
      </trkpt>
      <trkpt lat="47.611240" lon="11.421681">
        <ele>852.106656</ele>
        <time>2026-05-08T10:04:59.304Z</time>
      </trkpt>
      <trkpt lat="47.611294" lon="11.421567">
        <ele>852.272098</ele>
        <time>2026-05-08T10:05:02.317Z</time>
      </trkpt>
      <trkpt lat="47.611348" lon="11.421439">
        <ele>852.451397</ele>
        <time>2026-05-08T10:05:05.305Z</time>
      </trkpt>
      <trkpt lat="47.611389" lon="11.421301">
        <ele>852.630470</ele>
        <time>2026-05-08T10:05:08.310Z</time>
      </trkpt>
      <trkpt lat="47.611440" lon="11.421141">
        <ele>852.840625</ele>
        <time>2026-05-08T10:05:12.303Z</time>
      </trkpt>
      <trkpt lat="47.611503" lon="11.421001">
        <ele>853.375515</ele>
        <time>2026-05-08T10:05:16.304Z</time>
      </trkpt>
      <trkpt lat="47.611549" lon="11.420884">
        <ele>854.105874</ele>
        <time>2026-05-08T10:05:19.307Z</time>
      </trkpt>
      <trkpt lat="47.611589" lon="11.420762">
        <ele>854.837420</ele>
        <time>2026-05-08T10:05:22.311Z</time>
      </trkpt>
      <trkpt lat="47.611628" lon="11.420634">
        <ele>855.594862</ele>
        <time>2026-05-08T10:05:25.316Z</time>
      </trkpt>
      <trkpt lat="47.611667" lon="11.420466">
        <ele>856.552984</ele>
        <time>2026-05-08T10:05:29.307Z</time>
      </trkpt>
      <trkpt lat="47.611682" lon="11.420324">
        <ele>857.328041</ele>
        <time>2026-05-08T10:05:33.314Z</time>
      </trkpt>
      <trkpt lat="47.611637" lon="11.420172">
        <ele>858.223231</ele>
        <time>2026-05-08T10:05:37.319Z</time>
      </trkpt>
      <trkpt lat="47.611590" lon="11.420048">
        <ele>858.990321</ele>
        <time>2026-05-08T10:05:41.303Z</time>
      </trkpt>
      <trkpt lat="47.611573" lon="11.419898">
        <ele>859.810526</ele>
        <time>2026-05-08T10:05:46.304Z</time>
      </trkpt>
      <trkpt lat="47.611587" lon="11.419737">
        <ele>860.685889</ele>
        <time>2026-05-08T10:05:50.361Z</time>
      </trkpt>
      <trkpt lat="47.611632" lon="11.419605">
        <ele>861.483514</ele>
        <time>2026-05-08T10:05:55.306Z</time>
      </trkpt>
      <trkpt lat="47.611670" lon="11.419473">
        <ele>862.257487</ele>
        <time>2026-05-08T10:06:01.311Z</time>
      </trkpt>
      <trkpt lat="47.611687" lon="11.419337">
        <ele>863.003347</ele>
        <time>2026-05-08T10:06:08.307Z</time>
      </trkpt>
      <trkpt lat="47.611730" lon="11.419215">
        <ele>863.745699</ele>
        <time>2026-05-08T10:06:16.303Z</time>
      </trkpt>
      <trkpt lat="47.611759" lon="11.419068">
        <ele>864.571617</ele>
        <time>2026-05-08T10:06:24.312Z</time>
      </trkpt>
      <trkpt lat="47.611764" lon="11.418920">
        <ele>865.370685</ele>
        <time>2026-05-08T10:06:31.305Z</time>
      </trkpt>
      <trkpt lat="47.611753" lon="11.418775">
        <ele>866.157510</ele>
        <time>2026-05-08T10:06:38.303Z</time>
      </trkpt>
      <trkpt lat="47.611761" lon="11.418638">
        <ele>866.899028</ele>
        <time>2026-05-08T10:06:45.310Z</time>
      </trkpt>
      <trkpt lat="47.611810" lon="11.418522">
        <ele>867.503504</ele>
        <time>2026-05-08T10:06:53.305Z</time>
      </trkpt>
      <trkpt lat="47.611849" lon="11.418392">
        <ele>867.933868</ele>
        <time>2026-05-08T10:07:00.304Z</time>
      </trkpt>
      <trkpt lat="47.611892" lon="11.418254">
        <ele>868.393680</ele>
        <time>2026-05-08T10:07:07.311Z</time>
      </trkpt>
      <trkpt lat="47.611961" lon="11.418141">
        <ele>868.854807</ele>
        <time>2026-05-08T10:07:12.303Z</time>
      </trkpt>
      <trkpt lat="47.612019" lon="11.418031">
        <ele>869.277180</ele>
        <time>2026-05-08T10:07:17.308Z</time>
      </trkpt>
      <trkpt lat="47.612062" lon="11.417891">
        <ele>869.742490</ele>
        <time>2026-05-08T10:07:22.306Z</time>
      </trkpt>
      <trkpt lat="47.612090" lon="11.417756">
        <ele>870.169687</ele>
        <time>2026-05-08T10:07:26.303Z</time>
      </trkpt>
      <trkpt lat="47.612134" lon="11.417624">
        <ele>870.615061</ele>
        <time>2026-05-08T10:07:31.309Z</time>
      </trkpt>
      <trkpt lat="47.612165" lon="11.417471">
        <ele>871.098260</ele>
        <time>2026-05-08T10:07:35.312Z</time>
      </trkpt>
      <trkpt lat="47.612188" lon="11.417321">
        <ele>871.563525</ele>
        <time>2026-05-08T10:07:39.313Z</time>
      </trkpt>
      <trkpt lat="47.612235" lon="11.417187">
        <ele>872.020382</ele>
        <time>2026-05-08T10:07:43.305Z</time>
      </trkpt>
      <trkpt lat="47.612243" lon="11.417050">
        <ele>872.436292</ele>
        <time>2026-05-08T10:07:47.306Z</time>
      </trkpt>
      <trkpt lat="47.612251" lon="11.416900">
        <ele>872.891386</ele>
        <time>2026-05-08T10:07:52.311Z</time>
      </trkpt>
      <trkpt lat="47.612309" lon="11.416770">
        <ele>873.362880</ele>
        <time>2026-05-08T10:07:57.316Z</time>
      </trkpt>
      <trkpt lat="47.612353" lon="11.416653">
        <ele>873.768083</ele>
        <time>2026-05-08T10:08:01.304Z</time>
      </trkpt>
      <trkpt lat="47.612394" lon="11.416522">
        <ele>874.204910</ele>
        <time>2026-05-08T10:08:05.303Z</time>
      </trkpt>
      <trkpt lat="47.612423" lon="11.416388">
        <ele>874.630565</ele>
        <time>2026-05-08T10:08:10.307Z</time>
      </trkpt>
      <trkpt lat="47.612423" lon="11.416252">
        <ele>875.041897</ele>
        <time>2026-05-08T10:08:15.313Z</time>
      </trkpt>
      <trkpt lat="47.612455" lon="11.416107">
        <ele>875.699987</ele>
        <time>2026-05-08T10:08:20.305Z</time>
      </trkpt>
      <trkpt lat="47.612472" lon="11.415965">
        <ele>876.984577</ele>
        <time>2026-05-08T10:08:24.302Z</time>
      </trkpt>
      <trkpt lat="47.612503" lon="11.415836">
        <ele>878.204405</ele>
        <time>2026-05-08T10:08:28.307Z</time>
      </trkpt>
      <trkpt lat="47.612532" lon="11.415694">
        <ele>879.525968</ele>
        <time>2026-05-08T10:08:33.311Z</time>
      </trkpt>
      <trkpt lat="47.612567" lon="11.415571">
        <ele>880.715131</ele>
        <time>2026-05-08T10:08:38.307Z</time>
      </trkpt>
      <trkpt lat="47.612604" lon="11.415424">
        <ele>882.112749</ele>
        <time>2026-05-08T10:08:44.306Z</time>
      </trkpt>
      <trkpt lat="47.612632" lon="11.415271">
        <ele>883.524845</ele>
        <time>2026-05-08T10:08:49.308Z</time>
      </trkpt>
      <trkpt lat="47.612684" lon="11.415145">
        <ele>884.840730</ele>
        <time>2026-05-08T10:08:55.303Z</time>
      </trkpt>
      <trkpt lat="47.612711" lon="11.415011">
        <ele>886.086441</ele>
        <time>2026-05-08T10:09:00.301Z</time>
      </trkpt>
      <trkpt lat="47.612735" lon="11.414877">
        <ele>887.321384</ele>
        <time>2026-05-08T10:09:05.309Z</time>
      </trkpt>
      <trkpt lat="47.612774" lon="11.414734">
        <ele>888.695368</ele>
        <time>2026-05-08T10:09:12.317Z</time>
      </trkpt>
      <trkpt lat="47.612802" lon="11.414594">
        <ele>889.996067</ele>
        <time>2026-05-08T10:09:20.309Z</time>
      </trkpt>
      <trkpt lat="47.612840" lon="11.414448">
        <ele>891.390043</ele>
        <time>2026-05-08T10:09:27.307Z</time>
      </trkpt>
      <trkpt lat="47.612870" lon="11.414294">
        <ele>892.817840</ele>
        <time>2026-05-08T10:09:34.321Z</time>
      </trkpt>
      <trkpt lat="47.612874" lon="11.414155">
        <ele>894.057037</ele>
        <time>2026-05-08T10:09:40.320Z</time>
      </trkpt>
      <trkpt lat="47.612921" lon="11.414038">
        <ele>895.270143</ele>
        <time>2026-05-08T10:09:47.324Z</time>
      </trkpt>
      <trkpt lat="47.612960" lon="11.413912">
        <ele>896.505062</ele>
        <time>2026-05-08T10:09:54.320Z</time>
      </trkpt>
      <trkpt lat="47.612984" lon="11.413769">
        <ele>897.817637</ele>
        <time>2026-05-08T10:10:01.310Z</time>
      </trkpt>
      <trkpt lat="47.613010" lon="11.413621">
        <ele>899.181098</ele>
        <time>2026-05-08T10:10:11.325Z</time>
      </trkpt>
      <trkpt lat="47.613025" lon="11.413489">
        <ele>900.482387</ele>
        <time>2026-05-08T10:10:18.314Z</time>
      </trkpt>
      <trkpt lat="47.613042" lon="11.413353">
        <ele>901.826993</ele>
        <time>2026-05-08T10:10:26.320Z</time>
      </trkpt>
      <trkpt lat="47.613072" lon="11.413225">
        <ele>903.144351</ele>
        <time>2026-05-08T10:10:34.322Z</time>
      </trkpt>
      <trkpt lat="47.613080" lon="11.413090">
        <ele>904.461760</ele>
        <time>2026-05-08T10:10:42.319Z</time>
      </trkpt>
      <trkpt lat="47.613057" lon="11.412942">
        <ele>905.938217</ele>
        <time>2026-05-08T10:10:50.326Z</time>
      </trkpt>
      <trkpt lat="47.613037" lon="11.412800">
        <ele>907.348420</ele>
        <time>2026-05-08T10:10:58.331Z</time>
      </trkpt>
      <trkpt lat="47.613032" lon="11.412658">
        <ele>908.730698</ele>
        <time>2026-05-08T10:11:06.321Z</time>
      </trkpt>
      <trkpt lat="47.613021" lon="11.412524">
        <ele>910.042949</ele>
        <time>2026-05-08T10:11:13.319Z</time>
      </trkpt>
      <trkpt lat="47.613012" lon="11.412390">
        <ele>911.352027</ele>
        <time>2026-05-08T10:11:21.316Z</time>
      </trkpt>
      <trkpt lat="47.613008" lon="11.412253">
        <ele>912.685068</ele>
        <time>2026-05-08T10:11:29.330Z</time>
      </trkpt>
      <trkpt lat="47.612991" lon="11.412122">
        <ele>913.981914</ele>
        <time>2026-05-08T10:11:37.317Z</time>
      </trkpt>
      <trkpt lat="47.612975" lon="11.411981">
        <ele>915.371874</ele>
        <time>2026-05-08T10:11:45.321Z</time>
      </trkpt>
      <trkpt lat="47.612941" lon="11.411850">
        <ele>916.736461</ele>
        <time>2026-05-08T10:11:53.319Z</time>
      </trkpt>
      <trkpt lat="47.612900" lon="11.411727">
        <ele>918.070344</ele>
        <time>2026-05-08T10:12:01.322Z</time>
      </trkpt>
      <trkpt lat="47.612889" lon="11.411587">
        <ele>919.440515</ele>
        <time>2026-05-08T10:12:10.326Z</time>
      </trkpt>
      <trkpt lat="47.612835" lon="11.411459">
        <ele>920.908388</ele>
        <time>2026-05-08T10:12:19.319Z</time>
      </trkpt>
      <trkpt lat="47.612784" lon="11.411340">
        <ele>922.279182</ele>
        <time>2026-05-08T10:12:29.319Z</time>
      </trkpt>
      <trkpt lat="47.612729" lon="11.411230">
        <ele>923.610528</ele>
        <time>2026-05-08T10:12:38.321Z</time>
      </trkpt>
      <trkpt lat="47.612688" lon="11.411106">
        <ele>924.953136</ele>
        <time>2026-05-08T10:12:49.323Z</time>
      </trkpt>
      <trkpt lat="47.612639" lon="11.410980">
        <ele>926.637078</ele>
        <time>2026-05-08T10:12:58.320Z</time>
      </trkpt>
      <trkpt lat="47.612596" lon="11.410851">
        <ele>928.334772</ele>
        <time>2026-05-08T10:13:06.322Z</time>
      </trkpt>
      <trkpt lat="47.612553" lon="11.410726">
        <ele>929.990299</ele>
        <time>2026-05-08T10:13:14.330Z</time>
      </trkpt>
      <trkpt lat="47.612551" lon="11.410586">
        <ele>931.642262</ele>
        <time>2026-05-08T10:13:24.322Z</time>
      </trkpt>
      <trkpt lat="47.612604" lon="11.410458">
        <ele>933.414374</ele>
        <time>2026-05-08T10:13:34.320Z</time>
      </trkpt>
      <trkpt lat="47.612653" lon="11.410337">
        <ele>935.079565</ele>
        <time>2026-05-08T10:13:44.328Z</time>
      </trkpt>
      <trkpt lat="47.612697" lon="11.410214">
        <ele>936.722238</ele>
        <time>2026-05-08T10:13:54.310Z</time>
      </trkpt>
      <trkpt lat="47.612722" lon="11.410085">
        <ele>938.305692</ele>
        <time>2026-05-08T10:14:02.332Z</time>
      </trkpt>
      <trkpt lat="47.612749" lon="11.409952">
        <ele>939.944297</ele>
        <time>2026-05-08T10:14:16.308Z</time>
      </trkpt>
      <trkpt lat="47.612774" lon="11.409823">
        <ele>941.527750</ele>
        <time>2026-05-08T10:14:25.322Z</time>
      </trkpt>
      <trkpt lat="47.612786" lon="11.409687">
        <ele>943.145831</ele>
        <time>2026-05-08T10:14:34.331Z</time>
      </trkpt>
      <trkpt lat="47.612782" lon="11.409545">
        <ele>944.822472</ele>
        <time>2026-05-08T10:14:43.319Z</time>
      </trkpt>
      <trkpt lat="47.612753" lon="11.409395">
        <ele>946.663360</ele>
        <time>2026-05-08T10:14:51.318Z</time>
      </trkpt>
      <trkpt lat="47.612731" lon="11.409266">
        <ele>948.233120</ele>
        <time>2026-05-08T10:14:59.317Z</time>
      </trkpt>
      <trkpt lat="47.612739" lon="11.409115">
        <ele>950.019967</ele>
        <time>2026-05-08T10:15:08.318Z</time>
      </trkpt>
      <trkpt lat="47.612753" lon="11.408964">
        <ele>951.818088</ele>
        <time>2026-05-08T10:15:19.314Z</time>
      </trkpt>
      <trkpt lat="47.612789" lon="11.408835">
        <ele>953.465147</ele>
        <time>2026-05-08T10:15:28.319Z</time>
      </trkpt>
      <trkpt lat="47.612833" lon="11.408718">
        <ele>955.045641</ele>
        <time>2026-05-08T10:15:37.321Z</time>
      </trkpt>
      <trkpt lat="47.612897" lon="11.408610">
        <ele>956.725592</ele>
        <time>2026-05-08T10:15:48.331Z</time>
      </trkpt>
      <trkpt lat="47.612955" lon="11.408506">
        <ele>958.158082</ele>
        <time>2026-05-08T10:15:56.319Z</time>
      </trkpt>
      <trkpt lat="47.613004" lon="11.408393">
        <ele>959.584030</ele>
        <time>2026-05-08T10:16:06.318Z</time>
      </trkpt>
      <trkpt lat="47.613075" lon="11.408298">
        <ele>961.089331</ele>
        <time>2026-05-08T10:16:15.319Z</time>
      </trkpt>
      <trkpt lat="47.613155" lon="11.408214">
        <ele>962.632371</ele>
        <time>2026-05-08T10:16:26.306Z</time>
      </trkpt>
      <trkpt lat="47.613239" lon="11.408146">
        <ele>964.138900</ele>
        <time>2026-05-08T10:16:33.320Z</time>
      </trkpt>
      <trkpt lat="47.613346" lon="11.407978">
        <ele>966.591774</ele>
        <time>2026-05-08T10:19:08.318Z</time>
      </trkpt>
      <trkpt lat="47.613439" lon="11.407941">
        <ele>968.107630</ele>
        <time>2026-05-08T10:19:16.315Z</time>
      </trkpt>
      <trkpt lat="47.613534" lon="11.407948">
        <ele>969.605073</ele>
        <time>2026-05-08T10:19:25.316Z</time>
      </trkpt>
      <trkpt lat="47.613627" lon="11.407901">
        <ele>971.151821</ele>
        <time>2026-05-08T10:19:37.318Z</time>
      </trkpt>
      <trkpt lat="47.613722" lon="11.407907">
        <ele>972.648775</ele>
        <time>2026-05-08T10:19:46.306Z</time>
      </trkpt>
      <trkpt lat="47.613815" lon="11.407904">
        <ele>974.113233</ele>
        <time>2026-05-08T10:19:54.309Z</time>
      </trkpt>
      <trkpt lat="47.613905" lon="11.407945">
        <ele>975.595424</ele>
        <time>2026-05-08T10:20:02.302Z</time>
      </trkpt>
      <trkpt lat="47.613998" lon="11.407922">
        <ele>977.079745</ele>
        <time>2026-05-08T10:20:11.307Z</time>
      </trkpt>
      <trkpt lat="47.614086" lon="11.407869">
        <ele>978.574972</ele>
        <time>2026-05-08T10:20:20.305Z</time>
      </trkpt>
      <trkpt lat="47.614179" lon="11.407826">
        <ele>980.108556</ele>
        <time>2026-05-08T10:20:30.311Z</time>
      </trkpt>
      <trkpt lat="47.614241" lon="11.407727">
        <ele>981.542646</ele>
        <time>2026-05-08T10:20:39.304Z</time>
      </trkpt>
      <trkpt lat="47.614324" lon="11.407667">
        <ele>982.996222</ele>
        <time>2026-05-08T10:20:50.304Z</time>
      </trkpt>
      <trkpt lat="47.614413" lon="11.407634">
        <ele>984.440468</ele>
        <time>2026-05-08T10:21:02.304Z</time>
      </trkpt>
      <trkpt lat="47.614510" lon="11.407620">
        <ele>984.981233</ele>
        <time>2026-05-08T10:21:12.308Z</time>
      </trkpt>
      <trkpt lat="47.614601" lon="11.407597">
        <ele>985.097397</ele>
        <time>2026-05-08T10:21:19.313Z</time>
      </trkpt>
      <trkpt lat="47.614702" lon="11.407556">
        <ele>985.229167</ele>
        <time>2026-05-08T10:21:26.304Z</time>
      </trkpt>
      <trkpt lat="47.614802" lon="11.407545">
        <ele>985.355351</ele>
        <time>2026-05-08T10:21:31.306Z</time>
      </trkpt>
      <trkpt lat="47.614912" lon="11.407527">
        <ele>985.494613</ele>
        <time>2026-05-08T10:21:35.307Z</time>
      </trkpt>
      <trkpt lat="47.614991" lon="11.407439">
        <ele>985.618933</ele>
        <time>2026-05-08T10:21:40.310Z</time>
      </trkpt>
      <trkpt lat="47.615076" lon="11.407338">
        <ele>985.755979</ele>
        <time>2026-05-08T10:21:44.312Z</time>
      </trkpt>
      <trkpt lat="47.615162" lon="11.407278">
        <ele>985.875571</ele>
        <time>2026-05-08T10:21:49.303Z</time>
      </trkpt>
      <trkpt lat="47.615251" lon="11.407168">
        <ele>986.021346</ele>
        <time>2026-05-08T10:21:53.308Z</time>
      </trkpt>
      <trkpt lat="47.615333" lon="11.407081">
        <ele>986.148209</ele>
        <time>2026-05-08T10:21:57.304Z</time>
      </trkpt>
      <trkpt lat="47.615402" lon="11.406978">
        <ele>986.271389</ele>
        <time>2026-05-08T10:22:02.304Z</time>
      </trkpt>
      <trkpt lat="47.615468" lon="11.406849">
        <ele>986.408766</ele>
        <time>2026-05-08T10:22:07.307Z</time>
      </trkpt>
      <trkpt lat="47.615518" lon="11.406738">
        <ele>986.522013</ele>
        <time>2026-05-08T10:22:11.306Z</time>
      </trkpt>
      <trkpt lat="47.615596" lon="11.406645">
        <ele>986.647941</ele>
        <time>2026-05-08T10:22:16.308Z</time>
      </trkpt>
      <trkpt lat="47.615671" lon="11.406528">
        <ele>986.784900</ele>
        <time>2026-05-08T10:22:22.307Z</time>
      </trkpt>
      <trkpt lat="47.615718" lon="11.406404">
        <ele>986.905574</ele>
        <time>2026-05-08T10:22:28.311Z</time>
      </trkpt>
      <trkpt lat="47.615780" lon="11.406286">
        <ele>987.032485</ele>
        <time>2026-05-08T10:22:34.303Z</time>
      </trkpt>
      <trkpt lat="47.615835" lon="11.406170">
        <ele>987.152788</ele>
        <time>2026-05-08T10:22:39.301Z</time>
      </trkpt>
      <trkpt lat="47.615870" lon="11.406033">
        <ele>987.795282</ele>
        <time>2026-05-08T10:22:45.305Z</time>
      </trkpt>
      <trkpt lat="47.615905" lon="11.405894">
        <ele>988.470375</ele>
        <time>2026-05-08T10:22:51.305Z</time>
      </trkpt>
      <trkpt lat="47.615974" lon="11.405767">
        <ele>989.212503</ele>
        <time>2026-05-08T10:22:58.307Z</time>
      </trkpt>
      <trkpt lat="47.616036" lon="11.405652">
        <ele>989.882479</ele>
        <time>2026-05-08T10:23:03.310Z</time>
      </trkpt>
      <trkpt lat="47.616093" lon="11.405518">
        <ele>990.603377</ele>
        <time>2026-05-08T10:23:08.303Z</time>
      </trkpt>
      <trkpt lat="47.616149" lon="11.405413">
        <ele>991.212535</ele>
        <time>2026-05-08T10:23:12.303Z</time>
      </trkpt>
      <trkpt lat="47.616199" lon="11.405294">
        <ele>991.850513</ele>
        <time>2026-05-08T10:23:17.304Z</time>
      </trkpt>
      <trkpt lat="47.616208" lon="11.405132">
        <ele>992.590065</ele>
        <time>2026-05-08T10:23:22.314Z</time>
      </trkpt>
      <trkpt lat="47.616257" lon="11.404995">
        <ele>993.295679</ele>
        <time>2026-05-08T10:23:27.303Z</time>
      </trkpt>
      <trkpt lat="47.616263" lon="11.404843">
        <ele>993.988419</ele>
        <time>2026-05-08T10:23:33.303Z</time>
      </trkpt>
      <trkpt lat="47.616274" lon="11.404696">
        <ele>994.661333</ele>
        <time>2026-05-08T10:23:38.317Z</time>
      </trkpt>
      <trkpt lat="47.616278" lon="11.404555">
        <ele>995.303409</ele>
        <time>2026-05-08T10:23:43.320Z</time>
      </trkpt>
      <trkpt lat="47.616304" lon="11.404416">
        <ele>995.959714</ele>
        <time>2026-05-08T10:23:49.303Z</time>
      </trkpt>
      <trkpt lat="47.616336" lon="11.404286">
        <ele>996.589375</ele>
        <time>2026-05-08T10:23:55.318Z</time>
      </trkpt>
      <trkpt lat="47.616328" lon="11.404136">
        <ele>997.273963</ele>
        <time>2026-05-08T10:24:00.317Z</time>
      </trkpt>
      <trkpt lat="47.616335" lon="11.404001">
        <ele>997.889986</ele>
        <time>2026-05-08T10:24:05.317Z</time>
      </trkpt>
      <trkpt lat="47.616361" lon="11.403863">
        <ele>998.541907</ele>
        <time>2026-05-08T10:24:11.316Z</time>
      </trkpt>
      <trkpt lat="47.616348" lon="11.403726">
        <ele>999.171361</ele>
        <time>2026-05-08T10:24:16.318Z</time>
      </trkpt>
      <trkpt lat="47.616351" lon="11.403587">
        <ele>999.524148</ele>
        <time>2026-05-08T10:24:21.304Z</time>
      </trkpt>
      <trkpt lat="47.616387" lon="11.403460">
        <ele>999.804227</ele>
        <time>2026-05-08T10:24:26.303Z</time>
      </trkpt>
      <trkpt lat="47.616451" lon="11.403348">
        <ele>1000.102714</ele>
        <time>2026-05-08T10:24:32.303Z</time>
      </trkpt>
      <trkpt lat="47.616505" lon="11.403235">
        <ele>1000.384302</ele>
        <time>2026-05-08T10:24:37.302Z</time>
      </trkpt>
      <trkpt lat="47.616586" lon="11.403129">
        <ele>1000.710043</ele>
        <time>2026-05-08T10:24:42.314Z</time>
      </trkpt>
      <trkpt lat="47.616645" lon="11.402996">
        <ele>1001.033715</ele>
        <time>2026-05-08T10:24:47.313Z</time>
      </trkpt>
      <trkpt lat="47.616693" lon="11.402825">
        <ele>1001.410277</ele>
        <time>2026-05-08T10:24:51.302Z</time>
      </trkpt>
      <trkpt lat="47.616717" lon="11.402674">
        <ele>1001.725663</ele>
        <time>2026-05-08T10:24:54.311Z</time>
      </trkpt>
      <trkpt lat="47.616758" lon="11.402521">
        <ele>1002.060374</ele>
        <time>2026-05-08T10:24:57.302Z</time>
      </trkpt>
      <trkpt lat="47.616817" lon="11.402407">
        <ele>1002.352552</ele>
        <time>2026-05-08T10:25:00.301Z</time>
      </trkpt>
      <trkpt lat="47.616888" lon="11.402281">
        <ele>1002.686405</ele>
        <time>2026-05-08T10:25:04.300Z</time>
      </trkpt>
      <trkpt lat="47.616964" lon="11.402189">
        <ele>1002.982228</ele>
        <time>2026-05-08T10:25:08.308Z</time>
      </trkpt>
      <trkpt lat="47.616995" lon="11.402041">
        <ele>1003.297287</ele>
        <time>2026-05-08T10:25:13.305Z</time>
      </trkpt>
      <trkpt lat="47.617023" lon="11.401896">
        <ele>1003.603913</ele>
        <time>2026-05-08T10:25:18.303Z</time>
      </trkpt>
      <trkpt lat="47.617036" lon="11.401752">
        <ele>1003.899263</ele>
        <time>2026-05-08T10:25:23.305Z</time>
      </trkpt>
      <trkpt lat="47.617099" lon="11.401636">
        <ele>1004.202094</ele>
        <time>2026-05-08T10:25:27.316Z</time>
      </trkpt>
      <trkpt lat="47.617142" lon="11.401487">
        <ele>1004.531587</ele>
        <time>2026-05-08T10:25:32.302Z</time>
      </trkpt>
      <trkpt lat="47.617171" lon="11.401347">
        <ele>1005.228755</ele>
        <time>2026-05-08T10:25:37.313Z</time>
      </trkpt>
      <trkpt lat="47.617200" lon="11.401187">
        <ele>1006.823211</ele>
        <time>2026-05-08T10:25:42.311Z</time>
      </trkpt>
      <trkpt lat="47.617204" lon="11.401051">
        <ele>1008.133256</ele>
        <time>2026-05-08T10:25:46.311Z</time>
      </trkpt>
      <trkpt lat="47.617221" lon="11.400915">
        <ele>1009.464368</ele>
        <time>2026-05-08T10:25:50.304Z</time>
      </trkpt>
      <trkpt lat="47.617213" lon="11.400753">
        <ele>1011.027557</ele>
        <time>2026-05-08T10:25:55.307Z</time>
      </trkpt>
      <trkpt lat="47.617200" lon="11.400601">
        <ele>1012.502060</ele>
        <time>2026-05-08T10:25:59.307Z</time>
      </trkpt>
      <trkpt lat="47.617165" lon="11.400464">
        <ele>1013.911996</ele>
        <time>2026-05-08T10:26:03.307Z</time>
      </trkpt>
      <trkpt lat="47.617158" lon="11.400322">
        <ele>1015.282187</ele>
        <time>2026-05-08T10:26:08.305Z</time>
      </trkpt>
      <trkpt lat="47.617135" lon="11.400172">
        <ele>1016.762593</ele>
        <time>2026-05-08T10:26:13.303Z</time>
      </trkpt>
      <trkpt lat="47.617100" lon="11.400043">
        <ele>1018.100817</ele>
        <time>2026-05-08T10:26:18.305Z</time>
      </trkpt>
      <trkpt lat="47.617086" lon="11.399908">
        <ele>1019.415281</ele>
        <time>2026-05-08T10:26:25.316Z</time>
      </trkpt>
      <trkpt lat="47.617047" lon="11.399778">
        <ele>1020.784647</ele>
        <time>2026-05-08T10:26:33.304Z</time>
      </trkpt>
      <trkpt lat="47.616991" lon="11.399654">
        <ele>1022.221029</ele>
        <time>2026-05-08T10:26:41.310Z</time>
      </trkpt>
      <trkpt lat="47.616922" lon="11.399545">
        <ele>1023.660028</ele>
        <time>2026-05-08T10:26:47.312Z</time>
      </trkpt>
      <trkpt lat="47.616862" lon="11.399437">
        <ele>1025.006873</ele>
        <time>2026-05-08T10:26:53.307Z</time>
      </trkpt>
      <trkpt lat="47.616800" lon="11.399321">
        <ele>1026.431545</ele>
        <time>2026-05-08T10:27:00.305Z</time>
      </trkpt>
      <trkpt lat="47.616729" lon="11.399235">
        <ele>1027.740141</ele>
        <time>2026-05-08T10:27:07.321Z</time>
      </trkpt>
      <trkpt lat="47.616655" lon="11.399156">
        <ele>1029.041724</ele>
        <time>2026-05-08T10:27:14.301Z</time>
      </trkpt>
      <trkpt lat="47.616604" lon="11.399036">
        <ele>1030.405812</ele>
        <time>2026-05-08T10:27:23.304Z</time>
      </trkpt>
      <trkpt lat="47.616547" lon="11.398930">
        <ele>1031.476269</ele>
        <time>2026-05-08T10:27:32.310Z</time>
      </trkpt>
      <trkpt lat="47.616482" lon="11.398820">
        <ele>1032.631082</ele>
        <time>2026-05-08T10:27:41.307Z</time>
      </trkpt>
      <trkpt lat="47.616416" lon="11.398709">
        <ele>1033.799557</ele>
        <time>2026-05-08T10:27:50.317Z</time>
      </trkpt>
      <trkpt lat="47.616358" lon="11.398594">
        <ele>1034.933408</ele>
        <time>2026-05-08T10:27:59.303Z</time>
      </trkpt>
      <trkpt lat="47.616311" lon="11.398476">
        <ele>1036.015428</ele>
        <time>2026-05-08T10:28:07.303Z</time>
      </trkpt>
      <trkpt lat="47.616259" lon="11.398365">
        <ele>1037.082554</ele>
        <time>2026-05-08T10:28:14.309Z</time>
      </trkpt>
      <trkpt lat="47.616198" lon="11.398247">
        <ele>1038.256501</ele>
        <time>2026-05-08T10:28:22.319Z</time>
      </trkpt>
      <trkpt lat="47.616135" lon="11.398129">
        <ele>1039.444848</ele>
        <time>2026-05-08T10:28:29.303Z</time>
      </trkpt>
      <trkpt lat="47.616082" lon="11.398014">
        <ele>1040.544623</ele>
        <time>2026-05-08T10:28:35.313Z</time>
      </trkpt>
      <trkpt lat="47.616026" lon="11.397891">
        <ele>1041.716383</ele>
        <time>2026-05-08T10:28:40.312Z</time>
      </trkpt>
      <trkpt lat="47.615974" lon="11.397761">
        <ele>1042.909760</ele>
        <time>2026-05-08T10:28:45.325Z</time>
      </trkpt>
      <trkpt lat="47.616009" lon="11.397637">
        <ele>1043.971040</ele>
        <time>2026-05-08T10:28:51.307Z</time>
      </trkpt>
      <trkpt lat="47.616097" lon="11.397574">
        <ele>1045.115373</ele>
        <time>2026-05-08T10:28:59.306Z</time>
      </trkpt>
      <trkpt lat="47.616188" lon="11.397545">
        <ele>1046.205418</ele>
        <time>2026-05-08T10:29:07.306Z</time>
      </trkpt>
      <trkpt lat="47.616277" lon="11.397502">
        <ele>1047.301615</ele>
        <time>2026-05-08T10:29:16.304Z</time>
      </trkpt>
      <trkpt lat="47.616371" lon="11.397448">
        <ele>1048.482141</ele>
        <time>2026-05-08T10:29:23.319Z</time>
      </trkpt>
      <trkpt lat="47.616472" lon="11.397430">
        <ele>1049.673492</ele>
        <time>2026-05-08T10:29:32.303Z</time>
      </trkpt>
      <trkpt lat="47.616570" lon="11.397395">
        <ele>1050.853995</ele>
        <time>2026-05-08T10:29:43.304Z</time>
      </trkpt>
      <trkpt lat="47.616662" lon="11.397358">
        <ele>1052.075658</ele>
        <time>2026-05-08T10:29:52.308Z</time>
      </trkpt>
      <trkpt lat="47.616707" lon="11.397233">
        <ele>1053.427671</ele>
        <time>2026-05-08T10:30:01.309Z</time>
      </trkpt>
      <trkpt lat="47.616696" lon="11.397085">
        <ele>1054.848259</ele>
        <time>2026-05-08T10:30:10.313Z</time>
      </trkpt>
      <trkpt lat="47.616686" lon="11.396949">
        <ele>1056.153499</ele>
        <time>2026-05-08T10:30:20.302Z</time>
      </trkpt>
      <trkpt lat="47.616687" lon="11.396808">
        <ele>1057.498820</ele>
        <time>2026-05-08T10:30:30.306Z</time>
      </trkpt>
      <trkpt lat="47.616703" lon="11.396662">
        <ele>1058.910058</ele>
        <time>2026-05-08T10:30:41.307Z</time>
      </trkpt>
      <trkpt lat="47.616739" lon="11.396538">
        <ele>1060.198171</ele>
        <time>2026-05-08T10:30:52.311Z</time>
      </trkpt>
      <trkpt lat="47.616794" lon="11.396428">
        <ele>1061.504843</ele>
        <time>2026-05-08T10:31:02.314Z</time>
      </trkpt>
      <trkpt lat="47.616800" lon="11.396272">
        <ele>1062.995619</ele>
        <time>2026-05-08T10:31:10.315Z</time>
      </trkpt>
      <trkpt lat="47.616815" lon="11.396139">
        <ele>1064.282174</ele>
        <time>2026-05-08T10:31:19.305Z</time>
      </trkpt>
      <trkpt lat="47.616814" lon="11.396000">
        <ele>1065.608412</ele>
        <time>2026-05-08T10:31:26.310Z</time>
      </trkpt>
      <trkpt lat="47.616852" lon="11.395874">
        <ele>1066.925374</ele>
        <time>2026-05-08T10:31:34.318Z</time>
      </trkpt>
      <trkpt lat="47.616937" lon="11.395796">
        <ele>1068.339991</ele>
        <time>2026-05-08T10:31:42.299Z</time>
      </trkpt>
      <trkpt lat="47.617025" lon="11.395731">
        <ele>1069.731354</ele>
        <time>2026-05-08T10:31:50.302Z</time>
      </trkpt>
      <trkpt lat="47.617109" lon="11.395662">
        <ele>1071.090345</ele>
        <time>2026-05-08T10:31:59.308Z</time>
      </trkpt>
      <trkpt lat="47.617203" lon="11.395642">
        <ele>1072.434396</ele>
        <time>2026-05-08T10:32:08.300Z</time>
      </trkpt>
      <trkpt lat="47.617301" lon="11.395637">
        <ele>1073.822268</ele>
        <time>2026-05-08T10:32:20.302Z</time>
      </trkpt>
      <trkpt lat="47.617395" lon="11.395615">
        <ele>1075.169161</ele>
        <time>2026-05-08T10:32:31.317Z</time>
      </trkpt>
      <trkpt lat="47.617478" lon="11.395554">
        <ele>1076.480165</ele>
        <time>2026-05-08T10:32:40.308Z</time>
      </trkpt>
      <trkpt lat="47.617569" lon="11.395506">
        <ele>1077.329828</ele>
        <time>2026-05-08T10:32:50.312Z</time>
      </trkpt>
      <trkpt lat="47.617653" lon="11.395429">
        <ele>1077.945478</ele>
        <time>2026-05-08T10:32:59.302Z</time>
      </trkpt>
      <trkpt lat="47.617725" lon="11.395348">
        <ele>1078.508875</ele>
        <time>2026-05-08T10:33:08.304Z</time>
      </trkpt>
      <trkpt lat="47.617792" lon="11.395242">
        <ele>1079.119591</ele>
        <time>2026-05-08T10:33:16.306Z</time>
      </trkpt>
      <trkpt lat="47.617841" lon="11.395131">
        <ele>1079.677238</ele>
        <time>2026-05-08T10:33:24.315Z</time>
      </trkpt>
      <trkpt lat="47.617874" lon="11.395000">
        <ele>1080.264994</ele>
        <time>2026-05-08T10:33:31.304Z</time>
      </trkpt>
      <trkpt lat="47.617908" lon="11.394868">
        <ele>1080.858885</ele>
        <time>2026-05-08T10:33:39.301Z</time>
      </trkpt>
      <trkpt lat="47.617930" lon="11.394723">
        <ele>1081.483536</ele>
        <time>2026-05-08T10:33:46.300Z</time>
      </trkpt>
      <trkpt lat="47.617952" lon="11.394585">
        <ele>1082.079521</ele>
        <time>2026-05-08T10:33:54.308Z</time>
      </trkpt>
      <trkpt lat="47.617961" lon="11.394440">
        <ele>1082.691503</ele>
        <time>2026-05-08T10:34:01.302Z</time>
      </trkpt>
      <trkpt lat="47.617980" lon="11.394304">
        <ele>1083.275229</ele>
        <time>2026-05-08T10:34:07.304Z</time>
      </trkpt>
      <trkpt lat="47.618011" lon="11.394172">
        <ele>1083.862702</ele>
        <time>2026-05-08T10:34:13.307Z</time>
      </trkpt>
      <trkpt lat="47.618029" lon="11.394020">
        <ele>1084.511308</ele>
        <time>2026-05-08T10:34:20.303Z</time>
      </trkpt>
      <trkpt lat="47.618047" lon="11.393878">
        <ele>1085.118564</ele>
        <time>2026-05-08T10:34:27.301Z</time>
      </trkpt>
      <trkpt lat="47.618049" lon="11.393743">
        <ele>1085.686076</ele>
        <time>2026-05-08T10:34:34.314Z</time>
      </trkpt>
      <trkpt lat="47.618066" lon="11.393594">
        <ele>1086.321197</ele>
        <time>2026-05-08T10:34:42.313Z</time>
      </trkpt>
      <trkpt lat="47.618079" lon="11.393461">
        <ele>1086.886013</ele>
        <time>2026-05-08T10:34:48.310Z</time>
      </trkpt>
      <trkpt lat="47.618115" lon="11.393332">
        <ele>1087.472797</ele>
        <time>2026-05-08T10:34:55.306Z</time>
      </trkpt>
      <trkpt lat="47.618182" lon="11.393231">
        <ele>1088.068356</ele>
        <time>2026-05-08T10:35:02.301Z</time>
      </trkpt>
      <trkpt lat="47.618264" lon="11.393170">
        <ele>1088.981504</ele>
        <time>2026-05-08T10:35:10.314Z</time>
      </trkpt>
      <trkpt lat="47.618352" lon="11.393131">
        <ele>1089.942301</ele>
        <time>2026-05-08T10:35:16.310Z</time>
      </trkpt>
      <trkpt lat="47.618449" lon="11.393090">
        <ele>1090.997432</ele>
        <time>2026-05-08T10:35:20.314Z</time>
      </trkpt>
      <trkpt lat="47.618545" lon="11.393094">
        <ele>1092.002115</ele>
        <time>2026-05-08T10:35:23.304Z</time>
      </trkpt>
      <trkpt lat="47.618638" lon="11.393156">
        <ele>1093.068736</ele>
        <time>2026-05-08T10:35:26.309Z</time>
      </trkpt>
      <trkpt lat="47.618708" lon="11.393256">
        <ele>1094.085348</ele>
        <time>2026-05-08T10:35:29.310Z</time>
      </trkpt>
      <trkpt lat="47.618774" lon="11.393365">
        <ele>1095.118545</ele>
        <time>2026-05-08T10:35:35.303Z</time>
      </trkpt>
      <trkpt lat="47.618843" lon="11.393459">
        <ele>1096.098547</ele>
        <time>2026-05-08T10:35:42.314Z</time>
      </trkpt>
      <trkpt lat="47.618937" lon="11.393515">
        <ele>1097.158236</ele>
        <time>2026-05-08T10:35:49.312Z</time>
      </trkpt>
      <trkpt lat="47.619032" lon="11.393521">
        <ele>1098.152962</ele>
        <time>2026-05-08T10:35:57.308Z</time>
      </trkpt>
      <trkpt lat="47.619124" lon="11.393488">
        <ele>1099.143135</ele>
        <time>2026-05-08T10:36:08.314Z</time>
      </trkpt>
      <trkpt lat="47.619191" lon="11.393387">
        <ele>1100.142387</ele>
        <time>2026-05-08T10:36:18.299Z</time>
      </trkpt>
      <trkpt lat="47.619245" lon="11.393270">
        <ele>1101.142283</ele>
        <time>2026-05-08T10:36:29.311Z</time>
      </trkpt>
      <trkpt lat="47.619261" lon="11.393132">
        <ele>1102.129680</ele>
        <time>2026-05-08T10:36:40.309Z</time>
      </trkpt>
      <trkpt lat="47.619294" lon="11.392999">
        <ele>1103.129050</ele>
        <time>2026-05-08T10:36:51.306Z</time>
      </trkpt>
      <trkpt lat="47.619303" lon="11.392864">
        <ele>1104.085646</ele>
        <time>2026-05-08T10:37:02.303Z</time>
      </trkpt>
      <trkpt lat="47.619317" lon="11.392727">
        <ele>1105.062739</ele>
        <time>2026-05-08T10:37:11.310Z</time>
      </trkpt>
      <trkpt lat="47.619331" lon="11.392593">
        <ele>1106.018921</ele>
        <time>2026-05-08T10:37:18.304Z</time>
      </trkpt>
      <trkpt lat="47.619353" lon="11.392448">
        <ele>1107.114886</ele>
        <time>2026-05-08T10:37:26.311Z</time>
      </trkpt>
      <trkpt lat="47.619362" lon="11.392313">
        <ele>1108.474087</ele>
        <time>2026-05-08T10:37:35.305Z</time>
      </trkpt>
      <trkpt lat="47.619385" lon="11.392182">
        <ele>1109.830407</ele>
        <time>2026-05-08T10:37:43.302Z</time>
      </trkpt>
      <trkpt lat="47.619392" lon="11.392041">
        <ele>1111.246950</ele>
        <time>2026-05-08T10:37:52.307Z</time>
      </trkpt>
      <trkpt lat="47.619423" lon="11.391902">
        <ele>1112.713879</ele>
        <time>2026-05-08T10:38:02.302Z</time>
      </trkpt>
      <trkpt lat="47.619438" lon="11.391757">
        <ele>1114.183682</ele>
        <time>2026-05-08T10:38:12.300Z</time>
      </trkpt>
      <trkpt lat="47.619449" lon="11.391611">
        <ele>1115.655603</ele>
        <time>2026-05-08T10:38:20.304Z</time>
      </trkpt>
      <trkpt lat="47.619440" lon="11.391472">
        <ele>1117.054691</ele>
        <time>2026-05-08T10:38:28.312Z</time>
      </trkpt>
      <trkpt lat="47.619435" lon="11.391338">
        <ele>1118.399328</ele>
        <time>2026-05-08T10:38:37.305Z</time>
      </trkpt>
      <trkpt lat="47.619444" lon="11.391195">
        <ele>1119.838314</ele>
        <time>2026-05-08T10:38:45.308Z</time>
      </trkpt>
      <trkpt lat="47.619430" lon="11.391049">
        <ele>1121.315854</ele>
        <time>2026-05-08T10:38:53.319Z</time>
      </trkpt>
      <trkpt lat="47.619420" lon="11.390910">
        <ele>1122.716441</ele>
        <time>2026-05-08T10:39:05.315Z</time>
      </trkpt>
      <trkpt lat="47.619411" lon="11.390763">
        <ele>1124.195336</ele>
        <time>2026-05-08T10:39:14.306Z</time>
      </trkpt>
      <trkpt lat="47.619405" lon="11.390617">
        <ele>1125.660865</ele>
        <time>2026-05-08T10:39:23.320Z</time>
      </trkpt>
      <trkpt lat="47.619376" lon="11.390482">
        <ele>1127.080494</ele>
        <time>2026-05-08T10:39:32.333Z</time>
      </trkpt>
      <trkpt lat="47.619361" lon="11.390346">
        <ele>1128.461236</ele>
        <time>2026-05-08T10:39:40.332Z</time>
      </trkpt>
      <trkpt lat="47.619360" lon="11.390202">
        <ele>1129.904089</ele>
        <time>2026-05-08T10:39:49.314Z</time>
      </trkpt>
      <trkpt lat="47.619375" lon="11.390059">
        <ele>1131.354090</ele>
        <time>2026-05-08T10:40:01.318Z</time>
      </trkpt>
      <trkpt lat="47.619356" lon="11.389922">
        <ele>1132.755483</ele>
        <time>2026-05-08T10:40:11.327Z</time>
      </trkpt>
      <trkpt lat="47.619347" lon="11.389782">
        <ele>1134.115832</ele>
        <time>2026-05-08T10:40:23.314Z</time>
      </trkpt>
      <trkpt lat="47.619339" lon="11.389637">
        <ele>1135.424302</ele>
        <time>2026-05-08T10:40:35.319Z</time>
      </trkpt>
      <trkpt lat="47.619325" lon="11.389500">
        <ele>1136.670539</ele>
        <time>2026-05-08T10:40:43.321Z</time>
      </trkpt>
      <trkpt lat="47.619335" lon="11.389352">
        <ele>1138.008300</ele>
        <time>2026-05-08T10:40:53.330Z</time>
      </trkpt>
      <trkpt lat="47.619282" lon="11.389094">
        <ele>1140.434083</ele>
        <time>2026-05-08T10:42:59.301Z</time>
      </trkpt>
      <trkpt lat="47.619328" lon="11.388966">
        <ele>1141.738695</ele>
        <time>2026-05-08T10:43:08.303Z</time>
      </trkpt>
      <trkpt lat="47.619323" lon="11.388822">
        <ele>1143.035527</ele>
        <time>2026-05-08T10:43:16.303Z</time>
      </trkpt>
      <trkpt lat="47.619339" lon="11.388681">
        <ele>1144.321504</ele>
        <time>2026-05-08T10:43:27.306Z</time>
      </trkpt>
      <trkpt lat="47.619322" lon="11.388546">
        <ele>1145.556681</ele>
        <time>2026-05-08T10:43:36.305Z</time>
      </trkpt>
      <trkpt lat="47.619327" lon="11.388412">
        <ele>1146.763702</ele>
        <time>2026-05-08T10:43:45.300Z</time>
      </trkpt>
      <trkpt lat="47.619331" lon="11.388272">
        <ele>1148.023972</ele>
        <time>2026-05-08T10:43:55.312Z</time>
      </trkpt>
      <trkpt lat="47.619354" lon="11.388141">
        <ele>1149.241479</ele>
        <time>2026-05-08T10:44:04.313Z</time>
      </trkpt>
      <trkpt lat="47.619379" lon="11.388002">
        <ele>1150.535361</ele>
        <time>2026-05-08T10:44:14.303Z</time>
      </trkpt>
      <trkpt lat="47.619383" lon="11.387858">
        <ele>1151.831574</ele>
        <time>2026-05-08T10:44:26.310Z</time>
      </trkpt>
      <trkpt lat="47.619395" lon="11.387726">
        <ele>1153.029510</ele>
        <time>2026-05-08T10:44:36.301Z</time>
      </trkpt>
      <trkpt lat="47.619409" lon="11.387589">
        <ele>1154.275746</ele>
        <time>2026-05-08T10:44:47.317Z</time>
      </trkpt>
      <trkpt lat="47.619432" lon="11.387447">
        <ele>1155.589225</ele>
        <time>2026-05-08T10:44:58.306Z</time>
      </trkpt>
      <trkpt lat="47.619443" lon="11.387309">
        <ele>1156.839022</ele>
        <time>2026-05-08T10:45:07.310Z</time>
      </trkpt>
      <trkpt lat="47.619439" lon="11.387169">
        <ele>1158.189908</ele>
        <time>2026-05-08T10:45:17.315Z</time>
      </trkpt>
      <trkpt lat="47.619424" lon="11.387034">
        <ele>1159.691422</ele>
        <time>2026-05-08T10:45:27.310Z</time>
      </trkpt>
      <trkpt lat="47.619441" lon="11.386903">
        <ele>1161.155446</ele>
        <time>2026-05-08T10:45:38.302Z</time>
      </trkpt>
      <trkpt lat="47.619436" lon="11.386765">
        <ele>1162.672076</ele>
        <time>2026-05-08T10:45:51.302Z</time>
      </trkpt>
      <trkpt lat="47.619425" lon="11.386626">
        <ele>1164.207971</ele>
        <time>2026-05-08T10:46:04.305Z</time>
      </trkpt>
      <trkpt lat="47.619415" lon="11.386484">
        <ele>1165.774794</ele>
        <time>2026-05-08T10:46:15.302Z</time>
      </trkpt>
      <trkpt lat="47.619384" lon="11.386354">
        <ele>1167.288090</ele>
        <time>2026-05-08T10:46:24.304Z</time>
      </trkpt>
      <trkpt lat="47.619355" lon="11.386221">
        <ele>1168.822131</ele>
        <time>2026-05-08T10:46:34.302Z</time>
      </trkpt>
      <trkpt lat="47.619332" lon="11.386092">
        <ele>1170.286496</ele>
        <time>2026-05-08T10:46:42.308Z</time>
      </trkpt>
      <trkpt lat="47.619288" lon="11.385968">
        <ele>1171.824343</ele>
        <time>2026-05-08T10:46:51.301Z</time>
      </trkpt>
      <trkpt lat="47.619247" lon="11.385847">
        <ele>1173.310568</ele>
        <time>2026-05-08T10:47:00.314Z</time>
      </trkpt>
      <trkpt lat="47.619194" lon="11.385728">
        <ele>1174.875834</ele>
        <time>2026-05-08T10:47:08.303Z</time>
      </trkpt>
      <trkpt lat="47.619137" lon="11.385604">
        <ele>1176.522959</ele>
        <time>2026-05-08T10:47:16.300Z</time>
      </trkpt>
      <trkpt lat="47.619090" lon="11.385483">
        <ele>1178.055549</ele>
        <time>2026-05-08T10:47:24.308Z</time>
      </trkpt>
      <trkpt lat="47.619043" lon="11.385356">
        <ele>1179.645532</ele>
        <time>2026-05-08T10:47:33.304Z</time>
      </trkpt>
      <trkpt lat="47.619015" lon="11.385227">
        <ele>1181.132805</ele>
        <time>2026-05-08T10:47:42.312Z</time>
      </trkpt>
      <trkpt lat="47.618976" lon="11.385097">
        <ele>1182.694386</ele>
        <time>2026-05-08T10:47:50.321Z</time>
      </trkpt>
      <trkpt lat="47.618938" lon="11.384957">
        <ele>1184.350679</ele>
        <time>2026-05-08T10:47:57.318Z</time>
      </trkpt>
      <trkpt lat="47.618878" lon="11.384849">
        <ele>1185.886589</ele>
        <time>2026-05-08T10:48:04.324Z</time>
      </trkpt>
      <trkpt lat="47.618829" lon="11.384717">
        <ele>1187.344703</ele>
        <time>2026-05-08T10:48:12.319Z</time>
      </trkpt>
      <trkpt lat="47.618773" lon="11.384588">
        <ele>1188.449509</ele>
        <time>2026-05-08T10:48:20.319Z</time>
      </trkpt>
      <trkpt lat="47.618721" lon="11.384465">
        <ele>1189.494934</ele>
        <time>2026-05-08T10:48:27.300Z</time>
      </trkpt>
      <trkpt lat="47.618682" lon="11.384338">
        <ele>1190.499808</ele>
        <time>2026-05-08T10:48:34.318Z</time>
      </trkpt>
      <trkpt lat="47.618635" lon="11.384213">
        <ele>1191.530413</ele>
        <time>2026-05-08T10:48:42.319Z</time>
      </trkpt>
      <trkpt lat="47.618608" lon="11.384082">
        <ele>1192.516773</ele>
        <time>2026-05-08T10:48:49.312Z</time>
      </trkpt>
      <trkpt lat="47.618592" lon="11.383950">
        <ele>1193.482470</ele>
        <time>2026-05-08T10:48:57.322Z</time>
      </trkpt>
      <trkpt lat="47.618580" lon="11.383814">
        <ele>1194.470077</ele>
        <time>2026-05-08T10:49:06.321Z</time>
      </trkpt>
      <trkpt lat="47.618556" lon="11.383675">
        <ele>1195.503245</ele>
        <time>2026-05-08T10:49:17.308Z</time>
      </trkpt>
      <trkpt lat="47.618516" lon="11.383539">
        <ele>1196.571660</ele>
        <time>2026-05-08T10:49:25.313Z</time>
      </trkpt>
      <trkpt lat="47.618474" lon="11.383410">
        <ele>1197.603189</ele>
        <time>2026-05-08T10:49:33.313Z</time>
      </trkpt>
      <trkpt lat="47.618430" lon="11.383289">
        <ele>1198.593132</ele>
        <time>2026-05-08T10:49:41.312Z</time>
      </trkpt>
      <trkpt lat="47.618383" lon="11.383167">
        <ele>1199.604931</ele>
        <time>2026-05-08T10:49:49.314Z</time>
      </trkpt>
      <trkpt lat="47.618334" lon="11.383038">
        <ele>1200.671112</ele>
        <time>2026-05-08T10:49:59.317Z</time>
      </trkpt>
      <trkpt lat="47.618291" lon="11.382906">
        <ele>1201.726740</ele>
        <time>2026-05-08T10:50:08.322Z</time>
      </trkpt>
      <trkpt lat="47.618270" lon="11.382772">
        <ele>1202.717333</ele>
        <time>2026-05-08T10:50:17.320Z</time>
      </trkpt>
      <trkpt lat="47.618261" lon="11.382633">
        <ele>1203.722800</ele>
        <time>2026-05-08T10:50:25.318Z</time>
      </trkpt>
      <trkpt lat="47.618238" lon="11.382493">
        <ele>1204.760370</ele>
        <time>2026-05-08T10:50:33.302Z</time>
      </trkpt>
      <trkpt lat="47.618234" lon="11.382349">
        <ele>1205.798113</ele>
        <time>2026-05-08T10:50:42.314Z</time>
      </trkpt>
      <trkpt lat="47.618211" lon="11.382201">
        <ele>1206.700583</ele>
        <time>2026-05-08T10:50:50.300Z</time>
      </trkpt>
      <trkpt lat="47.618181" lon="11.382059">
        <ele>1207.482407</ele>
        <time>2026-05-08T10:50:57.305Z</time>
      </trkpt>
      <trkpt lat="47.618144" lon="11.381927">
        <ele>1208.233480</ele>
        <time>2026-05-08T10:51:04.301Z</time>
      </trkpt>
      <trkpt lat="47.618111" lon="11.381802">
        <ele>1208.938777</ele>
        <time>2026-05-08T10:51:12.299Z</time>
      </trkpt>
      <trkpt lat="47.618078" lon="11.381653">
        <ele>1209.762767</ele>
        <time>2026-05-08T10:51:20.312Z</time>
      </trkpt>
      <trkpt lat="47.618030" lon="11.381531">
        <ele>1210.504927</ele>
        <time>2026-05-08T10:51:26.305Z</time>
      </trkpt>
      <trkpt lat="47.617987" lon="11.381408">
        <ele>1211.232887</ele>
        <time>2026-05-08T10:51:32.317Z</time>
      </trkpt>
      <trkpt lat="47.617964" lon="11.381277">
        <ele>1211.944101</ele>
        <time>2026-05-08T10:51:39.301Z</time>
      </trkpt>
      <trkpt lat="47.617974" lon="11.381135">
        <ele>1212.694204</ele>
        <time>2026-05-08T10:51:47.301Z</time>
      </trkpt>
      <trkpt lat="47.617990" lon="11.380986">
        <ele>1213.486894</ele>
        <time>2026-05-08T10:51:55.317Z</time>
      </trkpt>
      <trkpt lat="47.617992" lon="11.380850">
        <ele>1214.201583</ele>
        <time>2026-05-08T10:52:01.315Z</time>
      </trkpt>
      <trkpt lat="47.617981" lon="11.380698">
        <ele>1215.004753</ele>
        <time>2026-05-08T10:52:07.310Z</time>
      </trkpt>
      <trkpt lat="47.617996" lon="11.380559">
        <ele>1215.744333</ele>
        <time>2026-05-08T10:52:15.301Z</time>
      </trkpt>
      <trkpt lat="47.618005" lon="11.380416">
        <ele>1216.498897</ele>
        <time>2026-05-08T10:52:22.301Z</time>
      </trkpt>
      <trkpt lat="47.617988" lon="11.380274">
        <ele>1217.256614</ele>
        <time>2026-05-08T10:52:28.302Z</time>
      </trkpt>
      <trkpt lat="47.617974" lon="11.380132">
        <ele>1218.010595</ele>
        <time>2026-05-08T10:52:36.299Z</time>
      </trkpt>
      <trkpt lat="47.617961" lon="11.379992">
        <ele>1218.753076</ele>
        <time>2026-05-08T10:52:43.299Z</time>
      </trkpt>
      <trkpt lat="47.617965" lon="11.379840">
        <ele>1219.552265</ele>
        <time>2026-05-08T10:52:52.304Z</time>
      </trkpt>
      <trkpt lat="47.617981" lon="11.379699">
        <ele>1220.357433</ele>
        <time>2026-05-08T10:53:01.311Z</time>
      </trkpt>
      <trkpt lat="47.617950" lon="11.379566">
        <ele>1221.496262</ele>
        <time>2026-05-08T10:53:10.314Z</time>
      </trkpt>
      <trkpt lat="47.617918" lon="11.379438">
        <ele>1222.601048</ele>
        <time>2026-05-08T10:53:19.303Z</time>
      </trkpt>
      <trkpt lat="47.617910" lon="11.379295">
        <ele>1223.762254</ele>
        <time>2026-05-08T10:53:29.305Z</time>
      </trkpt>
      <trkpt lat="47.617855" lon="11.379175">
        <ele>1224.936574</ele>
        <time>2026-05-08T10:53:36.302Z</time>
      </trkpt>
      <trkpt lat="47.617821" lon="11.379036">
        <ele>1226.133203</ele>
        <time>2026-05-08T10:53:43.301Z</time>
      </trkpt>
      <trkpt lat="47.617789" lon="11.378890">
        <ele>1227.375599</ele>
        <time>2026-05-08T10:53:50.302Z</time>
      </trkpt>
      <trkpt lat="47.617747" lon="11.378766">
        <ele>1228.498631</ele>
        <time>2026-05-08T10:53:56.313Z</time>
      </trkpt>
      <trkpt lat="47.617706" lon="11.378639">
        <ele>1229.638172</ele>
        <time>2026-05-08T10:54:02.301Z</time>
      </trkpt>
      <trkpt lat="47.617667" lon="11.378497">
        <ele>1230.879036</ele>
        <time>2026-05-08T10:54:09.315Z</time>
      </trkpt>
      <trkpt lat="47.617615" lon="11.378367">
        <ele>1232.102349</ele>
        <time>2026-05-08T10:54:16.302Z</time>
      </trkpt>
      <trkpt lat="47.617554" lon="11.378253">
        <ele>1233.280231</ele>
        <time>2026-05-08T10:54:24.305Z</time>
      </trkpt>
      <trkpt lat="47.617484" lon="11.378170">
        <ele>1234.356052</ele>
        <time>2026-05-08T10:54:31.308Z</time>
      </trkpt>
      <trkpt lat="47.617430" lon="11.378052">
        <ele>1235.510245</ele>
        <time>2026-05-08T10:54:38.301Z</time>
      </trkpt>
      <trkpt lat="47.617387" lon="11.377932">
        <ele>1236.610040</ele>
        <time>2026-05-08T10:54:45.311Z</time>
      </trkpt>
      <trkpt lat="47.617349" lon="11.377796">
        <ele>1237.801435</ele>
        <time>2026-05-08T10:54:52.310Z</time>
      </trkpt>
      <trkpt lat="47.617330" lon="11.377654">
        <ele>1238.973003</ele>
        <time>2026-05-08T10:55:00.313Z</time>
      </trkpt>
      <trkpt lat="47.617308" lon="11.377524">
        <ele>1240.057687</ele>
        <time>2026-05-08T10:55:07.312Z</time>
      </trkpt>
      <trkpt lat="47.617320" lon="11.377371">
        <ele>1241.304206</ele>
        <time>2026-05-08T10:55:15.302Z</time>
      </trkpt>
      <trkpt lat="47.617298" lon="11.377238">
        <ele>1242.533624</ele>
        <time>2026-05-08T10:55:22.300Z</time>
      </trkpt>
      <trkpt lat="47.617257" lon="11.377112">
        <ele>1243.888815</ele>
        <time>2026-05-08T10:55:30.313Z</time>
      </trkpt>
      <trkpt lat="47.617254" lon="11.376974">
        <ele>1245.226177</ele>
        <time>2026-05-08T10:55:40.301Z</time>
      </trkpt>
      <trkpt lat="47.617252" lon="11.376832">
        <ele>1246.601888</ele>
        <time>2026-05-08T10:55:50.305Z</time>
      </trkpt>
      <trkpt lat="47.617225" lon="11.376701">
        <ele>1247.928740</ele>
        <time>2026-05-08T10:55:59.309Z</time>
      </trkpt>
      <trkpt lat="47.617190" lon="11.376562">
        <ele>1249.365960</ele>
        <time>2026-05-08T10:56:10.315Z</time>
      </trkpt>
      <trkpt lat="47.617136" lon="11.376436">
        <ele>1250.812177</ele>
        <time>2026-05-08T10:56:18.301Z</time>
      </trkpt>
      <trkpt lat="47.617064" lon="11.376336">
        <ele>1252.229411</ele>
        <time>2026-05-08T10:56:28.315Z</time>
      </trkpt>
      <trkpt lat="47.617004" lon="11.376230">
        <ele>1253.570104</ele>
        <time>2026-05-08T10:56:37.315Z</time>
      </trkpt>
      <trkpt lat="47.616935" lon="11.376118">
        <ele>1255.039762</ele>
        <time>2026-05-08T10:56:49.305Z</time>
      </trkpt>
      <trkpt lat="47.616859" lon="11.376023">
        <ele>1256.467808</ele>
        <time>2026-05-08T10:57:00.303Z</time>
      </trkpt>
      <trkpt lat="47.616801" lon="11.375920">
        <ele>1257.767775</ele>
        <time>2026-05-08T10:57:11.304Z</time>
      </trkpt>
      <trkpt lat="47.616797" lon="11.375784">
        <ele>1259.086335</ele>
        <time>2026-05-08T10:57:19.302Z</time>
      </trkpt>
      <trkpt lat="47.616819" lon="11.375649">
        <ele>1260.431624</ele>
        <time>2026-05-08T10:57:26.308Z</time>
      </trkpt>
      <trkpt lat="47.616805" lon="11.375504">
        <ele>1261.850439</ele>
        <time>2026-05-08T10:57:34.304Z</time>
      </trkpt>
      <trkpt lat="47.616810" lon="11.375361">
        <ele>1263.237409</ele>
        <time>2026-05-08T10:57:44.298Z</time>
      </trkpt>
      <trkpt lat="47.616843" lon="11.375223">
        <ele>1264.655703</ele>
        <time>2026-05-08T10:57:52.308Z</time>
      </trkpt>
      <trkpt lat="47.616854" lon="11.375083">
        <ele>1266.020933</ele>
        <time>2026-05-08T10:58:04.306Z</time>
      </trkpt>
      <trkpt lat="47.616871" lon="11.374946">
        <ele>1267.370220</ele>
        <time>2026-05-08T10:58:14.305Z</time>
      </trkpt>
      <trkpt lat="47.616887" lon="11.374808">
        <ele>1268.899055</ele>
        <time>2026-05-08T10:58:25.302Z</time>
      </trkpt>
      <trkpt lat="47.616917" lon="11.374669">
        <ele>1270.537664</ele>
        <time>2026-05-08T10:58:38.302Z</time>
      </trkpt>
      <trkpt lat="47.616937" lon="11.374524">
        <ele>1272.199326</ele>
        <time>2026-05-08T10:58:47.300Z</time>
      </trkpt>
      <trkpt lat="47.616986" lon="11.374325">
        <ele>1274.577910</ele>
        <time>2026-05-08T10:59:44.302Z</time>
      </trkpt>
      <trkpt lat="47.617030" lon="11.374198">
        <ele>1276.181055</ele>
        <time>2026-05-08T10:59:58.301Z</time>
      </trkpt>
      <trkpt lat="47.617059" lon="11.374070">
        <ele>1277.697121</ele>
        <time>2026-05-08T11:00:07.299Z</time>
      </trkpt>
      <trkpt lat="47.617098" lon="11.373944">
        <ele>1279.253737</ele>
        <time>2026-05-08T11:00:16.309Z</time>
      </trkpt>
      <trkpt lat="47.617117" lon="11.373811">
        <ele>1280.780103</ele>
        <time>2026-05-08T11:00:25.303Z</time>
      </trkpt>
      <trkpt lat="47.617145" lon="11.373679">
        <ele>1282.333720</ele>
        <time>2026-05-08T11:00:35.314Z</time>
      </trkpt>
      <trkpt lat="47.617176" lon="11.373544">
        <ele>1283.934904</ele>
        <time>2026-05-08T11:00:45.309Z</time>
      </trkpt>
      <trkpt lat="47.617238" lon="11.373434">
        <ele>1285.544716</ele>
        <time>2026-05-08T11:00:56.307Z</time>
      </trkpt>
      <trkpt lat="47.617260" lon="11.373300">
        <ele>1287.093119</ele>
        <time>2026-05-08T11:01:07.303Z</time>
      </trkpt>
      <trkpt lat="47.617285" lon="11.373164">
        <ele>1288.675753</ele>
        <time>2026-05-08T11:01:19.305Z</time>
      </trkpt>
      <trkpt lat="47.617302" lon="11.373031">
        <ele>1290.195556</ele>
        <time>2026-05-08T11:01:30.303Z</time>
      </trkpt>
      <trkpt lat="47.617326" lon="11.372900">
        <ele>1291.719650</ele>
        <time>2026-05-08T11:01:40.304Z</time>
      </trkpt>
      <trkpt lat="47.617327" lon="11.372760">
        <ele>1293.291523</ele>
        <time>2026-05-08T11:01:51.304Z</time>
      </trkpt>
      <trkpt lat="47.617352" lon="11.372618">
        <ele>1294.939239</ele>
        <time>2026-05-08T11:02:00.315Z</time>
      </trkpt>
      <trkpt lat="47.617352" lon="11.372478">
        <ele>1296.511022</ele>
        <time>2026-05-08T11:02:09.310Z</time>
      </trkpt>
      <trkpt lat="47.617374" lon="11.372342">
        <ele>1298.050834</ele>
        <time>2026-05-08T11:02:21.308Z</time>
      </trkpt>
      <trkpt lat="47.617372" lon="11.372196">
        <ele>1299.586887</ele>
        <time>2026-05-08T11:02:30.301Z</time>
      </trkpt>
      <trkpt lat="47.617379" lon="11.372058">
        <ele>1301.042577</ele>
        <time>2026-05-08T11:02:41.299Z</time>
      </trkpt>
      <trkpt lat="47.617410" lon="11.371917">
        <ele>1302.602614</ele>
        <time>2026-05-08T11:02:52.308Z</time>
      </trkpt>
      <trkpt lat="47.617435" lon="11.371777">
        <ele>1304.126033</ele>
        <time>2026-05-08T11:03:02.303Z</time>
      </trkpt>
      <trkpt lat="47.617467" lon="11.371643">
        <ele>1305.621380</ele>
        <time>2026-05-08T11:03:13.300Z</time>
      </trkpt>
      <trkpt lat="47.617480" lon="11.371510">
        <ele>1307.035000</ele>
        <time>2026-05-08T11:03:23.307Z</time>
      </trkpt>
      <trkpt lat="47.617499" lon="11.371377">
        <ele>1308.465062</ele>
        <time>2026-05-08T11:03:34.316Z</time>
      </trkpt>
      <trkpt lat="47.617532" lon="11.371249">
        <ele>1309.906573</ele>
        <time>2026-05-08T11:03:45.310Z</time>
      </trkpt>
      <trkpt lat="47.617587" lon="11.371122">
        <ele>1311.494389</ele>
        <time>2026-05-08T11:03:55.303Z</time>
      </trkpt>
      <trkpt lat="47.617622" lon="11.370996">
        <ele>1312.927867</ele>
        <time>2026-05-08T11:04:05.300Z</time>
      </trkpt>
      <trkpt lat="47.617672" lon="11.370875">
        <ele>1314.420743</ele>
        <time>2026-05-08T11:04:16.304Z</time>
      </trkpt>
      <trkpt lat="47.617720" lon="11.370753">
        <ele>1315.906622</ele>
        <time>2026-05-08T11:04:28.313Z</time>
      </trkpt>
      <trkpt lat="47.617782" lon="11.370656">
        <ele>1317.312703</ele>
        <time>2026-05-08T11:04:38.300Z</time>
      </trkpt>
      <trkpt lat="47.617848" lon="11.370559">
        <ele>1318.762439</ele>
        <time>2026-05-08T11:04:47.314Z</time>
      </trkpt>
      <trkpt lat="47.617918" lon="11.370455">
        <ele>1320.308359</ele>
        <time>2026-05-08T11:04:56.315Z</time>
      </trkpt>
      <trkpt lat="47.617954" lon="11.370333">
        <ele>1321.709205</ele>
        <time>2026-05-08T11:05:06.318Z</time>
      </trkpt>
      <trkpt lat="47.618027" lon="11.370241">
        <ele>1323.203896</ele>
        <time>2026-05-08T11:05:18.311Z</time>
      </trkpt>
      <trkpt lat="47.618098" lon="11.370153">
        <ele>1324.647609</ele>
        <time>2026-05-08T11:05:29.323Z</time>
      </trkpt>
      <trkpt lat="47.618150" lon="11.370040">
        <ele>1326.222094</ele>
        <time>2026-05-08T11:05:41.312Z</time>
      </trkpt>
      <trkpt lat="47.618198" lon="11.369921">
        <ele>1328.150233</ele>
        <time>2026-05-08T11:05:51.314Z</time>
      </trkpt>
      <trkpt lat="47.618229" lon="11.369783">
        <ele>1330.172675</ele>
        <time>2026-05-08T11:06:00.309Z</time>
      </trkpt>
      <trkpt lat="47.618278" lon="11.369668">
        <ele>1332.064247</ele>
        <time>2026-05-08T11:06:11.313Z</time>
      </trkpt>
      <trkpt lat="47.618322" lon="11.369545">
        <ele>1334.000291</ele>
        <time>2026-05-08T11:06:24.299Z</time>
      </trkpt>
      <trkpt lat="47.618356" lon="11.369416">
        <ele>1335.926088</ele>
        <time>2026-05-08T11:06:34.301Z</time>
      </trkpt>
      <trkpt lat="47.618414" lon="11.369310">
        <ele>1337.824310</ele>
        <time>2026-05-08T11:06:43.308Z</time>
      </trkpt>
      <trkpt lat="47.618524" lon="11.369126">
        <ele>1341.243759</ele>
        <time>2026-05-08T11:08:01.307Z</time>
      </trkpt>
      <trkpt lat="47.618581" lon="11.369012">
        <ele>1343.217215</ele>
        <time>2026-05-08T11:08:11.317Z</time>
      </trkpt>
      <trkpt lat="47.618655" lon="11.368925">
        <ele>1345.164757</ele>
        <time>2026-05-08T11:08:21.317Z</time>
      </trkpt>
      <trkpt lat="47.618730" lon="11.368839">
        <ele>1347.119972</ele>
        <time>2026-05-08T11:08:31.317Z</time>
      </trkpt>
      <trkpt lat="47.618764" lon="11.368709">
        <ele>1349.058711</ele>
        <time>2026-05-08T11:08:39.320Z</time>
      </trkpt>
      <trkpt lat="47.618818" lon="11.368594">
        <ele>1351.007326</ele>
        <time>2026-05-08T11:08:52.321Z</time>
      </trkpt>
      <trkpt lat="47.618867" lon="11.368473">
        <ele>1352.969902</ele>
        <time>2026-05-08T11:09:03.313Z</time>
      </trkpt>
      <trkpt lat="47.618948" lon="11.368407">
        <ele>1354.876057</ele>
        <time>2026-05-08T11:09:15.314Z</time>
      </trkpt>
      <trkpt lat="47.619026" lon="11.368332">
        <ele>1356.793291</ele>
        <time>2026-05-08T11:09:25.319Z</time>
      </trkpt>
      <trkpt lat="47.619111" lon="11.368264">
        <ele>1358.785206</ele>
        <time>2026-05-08T11:09:36.317Z</time>
      </trkpt>
      <trkpt lat="47.619176" lon="11.368170">
        <ele>1360.657522</ele>
        <time>2026-05-08T11:09:45.317Z</time>
      </trkpt>
      <trkpt lat="47.619260" lon="11.368094">
        <ele>1362.686932</ele>
        <time>2026-05-08T11:09:55.316Z</time>
      </trkpt>
      <trkpt lat="47.619352" lon="11.368123">
        <ele>1364.035489</ele>
        <time>2026-05-08T11:10:09.318Z</time>
      </trkpt>
      <trkpt lat="47.619429" lon="11.368203">
        <ele>1365.358236</ele>
        <time>2026-05-08T11:10:21.313Z</time>
      </trkpt>
      <trkpt lat="47.619487" lon="11.368310">
        <ele>1366.660541</ele>
        <time>2026-05-08T11:10:32.317Z</time>
      </trkpt>
      <trkpt lat="47.619568" lon="11.368393">
        <ele>1368.045741</ele>
        <time>2026-05-08T11:10:41.320Z</time>
      </trkpt>
      <trkpt lat="47.619661" lon="11.368442">
        <ele>1369.434432</ele>
        <time>2026-05-08T11:10:50.321Z</time>
      </trkpt>
      <trkpt lat="47.619730" lon="11.368535">
        <ele>1370.746189</ele>
        <time>2026-05-08T11:11:02.316Z</time>
      </trkpt>
      <trkpt lat="47.619795" lon="11.368646">
        <ele>1372.140787</ele>
        <time>2026-05-08T11:11:12.303Z</time>
      </trkpt>
      <trkpt lat="47.619877" lon="11.368716">
        <ele>1373.471997</ele>
        <time>2026-05-08T11:11:19.304Z</time>
      </trkpt>
      <trkpt lat="47.619949" lon="11.368800">
        <ele>1374.760854</ele>
        <time>2026-05-08T11:11:27.309Z</time>
      </trkpt>
      <trkpt lat="47.620013" lon="11.368899">
        <ele>1376.061877</ele>
        <time>2026-05-08T11:11:36.299Z</time>
      </trkpt>
      <trkpt lat="47.620067" lon="11.369007">
        <ele>1377.337265</ele>
        <time>2026-05-08T11:11:44.302Z</time>
      </trkpt>
      <trkpt lat="47.620103" lon="11.369132">
        <ele>1378.626519</ele>
        <time>2026-05-08T11:11:54.303Z</time>
      </trkpt>
      <trkpt lat="47.620144" lon="11.369263">
        <ele>1379.996401</ele>
        <time>2026-05-08T11:12:04.305Z</time>
      </trkpt>
      <trkpt lat="47.620208" lon="11.369365">
        <ele>1381.318104</ele>
        <time>2026-05-08T11:12:14.307Z</time>
      </trkpt>
      <trkpt lat="47.620265" lon="11.369477">
        <ele>1382.649156</ele>
        <time>2026-05-08T11:12:23.304Z</time>
      </trkpt>
      <trkpt lat="47.620326" lon="11.369597">
        <ele>1384.074677</ele>
        <time>2026-05-08T11:12:32.303Z</time>
      </trkpt>
      <trkpt lat="47.620383" lon="11.369702">
        <ele>1385.353369</ele>
        <time>2026-05-08T11:12:40.312Z</time>
      </trkpt>
      <trkpt lat="47.620445" lon="11.369806">
        <ele>1386.670205</ele>
        <time>2026-05-08T11:12:49.310Z</time>
      </trkpt>
      <trkpt lat="47.620512" lon="11.369907">
        <ele>1388.014243</ele>
        <time>2026-05-08T11:12:58.308Z</time>
      </trkpt>
      <trkpt lat="47.620581" lon="11.370018">
        <ele>1389.637677</ele>
        <time>2026-05-08T11:13:08.308Z</time>
      </trkpt>
      <trkpt lat="47.620661" lon="11.370088">
        <ele>1391.126856</ele>
        <time>2026-05-08T11:13:15.303Z</time>
      </trkpt>
      <trkpt lat="47.620716" lon="11.370205">
        <ele>1392.668462</ele>
        <time>2026-05-08T11:13:25.302Z</time>
      </trkpt>
      <trkpt lat="47.620742" lon="11.370341">
        <ele>1394.196241</ele>
        <time>2026-05-08T11:13:35.299Z</time>
      </trkpt>
      <trkpt lat="47.620778" lon="11.370472">
        <ele>1395.725153</ele>
        <time>2026-05-08T11:13:47.302Z</time>
      </trkpt>
      <trkpt lat="47.620843" lon="11.370571">
        <ele>1397.218781</ele>
        <time>2026-05-08T11:13:56.298Z</time>
      </trkpt>
      <trkpt lat="47.620920" lon="11.370662">
        <ele>1398.797217</ele>
        <time>2026-05-08T11:14:05.296Z</time>
      </trkpt>
      <trkpt lat="47.620986" lon="11.370772">
        <ele>1400.388794</ele>
        <time>2026-05-08T11:14:15.301Z</time>
      </trkpt>
      <trkpt lat="47.621046" lon="11.370887">
        <ele>1401.960467</ele>
        <time>2026-05-08T11:14:26.310Z</time>
      </trkpt>
      <trkpt lat="47.621094" lon="11.371001">
        <ele>1403.413129</ele>
        <time>2026-05-08T11:14:37.306Z</time>
      </trkpt>
      <trkpt lat="47.621163" lon="11.371101">
        <ele>1404.959722</ele>
        <time>2026-05-08T11:14:48.302Z</time>
      </trkpt>
      <trkpt lat="47.621199" lon="11.371235">
        <ele>1406.518694</ele>
        <time>2026-05-08T11:15:00.313Z</time>
      </trkpt>
      <trkpt lat="47.621224" lon="11.371369">
        <ele>1408.021321</ele>
        <time>2026-05-08T11:15:11.308Z</time>
      </trkpt>
      <trkpt lat="47.621276" lon="11.371496">
        <ele>1409.627239</ele>
        <time>2026-05-08T11:15:23.301Z</time>
      </trkpt>
      <trkpt lat="47.621349" lon="11.371592">
        <ele>1411.191336</ele>
        <time>2026-05-08T11:15:33.296Z</time>
      </trkpt>
      <trkpt lat="47.621405" lon="11.371701">
        <ele>1412.672509</ele>
        <time>2026-05-08T11:15:42.299Z</time>
      </trkpt>
      <trkpt lat="47.621476" lon="11.371808">
        <ele>1414.295210</ele>
        <time>2026-05-08T11:15:51.305Z</time>
      </trkpt>
      <trkpt lat="47.621547" lon="11.371906">
        <ele>1415.850095</ele>
        <time>2026-05-08T11:15:58.312Z</time>
      </trkpt>
      <trkpt lat="47.621632" lon="11.371992">
        <ele>1417.235538</ele>
        <time>2026-05-08T11:16:05.308Z</time>
      </trkpt>
      <trkpt lat="47.621696" lon="11.372096">
        <ele>1418.070975</ele>
        <time>2026-05-08T11:16:13.323Z</time>
      </trkpt>
      <trkpt lat="47.621747" lon="11.372222">
        <ele>1418.942881</ele>
        <time>2026-05-08T11:16:22.316Z</time>
      </trkpt>
      <trkpt lat="47.621782" lon="11.372362">
        <ele>1419.828706</ele>
        <time>2026-05-08T11:16:31.310Z</time>
      </trkpt>
      <trkpt lat="47.621806" lon="11.372506">
        <ele>1420.708700</ele>
        <time>2026-05-08T11:16:39.313Z</time>
      </trkpt>
      <trkpt lat="47.621854" lon="11.372626">
        <ele>1421.536507</ele>
        <time>2026-05-08T11:16:47.300Z</time>
      </trkpt>
      <trkpt lat="47.621901" lon="11.372748">
        <ele>1422.370137</ele>
        <time>2026-05-08T11:16:57.304Z</time>
      </trkpt>
      <trkpt lat="47.621974" lon="11.372647">
        <ele>1423.248671</ele>
        <time>2026-05-08T11:24:00.312Z</time>
      </trkpt>
      <trkpt lat="47.622026" lon="11.372517">
        <ele>1424.145461</ele>
        <time>2026-05-08T11:24:09.307Z</time>
      </trkpt>
      <trkpt lat="47.622063" lon="11.372382">
        <ele>1425.010009</ele>
        <time>2026-05-08T11:24:17.310Z</time>
      </trkpt>
      <trkpt lat="47.622116" lon="11.372267">
        <ele>1425.836464</ele>
        <time>2026-05-08T11:24:25.303Z</time>
      </trkpt>
      <trkpt lat="47.622171" lon="11.372148">
        <ele>1426.692444</ele>
        <time>2026-05-08T11:24:39.309Z</time>
      </trkpt>
      <trkpt lat="47.622223" lon="11.372030">
        <ele>1427.528801</ele>
        <time>2026-05-08T11:24:47.308Z</time>
      </trkpt>
      <trkpt lat="47.622266" lon="11.371907">
        <ele>1428.350790</ele>
        <time>2026-05-08T11:24:55.308Z</time>
      </trkpt>
      <trkpt lat="47.622312" lon="11.371776">
        <ele>1429.227066</ele>
        <time>2026-05-08T11:25:08.308Z</time>
      </trkpt>
      <trkpt lat="47.622354" lon="11.371657">
        <ele>1430.023942</ele>
        <time>2026-05-08T11:25:18.308Z</time>
      </trkpt>
      <trkpt lat="47.622403" lon="11.371546">
        <ele>1430.811091</ele>
        <time>2026-05-08T11:25:25.308Z</time>
      </trkpt>
      <trkpt lat="47.622450" lon="11.371428">
        <ele>1431.624198</ele>
        <time>2026-05-08T11:25:33.307Z</time>
      </trkpt>
      <trkpt lat="47.622496" lon="11.371306">
        <ele>1432.453489</ele>
        <time>2026-05-08T11:25:41.308Z</time>
      </trkpt>
      <trkpt lat="47.622520" lon="11.371168">
        <ele>1433.909014</ele>
        <time>2026-05-08T11:25:54.308Z</time>
      </trkpt>
      <trkpt lat="47.622572" lon="11.371052">
        <ele>1435.645243</ele>
        <time>2026-05-08T11:26:02.308Z</time>
      </trkpt>
      <trkpt lat="47.622610" lon="11.370922">
        <ele>1437.411207</ele>
        <time>2026-05-08T11:26:13.304Z</time>
      </trkpt>
      <trkpt lat="47.622698" lon="11.370963">
        <ele>1439.116712</ele>
        <time>2026-05-08T11:26:32.305Z</time>
      </trkpt>
      <trkpt lat="47.622766" lon="11.371050">
        <ele>1440.776999</ele>
        <time>2026-05-08T11:26:47.312Z</time>
      </trkpt>
      <trkpt lat="47.622824" lon="11.371158">
        <ele>1442.497985</ele>
        <time>2026-05-08T11:27:10.304Z</time>
      </trkpt>
      <trkpt lat="47.622861" lon="11.371284">
        <ele>1444.210852</ele>
        <time>2026-05-08T11:27:28.307Z</time>
      </trkpt>
      <trkpt lat="47.622936" lon="11.371364">
        <ele>1445.918838</ele>
        <time>2026-05-08T11:27:41.305Z</time>
      </trkpt>
      <trkpt lat="47.623011" lon="11.371443">
        <ele>1447.619578</ele>
        <time>2026-05-08T11:28:01.307Z</time>
      </trkpt>
      <trkpt lat="47.623025" lon="11.371308">
        <ele>1449.321839</ele>
        <time>2026-05-08T11:28:18.305Z</time>
      </trkpt>
      <trkpt lat="47.623069" lon="11.371188">
        <ele>1451.024336</ele>
        <time>2026-05-08T11:28:30.310Z</time>
      </trkpt>
      <trkpt lat="47.623111" lon="11.371066">
        <ele>1452.731633</ele>
        <time>2026-05-08T11:28:42.311Z</time>
      </trkpt>
      <trkpt lat="47.623157" lon="11.370947">
        <ele>1454.441285</ele>
        <time>2026-05-08T11:28:58.304Z</time>
      </trkpt>
      <trkpt lat="47.623201" lon="11.370725">
        <ele>1457.325134</ele>
        <time>2026-05-08T11:30:48.309Z</time>
      </trkpt>
      <trkpt lat="47.623245" lon="11.370609">
        <ele>1458.984008</ele>
        <time>2026-05-08T11:31:08.302Z</time>
      </trkpt>
      <trkpt lat="47.623263" lon="11.370467">
        <ele>1460.784727</ele>
        <time>2026-05-08T11:31:18.303Z</time>
      </trkpt>
      <trkpt lat="47.623294" lon="11.370340">
        <ele>1462.468078</ele>
        <time>2026-05-08T11:31:35.297Z</time>
      </trkpt>
      <trkpt lat="47.623373" lon="11.370253">
        <ele>1464.287246</ele>
        <time>2026-05-08T11:31:46.299Z</time>
      </trkpt>
      <trkpt lat="47.623375" lon="11.370118">
        <ele>1465.970103</ele>
        <time>2026-05-08T11:31:55.302Z</time>
      </trkpt>
      <trkpt lat="47.623431" lon="11.370013">
        <ele>1467.647076</ele>
        <time>2026-05-08T11:32:08.297Z</time>
      </trkpt>
      <trkpt lat="47.623483" lon="11.369897">
        <ele>1469.392065</ele>
        <time>2026-05-08T11:32:19.300Z</time>
      </trkpt>
      <trkpt lat="47.623552" lon="11.369798">
        <ele>1471.175870</ele>
        <time>2026-05-08T11:32:30.300Z</time>
      </trkpt>
      <trkpt lat="47.623613" lon="11.369688">
        <ele>1472.960098</ele>
        <time>2026-05-08T11:32:44.300Z</time>
      </trkpt>
      <trkpt lat="47.623668" lon="11.369576">
        <ele>1474.695826</ele>
        <time>2026-05-08T11:32:55.299Z</time>
      </trkpt>
      <trkpt lat="47.623658" lon="11.369439">
        <ele>1476.421860</ele>
        <time>2026-05-08T11:33:27.324Z</time>
      </trkpt>
      <trkpt lat="47.623706" lon="11.369319">
        <ele>1478.169695</ele>
        <time>2026-05-08T11:34:07.313Z</time>
      </trkpt>
      <trkpt lat="47.623764" lon="11.369217">
        <ele>1479.841245</ele>
        <time>2026-05-08T11:34:16.302Z</time>
      </trkpt>
      <trkpt lat="47.623779" lon="11.369084">
        <ele>1481.530302</ele>
        <time>2026-05-08T11:34:25.309Z</time>
      </trkpt>
      <trkpt lat="47.623806" lon="11.368953">
        <ele>1483.246151</ele>
        <time>2026-05-08T11:34:38.308Z</time>
      </trkpt>
      <trkpt lat="47.623870" lon="11.368851">
        <ele>1484.991683</ele>
        <time>2026-05-08T11:34:52.308Z</time>
      </trkpt>
      <trkpt lat="47.623930" lon="11.368740">
        <ele>1486.773909</ele>
        <time>2026-05-08T11:35:03.320Z</time>
      </trkpt>
      <trkpt lat="47.623968" lon="11.368614">
        <ele>1488.502913</ele>
        <time>2026-05-08T11:35:12.320Z</time>
      </trkpt>
      <trkpt lat="47.624014" lon="11.368497">
        <ele>1490.199505</ele>
        <time>2026-05-08T11:35:21.297Z</time>
      </trkpt>
      <trkpt lat="47.624045" lon="11.368363">
        <ele>1491.974037</ele>
        <time>2026-05-08T11:35:32.314Z</time>
      </trkpt>
      <trkpt lat="47.624118" lon="11.368285">
        <ele>1493.645846</ele>
        <time>2026-05-08T11:35:41.297Z</time>
      </trkpt>
      <trkpt lat="47.624117" lon="11.368142">
        <ele>1495.437081</ele>
        <time>2026-05-08T11:35:53.320Z</time>
      </trkpt>
      <trkpt lat="47.624167" lon="11.368020">
        <ele>1497.225520</ele>
        <time>2026-05-08T11:36:04.306Z</time>
      </trkpt>
      <trkpt lat="47.624220" lon="11.367901">
        <ele>1499.012079</ele>
        <time>2026-05-08T11:36:17.309Z</time>
      </trkpt>
      <trkpt lat="47.624262" lon="11.367761">
        <ele>1501.074198</ele>
        <time>2026-05-08T11:36:28.309Z</time>
      </trkpt>
      <trkpt lat="47.624307" lon="11.367886">
        <ele>1503.017739</ele>
        <time>2026-05-08T11:36:52.306Z</time>
      </trkpt>
      <trkpt lat="47.624347" lon="11.368023">
        <ele>1505.065355</ele>
        <time>2026-05-08T11:37:05.310Z</time>
      </trkpt>
      <trkpt lat="47.624411" lon="11.368134">
        <ele>1507.068703</ele>
        <time>2026-05-08T11:37:21.310Z</time>
      </trkpt>
      <trkpt lat="47.624455" lon="11.368255">
        <ele>1508.954283</ele>
        <time>2026-05-08T11:37:40.307Z</time>
      </trkpt>
      <trkpt lat="47.624488" lon="11.368381">
        <ele>1510.808194</ele>
        <time>2026-05-08T11:37:51.300Z</time>
      </trkpt>
      <trkpt lat="47.624469" lon="11.368518">
        <ele>1512.726447</ele>
        <time>2026-05-08T11:38:00.309Z</time>
      </trkpt>
      <trkpt lat="47.624500" lon="11.368650">
        <ele>1514.643514</ele>
        <time>2026-05-08T11:38:11.317Z</time>
      </trkpt>
      <trkpt lat="47.624523" lon="11.368790">
        <ele>1516.619761</ele>
        <time>2026-05-08T11:38:27.313Z</time>
      </trkpt>
      <trkpt lat="47.624521" lon="11.368929">
        <ele>1518.526511</ele>
        <time>2026-05-08T11:38:37.302Z</time>
      </trkpt>
      <trkpt lat="47.624515" lon="11.369077">
        <ele>1520.559925</ele>
        <time>2026-05-08T11:38:48.299Z</time>
      </trkpt>
      <trkpt lat="47.624522" lon="11.369220">
        <ele>1522.526265</ele>
        <time>2026-05-08T11:39:01.307Z</time>
      </trkpt>
      <trkpt lat="47.624512" lon="11.369369">
        <ele>1524.579831</ele>
        <time>2026-05-08T11:39:13.305Z</time>
      </trkpt>
      <trkpt lat="47.624568" lon="11.369482">
        <ele>1526.503412</ele>
        <time>2026-05-08T11:39:26.311Z</time>
      </trkpt>
      <trkpt lat="47.624656" lon="11.369441">
        <ele>1528.380275</ele>
        <time>2026-05-08T11:39:50.311Z</time>
      </trkpt>
      <trkpt lat="47.624683" lon="11.369575">
        <ele>1530.298380</ele>
        <time>2026-05-08T11:40:12.315Z</time>
      </trkpt>
      <trkpt lat="47.624774" lon="11.369620">
        <ele>1532.250215</ele>
        <time>2026-05-08T11:40:39.307Z</time>
      </trkpt>
      <trkpt lat="47.624870" lon="11.369614">
        <ele>1534.205388</ele>
        <time>2026-05-08T11:41:09.309Z</time>
      </trkpt>
      <trkpt lat="47.624945" lon="11.369540">
        <ele>1536.042430</ele>
        <time>2026-05-08T11:41:26.308Z</time>
      </trkpt>
      <trkpt lat="47.625024" lon="11.369473">
        <ele>1538.667530</ele>
        <time>2026-05-08T11:41:48.318Z</time>
      </trkpt>
      <trkpt lat="47.625111" lon="11.369434">
        <ele>1541.289424</ele>
        <time>2026-05-08T11:42:11.309Z</time>
      </trkpt>
      <trkpt lat="47.625124" lon="11.369571">
        <ele>1543.979449</ele>
        <time>2026-05-08T11:42:37.315Z</time>
      </trkpt>
      <trkpt lat="47.625140" lon="11.369713">
        <ele>1546.778738</ele>
        <time>2026-05-08T11:42:51.307Z</time>
      </trkpt>
      <trkpt lat="47.625171" lon="11.369852">
        <ele>1549.625499</ele>
        <time>2026-05-08T11:43:06.313Z</time>
      </trkpt>
      <trkpt lat="47.625179" lon="11.369990">
        <ele>1552.318601</ele>
        <time>2026-05-08T11:43:23.312Z</time>
      </trkpt>
      <trkpt lat="47.625180" lon="11.370133">
        <ele>1555.099162</ele>
        <time>2026-05-08T11:43:36.311Z</time>
      </trkpt>
      <trkpt lat="47.625225" lon="11.370263">
        <ele>1557.940694</ele>
        <time>2026-05-08T11:43:50.311Z</time>
      </trkpt>
      <trkpt lat="47.625293" lon="11.370361">
        <ele>1560.675486</ele>
        <time>2026-05-08T11:44:03.312Z</time>
      </trkpt>
      <trkpt lat="47.625334" lon="11.370487">
        <ele>1563.395939</ele>
        <time>2026-05-08T11:44:23.319Z</time>
      </trkpt>
      <trkpt lat="47.625377" lon="11.370611">
        <ele>1566.107331</ele>
        <time>2026-05-08T11:44:39.306Z</time>
      </trkpt>
      <trkpt lat="47.625414" lon="11.370739">
        <ele>1568.815325</ele>
        <time>2026-05-08T11:44:51.297Z</time>
      </trkpt>
      <trkpt lat="47.625464" lon="11.370858">
        <ele>1571.541880</ele>
        <time>2026-05-08T11:45:06.308Z</time>
      </trkpt>
      <trkpt lat="47.625454" lon="11.371012">
        <ele>1574.550019</ele>
        <time>2026-05-08T11:45:16.315Z</time>
      </trkpt>
      <trkpt lat="47.625506" lon="11.371145">
        <ele>1577.539602</ele>
        <time>2026-05-08T11:45:25.316Z</time>
      </trkpt>
      <trkpt lat="47.625549" lon="11.371276">
        <ele>1580.372695</ele>
        <time>2026-05-08T11:45:34.313Z</time>
      </trkpt>
      <trkpt lat="47.625567" lon="11.371410">
        <ele>1583.029341</ele>
        <time>2026-05-08T11:45:43.321Z</time>
      </trkpt>
      <trkpt lat="47.625608" lon="11.371541">
        <ele>1585.837647</ele>
        <time>2026-05-08T11:45:51.315Z</time>
      </trkpt>
      <trkpt lat="47.625669" lon="11.371642">
        <ele>1587.891607</ele>
        <time>2026-05-08T11:46:01.375Z</time>
      </trkpt>
      <trkpt lat="47.625744" lon="11.371719">
        <ele>1587.773941</ele>
        <time>2026-05-08T11:46:22.315Z</time>
      </trkpt>
      <trkpt lat="47.625836" lon="11.371763">
        <ele>1587.649234</ele>
        <time>2026-05-08T11:46:48.299Z</time>
      </trkpt>
      <trkpt lat="47.625929" lon="11.371754">
        <ele>1587.528996</ele>
        <time>2026-05-08T11:47:10.316Z</time>
      </trkpt>
      <trkpt lat="47.625990" lon="11.371856">
        <ele>1587.410423</ele>
        <time>2026-05-08T11:47:27.312Z</time>
      </trkpt>
      <trkpt lat="47.626012" lon="11.372058">
        <ele>1587.232503</ele>
        <time>2026-05-08T11:49:05.311Z</time>
      </trkpt>
      <trkpt lat="47.625939" lon="11.371966">
        <ele>1587.108935</ele>
        <time>2026-05-08T11:55:37.298Z</time>
      </trkpt>
      <trkpt lat="47.625866" lon="11.371862">
        <ele>1586.978369</ele>
        <time>2026-05-08T11:55:48.298Z</time>
      </trkpt>
      <trkpt lat="47.625791" lon="11.371770">
        <ele>1586.852823</ele>
        <time>2026-05-08T11:56:03.314Z</time>
      </trkpt>
      <trkpt lat="47.625717" lon="11.371683">
        <ele>1586.731015</ele>
        <time>2026-05-08T11:56:24.305Z</time>
      </trkpt>
      <trkpt lat="47.625643" lon="11.371589">
        <ele>1586.605336</ele>
        <time>2026-05-08T11:56:37.310Z</time>
      </trkpt>
      <trkpt lat="47.625585" lon="11.371477">
        <ele>1586.482521</ele>
        <time>2026-05-08T11:56:49.304Z</time>
      </trkpt>
      <trkpt lat="47.625591" lon="11.371341">
        <ele>1586.364014</ele>
        <time>2026-05-08T11:56:57.309Z</time>
      </trkpt>
      <trkpt lat="47.625554" lon="11.371215">
        <ele>1586.244507</ele>
        <time>2026-05-08T11:57:05.304Z</time>
      </trkpt>
      <trkpt lat="47.625518" lon="11.371086">
        <ele>1586.123103</ele>
        <time>2026-05-08T11:57:14.300Z</time>
      </trkpt>
      <trkpt lat="47.625482" lon="11.370960">
        <ele>1586.004105</ele>
        <time>2026-05-08T11:57:21.313Z</time>
      </trkpt>
      <trkpt lat="47.625432" lon="11.370831">
        <ele>1585.874711</ele>
        <time>2026-05-08T11:57:29.313Z</time>
      </trkpt>
      <trkpt lat="47.625408" lon="11.370694">
        <ele>1585.751628</ele>
        <time>2026-05-08T11:57:40.309Z</time>
      </trkpt>
      <trkpt lat="47.625371" lon="11.370571">
        <ele>1585.634507</ele>
        <time>2026-05-08T11:57:51.308Z</time>
      </trkpt>
      <trkpt lat="47.625333" lon="11.370441">
        <ele>1583.190215</ele>
        <time>2026-05-08T11:58:06.312Z</time>
      </trkpt>
      <trkpt lat="47.625301" lon="11.370313">
        <ele>1579.820770</ele>
        <time>2026-05-08T11:58:25.310Z</time>
      </trkpt>
      <trkpt lat="47.625253" lon="11.370187">
        <ele>1576.248630</ele>
        <time>2026-05-08T11:58:44.317Z</time>
      </trkpt>
      <trkpt lat="47.625195" lon="11.370083">
        <ele>1572.917050</ele>
        <time>2026-05-08T11:58:54.316Z</time>
      </trkpt>
      <trkpt lat="47.625181" lon="11.369947">
        <ele>1569.521558</ele>
        <time>2026-05-08T11:59:10.316Z</time>
      </trkpt>
      <trkpt lat="47.625161" lon="11.369806">
        <ele>1565.965354</ele>
        <time>2026-05-08T11:59:22.307Z</time>
      </trkpt>
      <trkpt lat="47.625132" lon="11.369666">
        <ele>1562.350552</ele>
        <time>2026-05-08T11:59:37.323Z</time>
      </trkpt>
      <trkpt lat="47.625094" lon="11.369536">
        <ele>1558.853302</ele>
        <time>2026-05-08T11:59:50.318Z</time>
      </trkpt>
      <trkpt lat="47.625042" lon="11.369422">
        <ele>1555.455900</ele>
        <time>2026-05-08T12:00:22.299Z</time>
      </trkpt>
      <trkpt lat="47.624966" lon="11.369500">
        <ele>1552.071896</ele>
        <time>2026-05-08T12:00:45.316Z</time>
      </trkpt>
      <trkpt lat="47.624880" lon="11.369594">
        <ele>1548.160345</ele>
        <time>2026-05-08T12:01:44.306Z</time>
      </trkpt>
      <trkpt lat="47.624799" lon="11.369655">
        <ele>1544.833971</ele>
        <time>2026-05-08T12:02:25.311Z</time>
      </trkpt>
      <trkpt lat="47.624714" lon="11.369613">
        <ele>1541.553255</ele>
        <time>2026-05-08T12:02:58.305Z</time>
      </trkpt>
      <trkpt lat="47.624670" lon="11.369489">
        <ele>1538.094593</ele>
        <time>2026-05-08T12:03:12.308Z</time>
      </trkpt>
      <trkpt lat="47.624595" lon="11.369398">
        <ele>1534.546728</ele>
        <time>2026-05-08T12:03:45.305Z</time>
      </trkpt>
      <trkpt lat="47.624564" lon="11.369263">
        <ele>1531.026729</ele>
        <time>2026-05-08T12:04:00.307Z</time>
      </trkpt>
      <trkpt lat="47.624534" lon="11.369128">
        <ele>1527.518366</ele>
        <time>2026-05-08T12:04:22.310Z</time>
      </trkpt>
      <trkpt lat="47.624529" lon="11.368989">
        <ele>1524.082832</ele>
        <time>2026-05-08T12:04:33.310Z</time>
      </trkpt>
      <trkpt lat="47.624497" lon="11.368856">
        <ele>1520.597377</ele>
        <time>2026-05-08T12:04:46.311Z</time>
      </trkpt>
      <trkpt lat="47.624498" lon="11.368720">
        <ele>1518.433783</ele>
        <time>2026-05-08T12:05:00.313Z</time>
      </trkpt>
      <trkpt lat="47.624490" lon="11.368585">
        <ele>1516.691621</ele>
        <time>2026-05-08T12:05:17.311Z</time>
      </trkpt>
      <trkpt lat="47.624522" lon="11.368456">
        <ele>1514.924532</ele>
        <time>2026-05-08T12:05:27.314Z</time>
      </trkpt>
      <trkpt lat="47.624513" lon="11.368323">
        <ele>1513.206181</ele>
        <time>2026-05-08T12:05:40.303Z</time>
      </trkpt>
      <trkpt lat="47.624440" lon="11.368226">
        <ele>1511.337060</ele>
        <time>2026-05-08T12:06:02.309Z</time>
      </trkpt>
      <trkpt lat="47.624381" lon="11.368114">
        <ele>1509.509657</ele>
        <time>2026-05-08T12:06:19.312Z</time>
      </trkpt>
      <trkpt lat="47.624344" lon="11.367977">
        <ele>1507.612342</ele>
        <time>2026-05-08T12:06:31.303Z</time>
      </trkpt>
      <trkpt lat="47.624308" lon="11.367844">
        <ele>1505.769852</ele>
        <time>2026-05-08T12:06:43.311Z</time>
      </trkpt>
      <trkpt lat="47.624264" lon="11.367722">
        <ele>1503.991074</ele>
        <time>2026-05-08T12:06:53.308Z</time>
      </trkpt>
      <trkpt lat="47.624219" lon="11.367843">
        <ele>1502.214484</ele>
        <time>2026-05-08T12:07:10.304Z</time>
      </trkpt>
      <trkpt lat="47.624187" lon="11.367978">
        <ele>1500.374807</ele>
        <time>2026-05-08T12:07:22.300Z</time>
      </trkpt>
      <trkpt lat="47.624156" lon="11.368117">
        <ele>1498.492622</ele>
        <time>2026-05-08T12:07:38.307Z</time>
      </trkpt>
      <trkpt lat="47.624156" lon="11.368254">
        <ele>1496.731434</ele>
        <time>2026-05-08T12:07:47.310Z</time>
      </trkpt>
      <trkpt lat="47.624083" lon="11.368345">
        <ele>1494.912858</ele>
        <time>2026-05-08T12:07:56.311Z</time>
      </trkpt>
      <trkpt lat="47.624079" lon="11.368480">
        <ele>1493.175701</ele>
        <time>2026-05-08T12:08:19.311Z</time>
      </trkpt>
      <trkpt lat="47.624015" lon="11.368588">
        <ele>1491.326988</ele>
        <time>2026-05-08T12:08:28.302Z</time>
      </trkpt>
      <trkpt lat="47.623970" lon="11.368714">
        <ele>1489.493850</ele>
        <time>2026-05-08T12:08:38.307Z</time>
      </trkpt>
      <trkpt lat="47.623914" lon="11.368819">
        <ele>1487.772544</ele>
        <time>2026-05-08T12:08:50.312Z</time>
      </trkpt>
      <trkpt lat="47.623848" lon="11.368920">
        <ele>1485.964075</ele>
        <time>2026-05-08T12:09:03.312Z</time>
      </trkpt>
      <trkpt lat="47.623800" lon="11.369042">
        <ele>1484.167012</ele>
        <time>2026-05-08T12:09:16.306Z</time>
      </trkpt>
      <trkpt lat="47.623779" lon="11.369172">
        <ele>1482.474010</ele>
        <time>2026-05-08T12:09:25.305Z</time>
      </trkpt>
      <trkpt lat="47.623741" lon="11.369300">
        <ele>1480.702675</ele>
        <time>2026-05-08T12:09:35.310Z</time>
      </trkpt>
      <trkpt lat="47.623684" lon="11.369408">
        <ele>1478.965469</ele>
        <time>2026-05-08T12:09:47.301Z</time>
      </trkpt>
      <trkpt lat="47.623659" lon="11.369546">
        <ele>1477.155744</ele>
        <time>2026-05-08T12:09:57.307Z</time>
      </trkpt>
      <trkpt lat="47.623606" lon="11.369669">
        <ele>1475.306883</ele>
        <time>2026-05-08T12:10:08.301Z</time>
      </trkpt>
      <trkpt lat="47.623534" lon="11.369765">
        <ele>1473.487969</ele>
        <time>2026-05-08T12:10:18.308Z</time>
      </trkpt>
      <trkpt lat="47.623493" lon="11.369900">
        <ele>1471.612708</ele>
        <time>2026-05-08T12:10:27.302Z</time>
      </trkpt>
      <trkpt lat="47.623442" lon="11.370013">
        <ele>1469.890400</ele>
        <time>2026-05-08T12:10:36.304Z</time>
      </trkpt>
      <trkpt lat="47.623369" lon="11.370093">
        <ele>1468.185117</ele>
        <time>2026-05-08T12:10:50.311Z</time>
      </trkpt>
      <trkpt lat="47.623328" lon="11.370219">
        <ele>1466.413150</ele>
        <time>2026-05-08T12:11:02.307Z</time>
      </trkpt>
      <trkpt lat="47.623311" lon="11.370357">
        <ele>1464.636491</ele>
        <time>2026-05-08T12:11:18.315Z</time>
      </trkpt>
      <trkpt lat="47.623282" lon="11.370489">
        <ele>1462.878203</ele>
        <time>2026-05-08T12:11:33.310Z</time>
      </trkpt>
      <trkpt lat="47.623243" lon="11.370624">
        <ele>1461.018057</ele>
        <time>2026-05-08T12:11:46.310Z</time>
      </trkpt>
      <trkpt lat="47.623214" lon="11.370765">
        <ele>1459.151063</ele>
        <time>2026-05-08T12:12:02.313Z</time>
      </trkpt>
      <trkpt lat="47.623195" lon="11.370902">
        <ele>1457.379667</ele>
        <time>2026-05-08T12:12:18.304Z</time>
      </trkpt>
      <trkpt lat="47.623165" lon="11.371040">
        <ele>1455.543296</ele>
        <time>2026-05-08T12:12:34.312Z</time>
      </trkpt>
      <trkpt lat="47.623110" lon="11.371146">
        <ele>1453.849132</ele>
        <time>2026-05-08T12:12:44.321Z</time>
      </trkpt>
      <trkpt lat="47.623067" lon="11.371265">
        <ele>1452.139123</ele>
        <time>2026-05-08T12:12:55.313Z</time>
      </trkpt>
      <trkpt lat="47.623034" lon="11.371397">
        <ele>1450.546550</ele>
        <time>2026-05-08T12:13:05.318Z</time>
      </trkpt>
      <trkpt lat="47.622987" lon="11.371520">
        <ele>1449.024058</ele>
        <time>2026-05-08T12:13:15.308Z</time>
      </trkpt>
      <trkpt lat="47.622947" lon="11.371654">
        <ele>1447.445979</ele>
        <time>2026-05-08T12:13:26.301Z</time>
      </trkpt>
      <trkpt lat="47.622939" lon="11.371795">
        <ele>1445.922332</ele>
        <time>2026-05-08T12:13:36.306Z</time>
      </trkpt>
      <trkpt lat="47.622901" lon="11.371918">
        <ele>1444.465370</ele>
        <time>2026-05-08T12:13:44.310Z</time>
      </trkpt>
      <trkpt lat="47.622847" lon="11.372046">
        <ele>1442.839345</ele>
        <time>2026-05-08T12:13:55.303Z</time>
      </trkpt>
      <trkpt lat="47.622780" lon="11.372147">
        <ele>1441.313393</ele>
        <time>2026-05-08T12:14:05.313Z</time>
      </trkpt>
      <trkpt lat="47.622733" lon="11.372270">
        <ele>1439.790895</ele>
        <time>2026-05-08T12:14:19.314Z</time>
      </trkpt>
      <trkpt lat="47.622664" lon="11.372359">
        <ele>1438.330212</ele>
        <time>2026-05-08T12:14:33.302Z</time>
      </trkpt>
      <trkpt lat="47.622590" lon="11.372450">
        <ele>1436.794690</ele>
        <time>2026-05-08T12:14:46.313Z</time>
      </trkpt>
      <trkpt lat="47.622502" lon="11.372502">
        <ele>1435.281400</ele>
        <time>2026-05-08T12:14:58.310Z</time>
      </trkpt>
      <trkpt lat="47.622418" lon="11.372556">
        <ele>1433.818857</ele>
        <time>2026-05-08T12:15:13.319Z</time>
      </trkpt>
      <trkpt lat="47.622327" lon="11.372558">
        <ele>1432.364883</ele>
        <time>2026-05-08T12:15:25.303Z</time>
      </trkpt>
      <trkpt lat="47.622236" lon="11.372519">
        <ele>1430.851628</ele>
        <time>2026-05-08T12:15:38.301Z</time>
      </trkpt>
      <trkpt lat="47.622188" lon="11.372385">
        <ele>1429.217591</ele>
        <time>2026-05-08T12:15:46.305Z</time>
      </trkpt>
      <trkpt lat="47.622101" lon="11.372343">
        <ele>1427.755951</ele>
        <time>2026-05-08T12:15:54.311Z</time>
      </trkpt>
      <trkpt lat="47.622055" lon="11.372468">
        <ele>1426.222386</ele>
        <time>2026-05-08T12:16:06.310Z</time>
      </trkpt>
      <trkpt lat="47.622024" lon="11.372594">
        <ele>1424.778040</ele>
        <time>2026-05-08T12:16:15.309Z</time>
      </trkpt>
      <trkpt lat="47.621978" lon="11.372723">
        <ele>1423.206533</ele>
        <time>2026-05-08T12:16:24.315Z</time>
      </trkpt>
      <trkpt lat="47.621896" lon="11.372652">
        <ele>1421.717426</ele>
        <time>2026-05-08T12:27:46.304Z</time>
      </trkpt>
      <trkpt lat="47.621815" lon="11.372568">
        <ele>1420.174937</ele>
        <time>2026-05-08T12:27:51.296Z</time>
      </trkpt>
      <trkpt lat="47.621777" lon="11.372434">
        <ele>1418.645539</ele>
        <time>2026-05-08T12:27:54.305Z</time>
      </trkpt>
      <trkpt lat="47.621735" lon="11.372315">
        <ele>1417.232385</ele>
        <time>2026-05-08T12:27:56.297Z</time>
      </trkpt>
      <trkpt lat="47.621683" lon="11.372196">
        <ele>1415.740405</ele>
        <time>2026-05-08T12:27:58.297Z</time>
      </trkpt>
      <trkpt lat="47.621626" lon="11.372078">
        <ele>1414.213137</ele>
        <time>2026-05-08T12:28:00.296Z</time>
      </trkpt>
      <trkpt lat="47.621570" lon="11.371959">
        <ele>1412.686293</ele>
        <time>2026-05-08T12:28:02.305Z</time>
      </trkpt>
      <trkpt lat="47.621515" lon="11.371851">
        <ele>1411.262264</ele>
        <time>2026-05-08T12:28:04.294Z</time>
      </trkpt>
      <trkpt lat="47.621462" lon="11.371741">
        <ele>1409.839768</ele>
        <time>2026-05-08T12:28:06.303Z</time>
      </trkpt>
      <trkpt lat="47.621402" lon="11.371630">
        <ele>1408.342887</ele>
        <time>2026-05-08T12:28:08.291Z</time>
      </trkpt>
      <trkpt lat="47.621316" lon="11.371478">
        <ele>1406.255102</ele>
        <time>2026-05-08T12:28:11.306Z</time>
      </trkpt>
      <trkpt lat="47.621240" lon="11.371317">
        <ele>1404.187259</ele>
        <time>2026-05-08T12:28:14.303Z</time>
      </trkpt>
      <trkpt lat="47.621161" lon="11.371161">
        <ele>1402.134495</ele>
        <time>2026-05-08T12:28:17.297Z</time>
      </trkpt>
      <trkpt lat="47.621076" lon="11.370986">
        <ele>1399.865217</ele>
        <time>2026-05-08T12:28:20.295Z</time>
      </trkpt>
      <trkpt lat="47.621029" lon="11.370867">
        <ele>1398.414199</ele>
        <time>2026-05-08T12:28:22.295Z</time>
      </trkpt>
      <trkpt lat="47.620960" lon="11.370712">
        <ele>1396.460000</ele>
        <time>2026-05-08T12:28:25.306Z</time>
      </trkpt>
      <trkpt lat="47.620889" lon="11.370581">
        <ele>1394.701940</ele>
        <time>2026-05-08T12:28:28.300Z</time>
      </trkpt>
      <trkpt lat="47.620821" lon="11.370419">
        <ele>1392.857601</ele>
        <time>2026-05-08T12:28:31.295Z</time>
      </trkpt>
      <trkpt lat="47.620758" lon="11.370301">
        <ele>1391.402842</ele>
        <time>2026-05-08T12:28:33.296Z</time>
      </trkpt>
      <trkpt lat="47.620692" lon="11.370197">
        <ele>1390.022402</ele>
        <time>2026-05-08T12:28:35.305Z</time>
      </trkpt>
      <trkpt lat="47.620612" lon="11.370033">
        <ele>1388.065980</ele>
        <time>2026-05-08T12:28:38.296Z</time>
      </trkpt>
      <trkpt lat="47.620553" lon="11.369923">
        <ele>1386.707427</ele>
        <time>2026-05-08T12:28:40.302Z</time>
      </trkpt>
      <trkpt lat="47.620471" lon="11.369759">
        <ele>1384.734053</ele>
        <time>2026-05-08T12:28:43.297Z</time>
      </trkpt>
      <trkpt lat="47.620404" lon="11.369648">
        <ele>1383.294078</ele>
        <time>2026-05-08T12:28:45.294Z</time>
      </trkpt>
      <trkpt lat="47.620333" lon="11.369530">
        <ele>1381.765446</ele>
        <time>2026-05-08T12:28:47.310Z</time>
      </trkpt>
      <trkpt lat="47.620257" lon="11.369424">
        <ele>1380.269865</ele>
        <time>2026-05-08T12:28:49.296Z</time>
      </trkpt>
      <trkpt lat="47.620185" lon="11.369307">
        <ele>1378.738796</ele>
        <time>2026-05-08T12:28:51.302Z</time>
      </trkpt>
      <trkpt lat="47.620136" lon="11.369169">
        <ele>1377.231409</ele>
        <time>2026-05-08T12:28:53.307Z</time>
      </trkpt>
      <trkpt lat="47.620084" lon="11.369033">
        <ele>1375.720341</ele>
        <time>2026-05-08T12:28:55.292Z</time>
      </trkpt>
      <trkpt lat="47.620002" lon="11.368910">
        <ele>1374.048442</ele>
        <time>2026-05-08T12:28:57.296Z</time>
      </trkpt>
      <trkpt lat="47.619916" lon="11.368799">
        <ele>1372.414081</ele>
        <time>2026-05-08T12:28:59.293Z</time>
      </trkpt>
      <trkpt lat="47.619834" lon="11.368694">
        <ele>1370.861035</ele>
        <time>2026-05-08T12:29:01.296Z</time>
      </trkpt>
      <trkpt lat="47.619758" lon="11.368587">
        <ele>1369.358811</ele>
        <time>2026-05-08T12:29:03.300Z</time>
      </trkpt>
      <trkpt lat="47.619684" lon="11.368488">
        <ele>1367.734668</ele>
        <time>2026-05-08T12:29:05.293Z</time>
      </trkpt>
      <trkpt lat="47.619613" lon="11.368390">
        <ele>1366.097320</ele>
        <time>2026-05-08T12:29:07.295Z</time>
      </trkpt>
      <trkpt lat="47.619531" lon="11.368306">
        <ele>1364.414863</ele>
        <time>2026-05-08T12:29:09.298Z</time>
      </trkpt>
      <trkpt lat="47.619460" lon="11.368222">
        <ele>1362.881598</ele>
        <time>2026-05-08T12:29:11.304Z</time>
      </trkpt>
      <trkpt lat="47.619353" lon="11.368127">
        <ele>1360.776216</ele>
        <time>2026-05-08T12:29:14.295Z</time>
      </trkpt>
      <trkpt lat="47.619249" lon="11.368072">
        <ele>1358.912062</ele>
        <time>2026-05-08T12:29:18.292Z</time>
      </trkpt>
      <trkpt lat="47.619162" lon="11.368115">
        <ele>1357.363789</ele>
        <time>2026-05-08T12:29:24.305Z</time>
      </trkpt>
      <trkpt lat="47.619005" lon="11.368283">
        <ele>1354.095428</ele>
        <time>2026-05-08T12:30:42.296Z</time>
      </trkpt>
      <trkpt lat="47.618922" lon="11.368404">
        <ele>1352.130705</ele>
        <time>2026-05-08T12:30:46.305Z</time>
      </trkpt>
      <trkpt lat="47.618862" lon="11.368506">
        <ele>1350.589997</ele>
        <time>2026-05-08T12:30:50.302Z</time>
      </trkpt>
      <trkpt lat="47.618790" lon="11.368641">
        <ele>1348.630835</ele>
        <time>2026-05-08T12:30:55.301Z</time>
      </trkpt>
      <trkpt lat="47.618709" lon="11.368774">
        <ele>1346.590876</ele>
        <time>2026-05-08T12:30:59.297Z</time>
      </trkpt>
      <trkpt lat="47.618650" lon="11.368892">
        <ele>1344.918815</ele>
        <time>2026-05-08T12:31:02.294Z</time>
      </trkpt>
      <trkpt lat="47.618591" lon="11.369015">
        <ele>1343.200716</ele>
        <time>2026-05-08T12:31:05.299Z</time>
      </trkpt>
      <trkpt lat="47.618531" lon="11.369127">
        <ele>1341.572534</ele>
        <time>2026-05-08T12:31:08.308Z</time>
      </trkpt>
      <trkpt lat="47.618456" lon="11.369221">
        <ele>1339.914835</ele>
        <time>2026-05-08T12:31:12.305Z</time>
      </trkpt>
      <trkpt lat="47.618373" lon="11.369055">
        <ele>1337.915373</ele>
        <time>2026-05-08T12:32:20.307Z</time>
      </trkpt>
      <trkpt lat="47.618348" lon="11.368893">
        <ele>1336.630470</ele>
        <time>2026-05-08T12:32:24.301Z</time>
      </trkpt>
      <trkpt lat="47.618327" lon="11.368737">
        <ele>1335.400544</ele>
        <time>2026-05-08T12:32:27.293Z</time>
      </trkpt>
      <trkpt lat="47.618313" lon="11.368555">
        <ele>1333.984282</ele>
        <time>2026-05-08T12:32:30.301Z</time>
      </trkpt>
      <trkpt lat="47.618295" lon="11.368410">
        <ele>1332.844366</ele>
        <time>2026-05-08T12:32:32.295Z</time>
      </trkpt>
      <trkpt lat="47.618282" lon="11.368272">
        <ele>1331.767053</ele>
        <time>2026-05-08T12:32:34.297Z</time>
      </trkpt>
      <trkpt lat="47.618226" lon="11.368086">
        <ele>1330.192069</ele>
        <time>2026-05-08T12:32:37.292Z</time>
      </trkpt>
      <trkpt lat="47.618179" lon="11.367951">
        <ele>1329.017322</ele>
        <time>2026-05-08T12:32:39.296Z</time>
      </trkpt>
      <trkpt lat="47.618134" lon="11.367821">
        <ele>1327.887444</ele>
        <time>2026-05-08T12:32:41.338Z</time>
      </trkpt>
      <trkpt lat="47.618102" lon="11.367687">
        <ele>1326.788328</ele>
        <time>2026-05-08T12:32:43.306Z</time>
      </trkpt>
      <trkpt lat="47.618056" lon="11.367492">
        <ele>1325.191027</ele>
        <time>2026-05-08T12:32:46.299Z</time>
      </trkpt>
      <trkpt lat="47.618010" lon="11.367311">
        <ele>1323.695463</ele>
        <time>2026-05-08T12:32:49.294Z</time>
      </trkpt>
      <trkpt lat="47.617954" lon="11.367187">
        <ele>1322.541473</ele>
        <time>2026-05-08T12:32:52.299Z</time>
      </trkpt>
      <trkpt lat="47.617862" lon="11.367134">
        <ele>1321.409472</ele>
        <time>2026-05-08T12:32:55.291Z</time>
      </trkpt>
      <trkpt lat="47.617769" lon="11.367091">
        <ele>1320.292164</ele>
        <time>2026-05-08T12:32:58.298Z</time>
      </trkpt>
      <trkpt lat="47.617660" lon="11.367134">
        <ele>1318.998495</ele>
        <time>2026-05-08T12:33:01.302Z</time>
      </trkpt>
      <trkpt lat="47.617597" lon="11.367249">
        <ele>1317.820268</ele>
        <time>2026-05-08T12:33:03.294Z</time>
      </trkpt>
      <trkpt lat="47.617530" lon="11.367357">
        <ele>1316.480272</ele>
        <time>2026-05-08T12:33:05.298Z</time>
      </trkpt>
      <trkpt lat="47.617454" lon="11.367488">
        <ele>1314.902351</ele>
        <time>2026-05-08T12:33:07.304Z</time>
      </trkpt>
      <trkpt lat="47.617390" lon="11.367591">
        <ele>1313.623455</ele>
        <time>2026-05-08T12:33:09.304Z</time>
      </trkpt>
      <trkpt lat="47.617331" lon="11.367732">
        <ele>1312.108341</ele>
        <time>2026-05-08T12:33:11.295Z</time>
      </trkpt>
      <trkpt lat="47.617280" lon="11.367872">
        <ele>1310.655504</ele>
        <time>2026-05-08T12:33:13.298Z</time>
      </trkpt>
      <trkpt lat="47.617234" lon="11.368000">
        <ele>1309.331222</ele>
        <time>2026-05-08T12:33:15.301Z</time>
      </trkpt>
      <trkpt lat="47.617200" lon="11.368126">
        <ele>1308.092154</ele>
        <time>2026-05-08T12:33:17.304Z</time>
      </trkpt>
      <trkpt lat="47.617176" lon="11.368273">
        <ele>1306.711307</ele>
        <time>2026-05-08T12:33:19.308Z</time>
      </trkpt>
      <trkpt lat="47.617160" lon="11.368429">
        <ele>1305.270705</ele>
        <time>2026-05-08T12:33:21.296Z</time>
      </trkpt>
      <trkpt lat="47.617157" lon="11.368576">
        <ele>1303.928045</ele>
        <time>2026-05-08T12:33:23.307Z</time>
      </trkpt>
      <trkpt lat="47.617146" lon="11.368713">
        <ele>1302.668454</ele>
        <time>2026-05-08T12:33:25.301Z</time>
      </trkpt>
      <trkpt lat="47.617076" lon="11.368853">
        <ele>1301.077085</ele>
        <time>2026-05-08T12:33:28.307Z</time>
      </trkpt>
      <trkpt lat="47.616974" lon="11.368785">
        <ele>1299.562545</ele>
        <time>2026-05-08T12:33:31.298Z</time>
      </trkpt>
      <trkpt lat="47.616951" lon="11.368621">
        <ele>1298.033230</ele>
        <time>2026-05-08T12:33:34.304Z</time>
      </trkpt>
      <trkpt lat="47.616944" lon="11.368429">
        <ele>1296.277787</ele>
        <time>2026-05-08T12:33:37.297Z</time>
      </trkpt>
      <trkpt lat="47.616923" lon="11.368245">
        <ele>1294.574034</ele>
        <time>2026-05-08T12:33:40.301Z</time>
      </trkpt>
      <trkpt lat="47.616914" lon="11.368091">
        <ele>1293.108438</ele>
        <time>2026-05-08T12:33:42.294Z</time>
      </trkpt>
      <trkpt lat="47.616881" lon="11.367897">
        <ele>1291.086818</ele>
        <time>2026-05-08T12:33:45.295Z</time>
      </trkpt>
      <trkpt lat="47.616885" lon="11.367730">
        <ele>1289.398389</ele>
        <time>2026-05-08T12:33:48.299Z</time>
      </trkpt>
      <trkpt lat="47.616843" lon="11.367556">
        <ele>1287.530979</ele>
        <time>2026-05-08T12:34:59.296Z</time>
      </trkpt>
      <trkpt lat="47.616780" lon="11.367393">
        <ele>1285.632509</ele>
        <time>2026-05-08T12:35:02.310Z</time>
      </trkpt>
      <trkpt lat="47.616704" lon="11.367243">
        <ele>1283.736520</ele>
        <time>2026-05-08T12:35:05.292Z</time>
      </trkpt>
      <trkpt lat="47.616678" lon="11.367057">
        <ele>1281.817191</ele>
        <time>2026-05-08T12:35:08.296Z</time>
      </trkpt>
      <trkpt lat="47.616695" lon="11.366870">
        <ele>1279.910634</ele>
        <time>2026-05-08T12:35:11.301Z</time>
      </trkpt>
      <trkpt lat="47.616712" lon="11.366675">
        <ele>1277.923941</ele>
        <time>2026-05-08T12:35:14.306Z</time>
      </trkpt>
      <trkpt lat="47.616710" lon="11.366535">
        <ele>1276.509062</ele>
        <time>2026-05-08T12:35:16.295Z</time>
      </trkpt>
      <trkpt lat="47.616719" lon="11.366379">
        <ele>1274.927073</ele>
        <time>2026-05-08T12:35:18.299Z</time>
      </trkpt>
      <trkpt lat="47.616696" lon="11.366199">
        <ele>1273.075964</ele>
        <time>2026-05-08T12:35:20.298Z</time>
      </trkpt>
      <trkpt lat="47.616696" lon="11.366026">
        <ele>1271.327969</ele>
        <time>2026-05-08T12:35:22.301Z</time>
      </trkpt>
      <trkpt lat="47.616692" lon="11.365886">
        <ele>1269.912137</ele>
        <time>2026-05-08T12:35:24.295Z</time>
      </trkpt>
      <trkpt lat="47.616677" lon="11.365730">
        <ele>1268.319954</ele>
        <time>2026-05-08T12:35:26.305Z</time>
      </trkpt>
      <trkpt lat="47.616680" lon="11.365557">
        <ele>1266.573224</ele>
        <time>2026-05-08T12:35:28.298Z</time>
      </trkpt>
      <trkpt lat="47.616689" lon="11.365423">
        <ele>1265.230424</ele>
        <time>2026-05-08T12:35:30.296Z</time>
      </trkpt>
      <trkpt lat="47.616685" lon="11.365290">
        <ele>1263.902892</ele>
        <time>2026-05-08T12:35:32.298Z</time>
      </trkpt>
      <trkpt lat="47.616674" lon="11.365144">
        <ele>1262.437983</ele>
        <time>2026-05-08T12:35:34.300Z</time>
      </trkpt>
      <trkpt lat="47.616686" lon="11.364978">
        <ele>1260.773219</ele>
        <time>2026-05-08T12:35:37.295Z</time>
      </trkpt>
      <trkpt lat="47.616682" lon="11.364829">
        <ele>1259.286284</ele>
        <time>2026-05-08T12:35:40.307Z</time>
      </trkpt>
      <trkpt lat="47.616654" lon="11.364685">
        <ele>1257.791839</ele>
        <time>2026-05-08T12:35:42.295Z</time>
      </trkpt>
      <trkpt lat="47.616633" lon="11.364513">
        <ele>1256.048830</ele>
        <time>2026-05-08T12:35:44.299Z</time>
      </trkpt>
      <trkpt lat="47.616609" lon="11.364354">
        <ele>1254.424093</ele>
        <time>2026-05-08T12:35:46.304Z</time>
      </trkpt>
      <trkpt lat="47.616601" lon="11.364202">
        <ele>1252.903805</ele>
        <time>2026-05-08T12:35:48.307Z</time>
      </trkpt>
      <trkpt lat="47.616622" lon="11.364063">
        <ele>1251.483377</ele>
        <time>2026-05-08T12:35:50.296Z</time>
      </trkpt>
      <trkpt lat="47.616631" lon="11.363914">
        <ele>1249.991665</ele>
        <time>2026-05-08T12:35:52.306Z</time>
      </trkpt>
      <trkpt lat="47.616644" lon="11.363768">
        <ele>1248.523175</ele>
        <time>2026-05-08T12:35:54.295Z</time>
      </trkpt>
      <trkpt lat="47.616709" lon="11.363607">
        <ele>1246.651843</ele>
        <time>2026-05-08T12:35:57.296Z</time>
      </trkpt>
      <trkpt lat="47.616790" lon="11.363507">
        <ele>1245.092997</ele>
        <time>2026-05-08T12:36:00.301Z</time>
      </trkpt>
      <trkpt lat="47.616860" lon="11.363390">
        <ele>1243.533081</ele>
        <time>2026-05-08T12:36:04.295Z</time>
      </trkpt>
      <trkpt lat="47.616823" lon="11.363219">
        <ele>1241.742266</ele>
        <time>2026-05-08T12:36:08.295Z</time>
      </trkpt>
      <trkpt lat="47.616748" lon="11.363128">
        <ele>1240.308996</ele>
        <time>2026-05-08T12:36:10.298Z</time>
      </trkpt>
      <trkpt lat="47.616659" lon="11.363043">
        <ele>1239.235112</ele>
        <time>2026-05-08T12:36:13.294Z</time>
      </trkpt>
      <trkpt lat="47.616551" lon="11.362969">
        <ele>1238.110849</ele>
        <time>2026-05-08T12:36:16.303Z</time>
      </trkpt>
      <trkpt lat="47.616447" lon="11.362955">
        <ele>1237.123958</ele>
        <time>2026-05-08T12:36:19.308Z</time>
      </trkpt>
      <trkpt lat="47.616358" lon="11.362975">
        <ele>1236.273267</ele>
        <time>2026-05-08T12:36:21.297Z</time>
      </trkpt>
      <trkpt lat="47.616261" lon="11.363014">
        <ele>1235.323496</ele>
        <time>2026-05-08T12:36:23.297Z</time>
      </trkpt>
      <trkpt lat="47.616185" lon="11.363092">
        <ele>1234.450125</ele>
        <time>2026-05-08T12:36:25.294Z</time>
      </trkpt>
      <trkpt lat="47.616099" lon="11.363134">
        <ele>1233.594473</ele>
        <time>2026-05-08T12:36:27.304Z</time>
      </trkpt>
      <trkpt lat="47.616012" lon="11.363241">
        <ele>1232.526462</ele>
        <time>2026-05-08T12:36:30.295Z</time>
      </trkpt>
      <trkpt lat="47.615914" lon="11.363347">
        <ele>1231.380270</ele>
        <time>2026-05-08T12:36:34.299Z</time>
      </trkpt>
      <trkpt lat="47.615860" lon="11.363455">
        <ele>1230.523645</ele>
        <time>2026-05-08T12:36:39.303Z</time>
      </trkpt>
      <trkpt lat="47.615816" lon="11.363586">
        <ele>1229.591243</ele>
        <time>2026-05-08T12:36:56.307Z</time>
      </trkpt>
      <trkpt lat="47.615746" lon="11.363724">
        <ele>1228.491009</ele>
        <time>2026-05-08T12:37:00.310Z</time>
      </trkpt>
      <trkpt lat="47.615673" lon="11.363847">
        <ele>1227.447005</ele>
        <time>2026-05-08T12:37:03.312Z</time>
      </trkpt>
      <trkpt lat="47.615610" lon="11.363975">
        <ele>1226.437344</ele>
        <time>2026-05-08T12:37:06.308Z</time>
      </trkpt>
      <trkpt lat="47.615536" lon="11.364097">
        <ele>1225.391813</ele>
        <time>2026-05-08T12:37:10.307Z</time>
      </trkpt>
      <trkpt lat="47.615478" lon="11.364246">
        <ele>1224.295699</ele>
        <time>2026-05-08T12:37:15.308Z</time>
      </trkpt>
      <trkpt lat="47.615449" lon="11.364415">
        <ele>1223.184730</ele>
        <time>2026-05-08T12:37:18.301Z</time>
      </trkpt>
      <trkpt lat="47.615425" lon="11.364574">
        <ele>1221.399594</ele>
        <time>2026-05-08T12:37:21.302Z</time>
      </trkpt>
      <trkpt lat="47.615377" lon="11.364714">
        <ele>1219.620646</ele>
        <time>2026-05-08T12:37:25.306Z</time>
      </trkpt>
      <trkpt lat="47.615347" lon="11.364853">
        <ele>1217.967608</ele>
        <time>2026-05-08T12:37:30.306Z</time>
      </trkpt>
      <trkpt lat="47.615324" lon="11.365007">
        <ele>1216.181106</ele>
        <time>2026-05-08T12:37:33.313Z</time>
      </trkpt>
      <trkpt lat="47.615274" lon="11.365145">
        <ele>1214.406656</ele>
        <time>2026-05-08T12:37:36.309Z</time>
      </trkpt>
      <trkpt lat="47.615213" lon="11.365304">
        <ele>1212.334595</ele>
        <time>2026-05-08T12:37:39.312Z</time>
      </trkpt>
      <trkpt lat="47.615182" lon="11.365450">
        <ele>1210.600904</ele>
        <time>2026-05-08T12:37:43.298Z</time>
      </trkpt>
      <trkpt lat="47.615172" lon="11.365589">
        <ele>1209.017642</ele>
        <time>2026-05-08T12:37:48.298Z</time>
      </trkpt>
      <trkpt lat="47.615124" lon="11.365708">
        <ele>1207.446983</ele>
        <time>2026-05-08T12:37:55.306Z</time>
      </trkpt>
      <trkpt lat="47.615061" lon="11.365826">
        <ele>1205.742111</ele>
        <time>2026-05-08T12:38:01.307Z</time>
      </trkpt>
      <trkpt lat="47.615015" lon="11.365709">
        <ele>1204.208045</ele>
        <time>2026-05-08T12:38:13.310Z</time>
      </trkpt>
      <trkpt lat="47.614996" lon="11.365564">
        <ele>1202.535024</ele>
        <time>2026-05-08T12:38:20.310Z</time>
      </trkpt>
      <trkpt lat="47.614979" lon="11.365421">
        <ele>1200.890400</ele>
        <time>2026-05-08T12:38:25.310Z</time>
      </trkpt>
      <trkpt lat="47.615001" lon="11.365281">
        <ele>1199.262234</ele>
        <time>2026-05-08T12:38:29.317Z</time>
      </trkpt>
      <trkpt lat="47.615044" lon="11.365136">
        <ele>1197.468063</ele>
        <time>2026-05-08T12:38:33.303Z</time>
      </trkpt>
      <trkpt lat="47.615090" lon="11.365014">
        <ele>1195.884822</ele>
        <time>2026-05-08T12:38:37.315Z</time>
      </trkpt>
      <trkpt lat="47.615097" lon="11.364877">
        <ele>1194.328700</ele>
        <time>2026-05-08T12:38:44.306Z</time>
      </trkpt>
      <trkpt lat="47.615086" lon="11.364728">
        <ele>1192.398410</ele>
        <time>2026-05-08T12:38:52.300Z</time>
      </trkpt>
      <trkpt lat="47.615077" lon="11.364589">
        <ele>1189.380668</ele>
        <time>2026-05-08T12:38:58.305Z</time>
      </trkpt>
      <trkpt lat="47.615045" lon="11.364441">
        <ele>1186.021757</ele>
        <time>2026-05-08T12:39:05.304Z</time>
      </trkpt>
      <trkpt lat="47.614944" lon="11.364452">
        <ele>1182.775130</ele>
        <time>2026-05-08T12:39:15.306Z</time>
      </trkpt>
      <trkpt lat="47.614895" lon="11.364566">
        <ele>1179.853280</ele>
        <time>2026-05-08T12:39:22.310Z</time>
      </trkpt>
      <trkpt lat="47.614822" lon="11.364659">
        <ele>1176.768435</ele>
        <time>2026-05-08T12:39:28.311Z</time>
      </trkpt>
      <trkpt lat="47.614755" lon="11.364749">
        <ele>1173.870752</ele>
        <time>2026-05-08T12:39:32.309Z</time>
      </trkpt>
      <trkpt lat="47.614689" lon="11.364864">
        <ele>1170.606789</ele>
        <time>2026-05-08T12:39:37.311Z</time>
      </trkpt>
      <trkpt lat="47.614616" lon="11.364976">
        <ele>1167.239977</ele>
        <time>2026-05-08T12:39:43.310Z</time>
      </trkpt>
      <trkpt lat="47.614553" lon="11.365077">
        <ele>1164.266189</ele>
        <time>2026-05-08T12:39:49.311Z</time>
      </trkpt>
      <trkpt lat="47.614559" lon="11.364918">
        <ele>1160.824639</ele>
        <time>2026-05-08T12:39:58.307Z</time>
      </trkpt>
      <trkpt lat="47.614520" lon="11.364779">
        <ele>1157.570886</ele>
        <time>2026-05-08T12:40:03.308Z</time>
      </trkpt>
      <trkpt lat="47.614515" lon="11.364627">
        <ele>1154.282083</ele>
        <time>2026-05-08T12:40:09.311Z</time>
      </trkpt>
      <trkpt lat="47.614528" lon="11.364481">
        <ele>1151.099451</ele>
        <time>2026-05-08T12:40:18.305Z</time>
      </trkpt>
      <trkpt lat="47.614483" lon="11.364333">
        <ele>1147.590707</ele>
        <time>2026-05-08T12:40:23.310Z</time>
      </trkpt>
      <trkpt lat="47.614487" lon="11.364187">
        <ele>1144.432873</ele>
        <time>2026-05-08T12:40:29.305Z</time>
      </trkpt>
      <trkpt lat="47.614464" lon="11.364054">
        <ele>1141.465519</ele>
        <time>2026-05-08T12:40:36.302Z</time>
      </trkpt>
      <trkpt lat="47.614439" lon="11.363871">
        <ele>1137.430281</ele>
        <time>2026-05-08T12:41:20.313Z</time>
      </trkpt>
      <trkpt lat="47.614387" lon="11.363762">
        <ele>1134.685372</ele>
        <time>2026-05-08T12:41:27.305Z</time>
      </trkpt>
      <trkpt lat="47.614336" lon="11.363628">
        <ele>1132.048072</ele>
        <time>2026-05-08T12:41:33.307Z</time>
      </trkpt>
      <trkpt lat="47.614283" lon="11.363510">
        <ele>1129.617950</ele>
        <time>2026-05-08T12:41:46.310Z</time>
      </trkpt>
      <trkpt lat="47.614273" lon="11.363364">
        <ele>1127.102845</ele>
        <time>2026-05-08T12:42:02.308Z</time>
      </trkpt>
      <trkpt lat="47.614234" lon="11.363241">
        <ele>1124.773266</ele>
        <time>2026-05-08T12:42:15.306Z</time>
      </trkpt>
      <trkpt lat="47.614256" lon="11.363111">
        <ele>1122.476125</ele>
        <time>2026-05-08T12:42:32.305Z</time>
      </trkpt>
      <trkpt lat="47.614229" lon="11.362883">
        <ele>1118.508708</ele>
        <time>2026-05-08T12:43:09.310Z</time>
      </trkpt>
      <trkpt lat="47.614295" lon="11.362757">
        <ele>1115.773973</ele>
        <time>2026-05-08T12:43:16.305Z</time>
      </trkpt>
      <trkpt lat="47.614299" lon="11.362595">
        <ele>1112.995673</ele>
        <time>2026-05-08T12:43:22.306Z</time>
      </trkpt>
      <trkpt lat="47.614316" lon="11.362463">
        <ele>1110.692476</ele>
        <time>2026-05-08T12:43:26.313Z</time>
      </trkpt>
      <trkpt lat="47.614331" lon="11.362313">
        <ele>1108.093570</ele>
        <time>2026-05-08T12:43:32.305Z</time>
      </trkpt>
      <trkpt lat="47.614314" lon="11.362151">
        <ele>1105.283696</ele>
        <time>2026-05-08T12:43:36.307Z</time>
      </trkpt>
      <trkpt lat="47.614300" lon="11.362012">
        <ele>1102.875001</ele>
        <time>2026-05-08T12:43:39.309Z</time>
      </trkpt>
      <trkpt lat="47.614294" lon="11.361875">
        <ele>1100.522076</ele>
        <time>2026-05-08T12:43:42.306Z</time>
      </trkpt>
      <trkpt lat="47.614296" lon="11.361710">
        <ele>1097.693766</ele>
        <time>2026-05-08T12:43:46.310Z</time>
      </trkpt>
      <trkpt lat="47.614298" lon="11.361542">
        <ele>1094.814048</ele>
        <time>2026-05-08T12:43:51.305Z</time>
      </trkpt>
      <trkpt lat="47.614304" lon="11.361405">
        <ele>1092.461124</ele>
        <time>2026-05-08T12:43:55.306Z</time>
      </trkpt>
      <trkpt lat="47.614310" lon="11.361269">
        <ele>1090.125302</ele>
        <time>2026-05-08T12:43:59.311Z</time>
      </trkpt>
      <trkpt lat="47.614322" lon="11.361102">
        <ele>1088.262205</ele>
        <time>2026-05-08T12:44:04.307Z</time>
      </trkpt>
      <trkpt lat="47.614352" lon="11.360961">
        <ele>1086.871380</ele>
        <time>2026-05-08T12:44:09.307Z</time>
      </trkpt>
      <trkpt lat="47.614398" lon="11.360829">
        <ele>1085.473610</ele>
        <time>2026-05-08T12:44:14.311Z</time>
      </trkpt>
      <trkpt lat="47.614432" lon="11.360692">
        <ele>1084.100350</ele>
        <time>2026-05-08T12:44:18.311Z</time>
      </trkpt>
      <trkpt lat="47.614478" lon="11.360555">
        <ele>1082.660640</ele>
        <time>2026-05-08T12:44:22.304Z</time>
      </trkpt>
      <trkpt lat="47.614450" lon="11.360424">
        <ele>1081.367920</ele>
        <time>2026-05-08T12:44:30.296Z</time>
      </trkpt>
      <trkpt lat="47.614354" lon="11.360450">
        <ele>1080.006198</ele>
        <time>2026-05-08T12:44:34.307Z</time>
      </trkpt>
      <trkpt lat="47.614271" lon="11.360525">
        <ele>1078.650063</ele>
        <time>2026-05-08T12:44:39.303Z</time>
      </trkpt>
      <trkpt lat="47.614179" lon="11.360573">
        <ele>1077.289211</ele>
        <time>2026-05-08T12:44:44.313Z</time>
      </trkpt>
      <trkpt lat="47.614098" lon="11.360633">
        <ele>1076.025860</ele>
        <time>2026-05-08T12:44:49.301Z</time>
      </trkpt>
      <trkpt lat="47.613997" lon="11.360687">
        <ele>1074.527766</ele>
        <time>2026-05-08T12:44:54.311Z</time>
      </trkpt>
      <trkpt lat="47.613909" lon="11.360758">
        <ele>1073.129942</ele>
        <time>2026-05-08T12:44:58.313Z</time>
      </trkpt>
      <trkpt lat="47.613839" lon="11.360856">
        <ele>1071.786845</ele>
        <time>2026-05-08T12:45:03.305Z</time>
      </trkpt>
      <trkpt lat="47.613774" lon="11.360965">
        <ele>1070.417917</ele>
        <time>2026-05-08T12:45:08.309Z</time>
      </trkpt>
      <trkpt lat="47.613726" lon="11.361098">
        <ele>1068.998814</ele>
        <time>2026-05-08T12:45:12.312Z</time>
      </trkpt>
      <trkpt lat="47.613714" lon="11.361240">
        <ele>1067.652606</ele>
        <time>2026-05-08T12:45:15.300Z</time>
      </trkpt>
      <trkpt lat="47.613677" lon="11.361419">
        <ele>1065.891427</ele>
        <time>2026-05-08T12:45:18.306Z</time>
      </trkpt>
      <trkpt lat="47.613614" lon="11.361526">
        <ele>1064.555052</ele>
        <time>2026-05-08T12:45:21.304Z</time>
      </trkpt>
      <trkpt lat="47.613554" lon="11.361649">
        <ele>1063.223722</ele>
        <time>2026-05-08T12:45:25.311Z</time>
      </trkpt>
      <trkpt lat="47.613516" lon="11.361794">
        <ele>1061.871694</ele>
        <time>2026-05-08T12:45:29.311Z</time>
      </trkpt>
      <trkpt lat="47.613467" lon="11.361936">
        <ele>1060.485329</ele>
        <time>2026-05-08T12:45:33.298Z</time>
      </trkpt>
      <trkpt lat="47.613389" lon="11.362079">
        <ele>1058.886691</ele>
        <time>2026-05-08T12:45:37.298Z</time>
      </trkpt>
      <trkpt lat="47.613333" lon="11.362230">
        <ele>1057.388913</ele>
        <time>2026-05-08T12:45:40.309Z</time>
      </trkpt>
      <trkpt lat="47.613269" lon="11.362376">
        <ele>1055.875396</ele>
        <time>2026-05-08T12:45:44.294Z</time>
      </trkpt>
      <trkpt lat="47.613223" lon="11.362530">
        <ele>1054.411520</ele>
        <time>2026-05-08T12:45:48.306Z</time>
      </trkpt>
      <trkpt lat="47.613190" lon="11.362686">
        <ele>1052.990577</ele>
        <time>2026-05-08T12:45:51.307Z</time>
      </trkpt>
      <trkpt lat="47.613175" lon="11.362830">
        <ele>1051.724252</ele>
        <time>2026-05-08T12:45:54.307Z</time>
      </trkpt>
      <trkpt lat="47.613168" lon="11.362990">
        <ele>1050.330801</ele>
        <time>2026-05-08T12:46:08.306Z</time>
      </trkpt>
      <trkpt lat="47.613145" lon="11.363145">
        <ele>1048.951482</ele>
        <time>2026-05-08T12:46:13.307Z</time>
      </trkpt>
      <trkpt lat="47.613128" lon="11.363278">
        <ele>1047.775013</ele>
        <time>2026-05-08T12:46:17.305Z</time>
      </trkpt>
      <trkpt lat="47.613100" lon="11.363438">
        <ele>1046.338397</ele>
        <time>2026-05-08T12:46:22.307Z</time>
      </trkpt>
      <trkpt lat="47.613077" lon="11.363596">
        <ele>1044.933602</ele>
        <time>2026-05-08T12:46:26.308Z</time>
      </trkpt>
      <trkpt lat="47.613058" lon="11.363746">
        <ele>1043.607169</ele>
        <time>2026-05-08T12:46:29.312Z</time>
      </trkpt>
      <trkpt lat="47.613031" lon="11.363915">
        <ele>1042.097741</ele>
        <time>2026-05-08T12:46:32.306Z</time>
      </trkpt>
      <trkpt lat="47.613024" lon="11.364056">
        <ele>1040.718084</ele>
        <time>2026-05-08T12:46:35.305Z</time>
      </trkpt>
      <trkpt lat="47.612980" lon="11.364230">
        <ele>1038.391041</ele>
        <time>2026-05-08T12:46:38.308Z</time>
      </trkpt>
      <trkpt lat="47.612944" lon="11.364378">
        <ele>1036.420858</ele>
        <time>2026-05-08T12:46:41.313Z</time>
      </trkpt>
      <trkpt lat="47.612906" lon="11.364535">
        <ele>1034.332056</ele>
        <time>2026-05-08T12:46:45.309Z</time>
      </trkpt>
      <trkpt lat="47.612905" lon="11.364699">
        <ele>1032.278386</ele>
        <time>2026-05-08T12:46:49.309Z</time>
      </trkpt>
      <trkpt lat="47.612902" lon="11.364846">
        <ele>1030.436828</ele>
        <time>2026-05-08T12:46:53.305Z</time>
      </trkpt>
      <trkpt lat="47.612891" lon="11.364999">
        <ele>1028.510118</ele>
        <time>2026-05-08T12:46:56.311Z</time>
      </trkpt>
      <trkpt lat="47.612865" lon="11.365176">
        <ele>1026.241741</ele>
        <time>2026-05-08T12:46:59.313Z</time>
      </trkpt>
      <trkpt lat="47.612825" lon="11.365334">
        <ele>1024.128373</ele>
        <time>2026-05-08T12:47:02.311Z</time>
      </trkpt>
      <trkpt lat="47.612820" lon="11.365497">
        <ele>1022.085194</ele>
        <time>2026-05-08T12:47:06.312Z</time>
      </trkpt>
      <trkpt lat="47.612809" lon="11.365637">
        <ele>1020.320263</ele>
        <time>2026-05-08T12:47:09.309Z</time>
      </trkpt>
      <trkpt lat="47.612809" lon="11.365786">
        <ele>1018.454502</ele>
        <time>2026-05-08T12:47:12.310Z</time>
      </trkpt>
      <trkpt lat="47.612786" lon="11.365929">
        <ele>1016.613613</ele>
        <time>2026-05-08T12:47:15.311Z</time>
      </trkpt>
      <trkpt lat="47.612731" lon="11.366079">
        <ele>1014.475474</ele>
        <time>2026-05-08T12:47:18.303Z</time>
      </trkpt>
      <trkpt lat="47.612680" lon="11.366197">
        <ele>1012.720295</ele>
        <time>2026-05-08T12:47:21.307Z</time>
      </trkpt>
      <trkpt lat="47.612666" lon="11.366358">
        <ele>1010.687564</ele>
        <time>2026-05-08T12:47:33.309Z</time>
      </trkpt>
      <trkpt lat="47.612647" lon="11.366490">
        <ele>1008.997413</ele>
        <time>2026-05-08T12:47:37.307Z</time>
      </trkpt>
      <trkpt lat="47.612616" lon="11.366638">
        <ele>1006.841122</ele>
        <time>2026-05-08T12:47:41.295Z</time>
      </trkpt>
      <trkpt lat="47.612542" lon="11.366761">
        <ele>1004.179552</ele>
        <time>2026-05-08T12:47:47.294Z</time>
      </trkpt>
      <trkpt lat="47.612518" lon="11.366629">
        <ele>1001.972319</ele>
        <time>2026-05-08T12:47:56.299Z</time>
      </trkpt>
      <trkpt lat="47.612486" lon="11.366463">
        <ele>999.184899</ele>
        <time>2026-05-08T12:48:00.301Z</time>
      </trkpt>
      <trkpt lat="47.612450" lon="11.366310">
        <ele>996.568641</ele>
        <time>2026-05-08T12:48:04.300Z</time>
      </trkpt>
      <trkpt lat="47.612413" lon="11.366147">
        <ele>993.791892</ele>
        <time>2026-05-08T12:48:07.301Z</time>
      </trkpt>
      <trkpt lat="47.612401" lon="11.366010">
        <ele>991.561486</ele>
        <time>2026-05-08T12:48:10.301Z</time>
      </trkpt>
      <trkpt lat="47.612378" lon="11.365868">
        <ele>989.203706</ele>
        <time>2026-05-08T12:48:13.304Z</time>
      </trkpt>
      <trkpt lat="47.612354" lon="11.365718">
        <ele>986.714738</ele>
        <time>2026-05-08T12:48:16.301Z</time>
      </trkpt>
      <trkpt lat="47.612354" lon="11.365557">
        <ele>984.115450</ele>
        <time>2026-05-08T12:48:21.305Z</time>
      </trkpt>
      <trkpt lat="47.612300" lon="11.365372">
        <ele>980.860740</ele>
        <time>2026-05-08T12:48:24.294Z</time>
      </trkpt>
      <trkpt lat="47.612268" lon="11.365185">
        <ele>977.745941</ele>
        <time>2026-05-08T12:48:27.296Z</time>
      </trkpt>
      <trkpt lat="47.612239" lon="11.365018">
        <ele>974.961768</ele>
        <time>2026-05-08T12:48:31.306Z</time>
      </trkpt>
      <trkpt lat="47.612181" lon="11.364863">
        <ele>972.099692</ele>
        <time>2026-05-08T12:48:34.294Z</time>
      </trkpt>
      <trkpt lat="47.612128" lon="11.364736">
        <ele>969.688244</ele>
        <time>2026-05-08T12:48:37.306Z</time>
      </trkpt>
      <trkpt lat="47.612091" lon="11.364586">
        <ele>967.109519</ele>
        <time>2026-05-08T12:48:42.294Z</time>
      </trkpt>
      <trkpt lat="47.612039" lon="11.364440">
        <ele>964.502989</ele>
        <time>2026-05-08T12:48:46.308Z</time>
      </trkpt>
      <trkpt lat="47.612000" lon="11.364313">
        <ele>962.720817</ele>
        <time>2026-05-08T12:48:51.299Z</time>
      </trkpt>
      <trkpt lat="47.611931" lon="11.364227">
        <ele>961.013604</ele>
        <time>2026-05-08T12:48:57.295Z</time>
      </trkpt>
      <trkpt lat="47.611820" lon="11.363995">
        <ele>957.380563</ele>
        <time>2026-05-08T12:49:37.311Z</time>
      </trkpt>
      <trkpt lat="47.611788" lon="11.363832">
        <ele>955.212521</ele>
        <time>2026-05-08T12:49:42.309Z</time>
      </trkpt>
      <trkpt lat="47.611786" lon="11.363675">
        <ele>953.207209</ele>
        <time>2026-05-08T12:49:45.311Z</time>
      </trkpt>
      <trkpt lat="47.611791" lon="11.363539">
        <ele>951.467853</ele>
        <time>2026-05-08T12:49:48.306Z</time>
      </trkpt>
      <trkpt lat="47.611776" lon="11.363365">
        <ele>949.227708</ele>
        <time>2026-05-08T12:49:52.310Z</time>
      </trkpt>
      <trkpt lat="47.611726" lon="11.363238">
        <ele>947.349553</ele>
        <time>2026-05-08T12:49:56.306Z</time>
      </trkpt>
      <trkpt lat="47.611684" lon="11.363102">
        <ele>945.439217</ele>
        <time>2026-05-08T12:50:00.313Z</time>
      </trkpt>
      <trkpt lat="47.611652" lon="11.362967">
        <ele>943.611745</ele>
        <time>2026-05-08T12:50:03.310Z</time>
      </trkpt>
      <trkpt lat="47.611624" lon="11.362814">
        <ele>941.587154</ele>
        <time>2026-05-08T12:50:06.303Z</time>
      </trkpt>
      <trkpt lat="47.611604" lon="11.362675">
        <ele>939.772081</ele>
        <time>2026-05-08T12:50:09.310Z</time>
      </trkpt>
      <trkpt lat="47.611627" lon="11.362496">
        <ele>937.445021</ele>
        <time>2026-05-08T12:50:12.309Z</time>
      </trkpt>
      <trkpt lat="47.611644" lon="11.362325">
        <ele>935.237658</ele>
        <time>2026-05-08T12:50:15.306Z</time>
      </trkpt>
      <trkpt lat="47.611660" lon="11.362157">
        <ele>933.070921</ele>
        <time>2026-05-08T12:50:19.307Z</time>
      </trkpt>
      <trkpt lat="47.611645" lon="11.362004">
        <ele>931.096490</ele>
        <time>2026-05-08T12:50:21.306Z</time>
      </trkpt>
      <trkpt lat="47.611677" lon="11.361857">
        <ele>929.750100</ele>
        <time>2026-05-08T12:50:25.306Z</time>
      </trkpt>
      <trkpt lat="47.611697" lon="11.361711">
        <ele>928.625250</ele>
        <time>2026-05-08T12:50:33.306Z</time>
      </trkpt>
      <trkpt lat="47.611723" lon="11.361565">
        <ele>927.485116</ele>
        <time>2026-05-08T12:50:37.309Z</time>
      </trkpt>
      <trkpt lat="47.611706" lon="11.361420">
        <ele>926.373911</ele>
        <time>2026-05-08T12:50:41.309Z</time>
      </trkpt>
      <trkpt lat="47.611663" lon="11.361253">
        <ele>925.024197</ele>
        <time>2026-05-08T12:50:45.307Z</time>
      </trkpt>
      <trkpt lat="47.611633" lon="11.361125">
        <ele>924.001037</ele>
        <time>2026-05-08T12:50:48.307Z</time>
      </trkpt>
      <trkpt lat="47.611593" lon="11.360993">
        <ele>922.908360</ele>
        <time>2026-05-08T12:50:51.307Z</time>
      </trkpt>
      <trkpt lat="47.611520" lon="11.360874">
        <ele>921.693593</ele>
        <time>2026-05-08T12:50:55.313Z</time>
      </trkpt>
      <trkpt lat="47.611449" lon="11.360752">
        <ele>920.476730</ele>
        <time>2026-05-08T12:50:58.310Z</time>
      </trkpt>
      <trkpt lat="47.611357" lon="11.360640">
        <ele>919.143799</ele>
        <time>2026-05-08T12:51:01.309Z</time>
      </trkpt>
      <trkpt lat="47.611258" lon="11.360614">
        <ele>918.017805</ele>
        <time>2026-05-08T12:51:05.311Z</time>
      </trkpt>
      <trkpt lat="47.611173" lon="11.360660">
        <ele>917.004470</ele>
        <time>2026-05-08T12:51:08.298Z</time>
      </trkpt>
      <trkpt lat="47.611077" lon="11.360712">
        <ele>915.859876</ele>
        <time>2026-05-08T12:51:11.307Z</time>
      </trkpt>
      <trkpt lat="47.610962" lon="11.360689">
        <ele>914.560279</ele>
        <time>2026-05-08T12:51:14.307Z</time>
      </trkpt>
      <trkpt lat="47.610852" lon="11.360707">
        <ele>913.320861</ele>
        <time>2026-05-08T12:51:17.305Z</time>
      </trkpt>
      <trkpt lat="47.610798" lon="11.360840">
        <ele>912.148622</ele>
        <time>2026-05-08T12:51:20.309Z</time>
      </trkpt>
      <trkpt lat="47.610773" lon="11.361016">
        <ele>910.790595</ele>
        <time>2026-05-08T12:51:22.310Z</time>
      </trkpt>
      <trkpt lat="47.610746" lon="11.361182">
        <ele>908.345028</ele>
        <time>2026-05-08T12:51:25.310Z</time>
      </trkpt>
      <trkpt lat="47.610731" lon="11.361321">
        <ele>906.066321</ele>
        <time>2026-05-08T12:51:28.308Z</time>
      </trkpt>
      <trkpt lat="47.610679" lon="11.361450">
        <ele>903.633320</ele>
        <time>2026-05-08T12:51:32.307Z</time>
      </trkpt>
      <trkpt lat="47.610641" lon="11.361591">
        <ele>901.175260</ele>
        <time>2026-05-08T12:51:37.297Z</time>
      </trkpt>
      <trkpt lat="47.610575" lon="11.361705">
        <ele>898.742807</ele>
        <time>2026-05-08T12:51:43.309Z</time>
      </trkpt>
      <trkpt lat="47.610542" lon="11.361839">
        <ele>896.433481</ele>
        <time>2026-05-08T12:51:48.309Z</time>
      </trkpt>
      <trkpt lat="47.610496" lon="11.361977">
        <ele>893.941454</ele>
        <time>2026-05-08T12:51:53.307Z</time>
      </trkpt>
      <trkpt lat="47.610458" lon="11.362124">
        <ele>891.392946</ele>
        <time>2026-05-08T12:51:59.304Z</time>
      </trkpt>
      <trkpt lat="47.610394" lon="11.362223">
        <ele>889.172644</ele>
        <time>2026-05-08T12:52:02.306Z</time>
      </trkpt>
      <trkpt lat="47.610330" lon="11.362326">
        <ele>886.905162</ele>
        <time>2026-05-08T12:52:05.313Z</time>
      </trkpt>
      <trkpt lat="47.610305" lon="11.362468">
        <ele>884.529431</ele>
        <time>2026-05-08T12:52:09.309Z</time>
      </trkpt>
      <trkpt lat="47.610269" lon="11.362599">
        <ele>882.239440</ele>
        <time>2026-05-08T12:52:12.313Z</time>
      </trkpt>
      <trkpt lat="47.610189" lon="11.362677">
        <ele>879.940722</ele>
        <time>2026-05-08T12:52:15.310Z</time>
      </trkpt>
      <trkpt lat="47.610092" lon="11.362749">
        <ele>877.336289</ele>
        <time>2026-05-08T12:52:19.307Z</time>
      </trkpt>
      <trkpt lat="47.610010" lon="11.362854">
        <ele>874.735200</ele>
        <time>2026-05-08T12:52:24.309Z</time>
      </trkpt>
      <trkpt lat="47.609931" lon="11.362959">
        <ele>872.188202</ele>
        <time>2026-05-08T12:52:28.311Z</time>
      </trkpt>
      <trkpt lat="47.609865" lon="11.363090">
        <ele>869.540876</ele>
        <time>2026-05-08T12:52:32.310Z</time>
      </trkpt>
      <trkpt lat="47.609803" lon="11.363208">
        <ele>867.230691</ele>
        <time>2026-05-08T12:52:36.307Z</time>
      </trkpt>
      <trkpt lat="47.609741" lon="11.363319">
        <ele>866.165421</ele>
        <time>2026-05-08T12:52:41.305Z</time>
      </trkpt>
      <trkpt lat="47.609639" lon="11.363397">
        <ele>864.907478</ele>
        <time>2026-05-08T12:52:47.312Z</time>
      </trkpt>
      <trkpt lat="47.609541" lon="11.363430">
        <ele>863.805890</ele>
        <time>2026-05-08T12:52:52.306Z</time>
      </trkpt>
      <trkpt lat="47.609433" lon="11.363443">
        <ele>862.618129</ele>
        <time>2026-05-08T12:52:57.305Z</time>
      </trkpt>
      <trkpt lat="47.609342" lon="11.363520">
        <ele>861.469712</ele>
        <time>2026-05-08T12:53:02.306Z</time>
      </trkpt>
      <trkpt lat="47.609276" lon="11.363610">
        <ele>860.486959</ele>
        <time>2026-05-08T12:53:05.301Z</time>
      </trkpt>
      <trkpt lat="47.609210" lon="11.363723">
        <ele>859.382059</ele>
        <time>2026-05-08T12:53:08.306Z</time>
      </trkpt>
      <trkpt lat="47.609135" lon="11.363809">
        <ele>858.342906</ele>
        <time>2026-05-08T12:53:11.304Z</time>
      </trkpt>
      <trkpt lat="47.609034" lon="11.363898">
        <ele>857.055130</ele>
        <time>2026-05-08T12:53:14.312Z</time>
      </trkpt>
      <trkpt lat="47.608907" lon="11.363999">
        <ele>855.475509</ele>
        <time>2026-05-08T12:53:17.305Z</time>
      </trkpt>
      <trkpt lat="47.608812" lon="11.364048">
        <ele>854.372976</ele>
        <time>2026-05-08T12:53:20.307Z</time>
      </trkpt>
      <trkpt lat="47.608712" lon="11.364106">
        <ele>853.195975</ele>
        <time>2026-05-08T12:53:23.314Z</time>
      </trkpt>
      <trkpt lat="47.608626" lon="11.364206">
        <ele>851.998113</ele>
        <time>2026-05-08T12:53:27.312Z</time>
      </trkpt>
      <trkpt lat="47.608577" lon="11.364351">
        <ele>850.799436</ele>
        <time>2026-05-08T12:53:31.307Z</time>
      </trkpt>
      <trkpt lat="47.608539" lon="11.364492">
        <ele>849.677228</ele>
        <time>2026-05-08T12:53:36.305Z</time>
      </trkpt>
      <trkpt lat="47.608552" lon="11.364754">
        <ele>847.735724</ele>
        <time>2026-05-08T12:56:45.308Z</time>
      </trkpt>
      <trkpt lat="47.608555" lon="11.364891">
        <ele>847.313473</ele>
        <time>2026-05-08T12:56:48.301Z</time>
      </trkpt>
      <trkpt lat="47.608581" lon="11.365052">
        <ele>846.906314</ele>
        <time>2026-05-08T12:56:51.299Z</time>
      </trkpt>
      <trkpt lat="47.608603" lon="11.365183">
        <ele>846.574293</ele>
        <time>2026-05-08T12:56:53.303Z</time>
      </trkpt>
      <trkpt lat="47.608609" lon="11.365346">
        <ele>846.172819</ele>
        <time>2026-05-08T12:56:55.313Z</time>
      </trkpt>
      <trkpt lat="47.608640" lon="11.365481">
        <ele>845.822075</ele>
        <time>2026-05-08T12:56:57.301Z</time>
      </trkpt>
      <trkpt lat="47.608655" lon="11.365637">
        <ele>845.434532</ele>
        <time>2026-05-08T12:56:59.295Z</time>
      </trkpt>
      <trkpt lat="47.608673" lon="11.365768">
        <ele>845.105732</ele>
        <time>2026-05-08T12:57:01.300Z</time>
      </trkpt>
      <trkpt lat="47.608626" lon="11.365931">
        <ele>844.669731</ele>
        <time>2026-05-08T12:57:04.307Z</time>
      </trkpt>
      <trkpt lat="47.608594" lon="11.366087">
        <ele>844.268705</ele>
        <time>2026-05-08T12:57:07.299Z</time>
      </trkpt>
      <trkpt lat="47.608537" lon="11.366269">
        <ele>843.775162</ele>
        <time>2026-05-08T12:57:10.303Z</time>
      </trkpt>
      <trkpt lat="47.608512" lon="11.366446">
        <ele>843.330404</ele>
        <time>2026-05-08T12:57:13.300Z</time>
      </trkpt>
      <trkpt lat="47.608492" lon="11.366591">
        <ele>842.966409</ele>
        <time>2026-05-08T12:57:15.302Z</time>
      </trkpt>
      <trkpt lat="47.608486" lon="11.366726">
        <ele>842.633673</ele>
        <time>2026-05-08T12:57:17.304Z</time>
      </trkpt>
      <trkpt lat="47.608502" lon="11.366864">
        <ele>842.289298</ele>
        <time>2026-05-08T12:57:19.301Z</time>
      </trkpt>
      <trkpt lat="47.608498" lon="11.367016">
        <ele>841.915189</ele>
        <time>2026-05-08T12:57:21.292Z</time>
      </trkpt>
      <trkpt lat="47.608476" lon="11.367212">
        <ele>841.426517</ele>
        <time>2026-05-08T12:57:24.296Z</time>
      </trkpt>
      <trkpt lat="47.608432" lon="11.367390">
        <ele>841.751183</ele>
        <time>2026-05-08T12:57:27.291Z</time>
      </trkpt>
      <trkpt lat="47.608405" lon="11.367580">
        <ele>845.632864</ele>
        <time>2026-05-08T12:57:30.301Z</time>
      </trkpt>
      <trkpt lat="47.608384" lon="11.367760">
        <ele>849.284663</ele>
        <time>2026-05-08T12:57:33.301Z</time>
      </trkpt>
      <trkpt lat="47.608377" lon="11.367918">
        <ele>852.450002</ele>
        <time>2026-05-08T12:57:36.304Z</time>
      </trkpt>
      <trkpt lat="47.608391" lon="11.368145">
        <ele>857.006832</ele>
        <time>2026-05-08T12:57:39.307Z</time>
      </trkpt>
      <trkpt lat="47.608351" lon="11.368333">
        <ele>860.947788</ele>
        <time>2026-05-08T12:57:42.306Z</time>
      </trkpt>
      <trkpt lat="47.608311" lon="11.368507">
        <ele>864.622818</ele>
        <time>2026-05-08T12:57:44.305Z</time>
      </trkpt>
      <trkpt lat="47.608276" lon="11.368639">
        <ele>867.458331</ele>
        <time>2026-05-08T12:57:46.305Z</time>
      </trkpt>
      <trkpt lat="47.608238" lon="11.368779">
        <ele>870.475330</ele>
        <time>2026-05-08T12:57:48.309Z</time>
      </trkpt>
      <trkpt lat="47.608206" lon="11.368927">
        <ele>873.582383</ele>
        <time>2026-05-08T12:57:50.306Z</time>
      </trkpt>
      <trkpt lat="47.608173" lon="11.369071">
        <ele>876.622806</ele>
        <time>2026-05-08T12:57:52.304Z</time>
      </trkpt>
      <trkpt lat="47.608132" lon="11.369216">
        <ele>879.766078</ele>
        <time>2026-05-08T12:57:54.310Z</time>
      </trkpt>
      <trkpt lat="47.608078" lon="11.369331">
        <ele>882.567658</ele>
        <time>2026-05-08T12:57:56.299Z</time>
      </trkpt>
      <trkpt lat="47.608016" lon="11.369442">
        <ele>885.449236</ele>
        <time>2026-05-08T12:57:58.299Z</time>
      </trkpt>
      <trkpt lat="47.607932" lon="11.369588">
        <ele>889.286184</ele>
        <time>2026-05-08T12:58:01.303Z</time>
      </trkpt>
      <trkpt lat="47.607844" lon="11.369696">
        <ele>892.672896</ele>
        <time>2026-05-08T12:58:04.301Z</time>
      </trkpt>
      <trkpt lat="47.607758" lon="11.369836">
        <ele>895.019958</ele>
        <time>2026-05-08T12:58:07.307Z</time>
      </trkpt>
      <trkpt lat="47.607684" lon="11.369928">
        <ele>895.902326</ele>
        <time>2026-05-08T12:58:10.306Z</time>
      </trkpt>
      <trkpt lat="47.607597" lon="11.370057">
        <ele>897.026490</ele>
        <time>2026-05-08T12:58:13.305Z</time>
      </trkpt>
      <trkpt lat="47.607507" lon="11.370168">
        <ele>898.096120</ele>
        <time>2026-05-08T12:58:16.304Z</time>
      </trkpt>
      <trkpt lat="47.607427" lon="11.370285">
        <ele>899.122801</ele>
        <time>2026-05-08T12:58:19.301Z</time>
      </trkpt>
      <trkpt lat="47.607350" lon="11.370413">
        <ele>900.179703</ele>
        <time>2026-05-08T12:58:22.308Z</time>
      </trkpt>
      <trkpt lat="47.607263" lon="11.370528">
        <ele>901.244637</ele>
        <time>2026-05-08T12:58:25.313Z</time>
      </trkpt>
      <trkpt lat="47.607204" lon="11.370669">
        <ele>902.267066</ele>
        <time>2026-05-08T12:58:28.307Z</time>
      </trkpt>
      <trkpt lat="47.607194" lon="11.370847">
        <ele>903.367546</ele>
        <time>2026-05-08T12:58:31.315Z</time>
      </trkpt>
      <trkpt lat="47.607221" lon="11.371039">
        <ele>904.575939</ele>
        <time>2026-05-08T12:58:34.302Z</time>
      </trkpt>
      <trkpt lat="47.607251" lon="11.371222">
        <ele>905.736274</ele>
        <time>2026-05-08T12:58:37.293Z</time>
      </trkpt>
      <trkpt lat="47.607265" lon="11.371387">
        <ele>906.760876</ele>
        <time>2026-05-08T12:58:40.294Z</time>
      </trkpt>
      <trkpt lat="47.607267" lon="11.371543">
        <ele>907.722183</ele>
        <time>2026-05-08T12:58:43.301Z</time>
      </trkpt>
      <trkpt lat="47.607262" lon="11.371705">
        <ele>908.721328</ele>
        <time>2026-05-08T12:58:46.304Z</time>
      </trkpt>
      <trkpt lat="47.607282" lon="11.371861">
        <ele>909.699684</ele>
        <time>2026-05-08T12:58:49.303Z</time>
      </trkpt>
      <trkpt lat="47.607299" lon="11.372008">
        <ele>910.618594</ele>
        <time>2026-05-08T12:58:52.297Z</time>
      </trkpt>
      <trkpt lat="47.607323" lon="11.372159">
        <ele>908.768680</ele>
        <time>2026-05-08T12:58:55.308Z</time>
      </trkpt>
      <trkpt lat="47.607337" lon="11.372307">
        <ele>906.286035</ele>
        <time>2026-05-08T12:58:58.314Z</time>
      </trkpt>
      <trkpt lat="47.607354" lon="11.372457">
        <ele>903.759287</ele>
        <time>2026-05-08T12:59:01.302Z</time>
      </trkpt>
      <trkpt lat="47.607383" lon="11.372606">
        <ele>901.183040</ele>
        <time>2026-05-08T12:59:04.306Z</time>
      </trkpt>
      <trkpt lat="47.607407" lon="11.372746">
        <ele>898.783373</ele>
        <time>2026-05-08T12:59:07.304Z</time>
      </trkpt>
      <trkpt lat="47.607425" lon="11.372881">
        <ele>896.497334</ele>
        <time>2026-05-08T12:59:10.305Z</time>
      </trkpt>
      <trkpt lat="47.607464" lon="11.373022">
        <ele>893.965608</ele>
        <time>2026-05-08T12:59:13.299Z</time>
      </trkpt>
      <trkpt lat="47.607510" lon="11.373158">
        <ele>891.438030</ele>
        <time>2026-05-08T12:59:16.302Z</time>
      </trkpt>
      <trkpt lat="47.607564" lon="11.373289">
        <ele>888.887361</ele>
        <time>2026-05-08T12:59:19.303Z</time>
      </trkpt>
      <trkpt lat="47.607621" lon="11.373413">
        <ele>886.394274</ele>
        <time>2026-05-08T12:59:22.302Z</time>
      </trkpt>
      <trkpt lat="47.607671" lon="11.373536">
        <ele>884.008355</ele>
        <time>2026-05-08T12:59:25.303Z</time>
      </trkpt>
      <trkpt lat="47.607721" lon="11.373665">
        <ele>881.536547</ele>
        <time>2026-05-08T12:59:28.306Z</time>
      </trkpt>
      <trkpt lat="47.607768" lon="11.373784">
        <ele>879.245519</ele>
        <time>2026-05-08T12:59:31.297Z</time>
      </trkpt>
      <trkpt lat="47.607792" lon="11.373958">
        <ele>876.295201</ele>
        <time>2026-05-08T12:59:35.303Z</time>
      </trkpt>
      <trkpt lat="47.607788" lon="11.374092">
        <ele>874.067042</ele>
        <time>2026-05-08T12:59:38.301Z</time>
      </trkpt>
      <trkpt lat="47.607780" lon="11.374246">
        <ele>871.501246</ele>
        <time>2026-05-08T12:59:42.302Z</time>
      </trkpt>
      <trkpt lat="47.607772" lon="11.374410">
        <ele>868.769793</ele>
        <time>2026-05-08T12:59:46.301Z</time>
      </trkpt>
      <trkpt lat="47.607771" lon="11.374563">
        <ele>866.539927</ele>
        <time>2026-05-08T12:59:50.308Z</time>
      </trkpt>
      <trkpt lat="47.607770" lon="11.374716">
        <ele>866.931674</ele>
        <time>2026-05-08T12:59:54.304Z</time>
      </trkpt>
      <trkpt lat="47.607772" lon="11.374851">
        <ele>867.277400</ele>
        <time>2026-05-08T12:59:57.299Z</time>
      </trkpt>
      <trkpt lat="47.607764" lon="11.375024">
        <ele>867.721376</ele>
        <time>2026-05-08T13:00:01.294Z</time>
      </trkpt>
      <trkpt lat="47.607753" lon="11.375164">
        <ele>868.082246</ele>
        <time>2026-05-08T13:00:04.293Z</time>
      </trkpt>
      <trkpt lat="47.607752" lon="11.375326">
        <ele>868.497035</ele>
        <time>2026-05-08T13:00:08.301Z</time>
      </trkpt>
      <trkpt lat="47.607751" lon="11.375493">
        <ele>868.924625</ele>
        <time>2026-05-08T13:00:13.310Z</time>
      </trkpt>
      <trkpt lat="47.607773" lon="11.375635">
        <ele>869.297667</ele>
        <time>2026-05-08T13:00:17.301Z</time>
      </trkpt>
      <trkpt lat="47.607809" lon="11.375798">
        <ele>869.736820</ele>
        <time>2026-05-08T13:00:21.306Z</time>
      </trkpt>
      <trkpt lat="47.607847" lon="11.375921">
        <ele>870.083228</ele>
        <time>2026-05-08T13:00:24.306Z</time>
      </trkpt>
      <trkpt lat="47.607870" lon="11.376074">
        <ele>870.484575</ele>
        <time>2026-05-08T13:00:28.303Z</time>
      </trkpt>
      <trkpt lat="47.607911" lon="11.376221">
        <ele>870.891876</ele>
        <time>2026-05-08T13:00:32.299Z</time>
      </trkpt>
      <trkpt lat="47.607960" lon="11.376363">
        <ele>871.300293</ele>
        <time>2026-05-08T13:00:36.303Z</time>
      </trkpt>
      <trkpt lat="47.608034" lon="11.376482">
        <ele>871.714780</ele>
        <time>2026-05-08T13:00:40.293Z</time>
      </trkpt>
      <trkpt lat="47.608109" lon="11.376590">
        <ele>872.111743</ele>
        <time>2026-05-08T13:00:43.308Z</time>
      </trkpt>
      <trkpt lat="47.608189" lon="11.376694">
        <ele>872.515719</ele>
        <time>2026-05-08T13:00:46.306Z</time>
      </trkpt>
      <trkpt lat="47.608250" lon="11.376793">
        <ele>872.859098</ele>
        <time>2026-05-08T13:00:49.302Z</time>
      </trkpt>
      <trkpt lat="47.608303" lon="11.376905">
        <ele>873.209436</ele>
        <time>2026-05-08T13:00:52.305Z</time>
      </trkpt>
      <trkpt lat="47.608353" lon="11.377048">
        <ele>873.679191</ele>
        <time>2026-05-08T13:00:56.304Z</time>
      </trkpt>
      <trkpt lat="47.608397" lon="11.377206">
        <ele>874.202456</ele>
        <time>2026-05-08T13:01:00.303Z</time>
      </trkpt>
      <trkpt lat="47.608413" lon="11.377338">
        <ele>874.612980</ele>
        <time>2026-05-08T13:01:03.303Z</time>
      </trkpt>
      <trkpt lat="47.608437" lon="11.377468">
        <ele>875.025553</ele>
        <time>2026-05-08T13:01:06.302Z</time>
      </trkpt>
      <trkpt lat="47.608462" lon="11.377598">
        <ele>875.439348</ele>
        <time>2026-05-08T13:01:09.305Z</time>
      </trkpt>
      <trkpt lat="47.608469" lon="11.377734">
        <ele>875.856849</ele>
        <time>2026-05-08T13:01:12.302Z</time>
      </trkpt>
      <trkpt lat="47.608461" lon="11.377877">
        <ele>876.296069</ele>
        <time>2026-05-08T13:01:15.312Z</time>
      </trkpt>
      <trkpt lat="47.608453" lon="11.378020">
        <ele>876.735289</ele>
        <time>2026-05-08T13:01:18.304Z</time>
      </trkpt>
      <trkpt lat="47.608435" lon="11.378152">
        <ele>877.147517</ele>
        <time>2026-05-08T13:01:21.317Z</time>
      </trkpt>
      <trkpt lat="47.608416" lon="11.378290">
        <ele>877.578646</ele>
        <time>2026-05-08T13:01:24.316Z</time>
      </trkpt>
      <trkpt lat="47.608394" lon="11.378454">
        <ele>878.090483</ele>
        <time>2026-05-08T13:01:28.314Z</time>
      </trkpt>
      <trkpt lat="47.608375" lon="11.378588">
        <ele>878.509624</ele>
        <time>2026-05-08T13:01:31.308Z</time>
      </trkpt>
      <trkpt lat="47.608344" lon="11.378760">
        <ele>879.054597</ele>
        <time>2026-05-08T13:01:35.310Z</time>
      </trkpt>
      <trkpt lat="47.608327" lon="11.378907">
        <ele>879.511130</ele>
        <time>2026-05-08T13:01:38.305Z</time>
      </trkpt>
      <trkpt lat="47.608298" lon="11.379068">
        <ele>880.021229</ele>
        <time>2026-05-08T13:01:41.300Z</time>
      </trkpt>
      <trkpt lat="47.608254" lon="11.379220">
        <ele>880.527569</ele>
        <time>2026-05-08T13:01:44.305Z</time>
      </trkpt>
      <trkpt lat="47.608203" lon="11.379391">
        <ele>881.099922</ele>
        <time>2026-05-08T13:01:47.298Z</time>
      </trkpt>
      <trkpt lat="47.608143" lon="11.379553">
        <ele>883.627138</ele>
        <time>2026-05-08T13:01:50.312Z</time>
      </trkpt>
      <trkpt lat="47.608074" lon="11.379715">
        <ele>890.948110</ele>
        <time>2026-05-08T13:01:53.300Z</time>
      </trkpt>
      <trkpt lat="47.608034" lon="11.379846">
        <ele>896.442432</ele>
        <time>2026-05-08T13:01:55.317Z</time>
      </trkpt>
      <trkpt lat="47.607994" lon="11.379990">
        <ele>902.392722</ele>
        <time>2026-05-08T13:01:57.305Z</time>
      </trkpt>
      <trkpt lat="47.607957" lon="11.380179">
        <ele>909.911864</ele>
        <time>2026-05-08T13:02:00.311Z</time>
      </trkpt>
      <trkpt lat="47.607941" lon="11.380355">
        <ele>916.696935</ele>
        <time>2026-05-08T13:02:03.306Z</time>
      </trkpt>
      <trkpt lat="47.607930" lon="11.380498">
        <ele>922.195808</ele>
        <time>2026-05-08T13:02:06.310Z</time>
      </trkpt>
      <trkpt lat="47.607930" lon="11.380637">
        <ele>927.506413</ele>
        <time>2026-05-08T13:02:09.312Z</time>
      </trkpt>
      <trkpt lat="47.607918" lon="11.380786">
        <ele>933.239549</ele>
        <time>2026-05-08T13:02:12.313Z</time>
      </trkpt>
      <trkpt lat="47.607899" lon="11.380937">
        <ele>939.108239</ele>
        <time>2026-05-08T13:02:15.313Z</time>
      </trkpt>
      <trkpt lat="47.607878" lon="11.381089">
        <ele>945.036202</ele>
        <time>2026-05-08T13:02:18.306Z</time>
      </trkpt>
      <trkpt lat="47.607863" lon="11.381248">
        <ele>951.170112</ele>
        <time>2026-05-08T13:02:21.306Z</time>
      </trkpt>
      <trkpt lat="47.607833" lon="11.381402">
        <ele>957.294499</ele>
        <time>2026-05-08T13:02:24.313Z</time>
      </trkpt>
      <trkpt lat="47.607802" lon="11.381559">
        <ele>963.544773</ele>
        <time>2026-05-08T13:02:27.312Z</time>
      </trkpt>
      <trkpt lat="47.607779" lon="11.381738">
        <ele>970.506720</ele>
        <time>2026-05-08T13:02:30.303Z</time>
      </trkpt>
      <trkpt lat="47.607767" lon="11.381911">
        <ele>977.151231</ele>
        <time>2026-05-08T13:02:33.308Z</time>
      </trkpt>
      <trkpt lat="47.607762" lon="11.382070">
        <ele>983.232576</ele>
        <time>2026-05-08T13:02:36.301Z</time>
      </trkpt>
      <trkpt lat="47.607765" lon="11.382226">
        <ele>978.705749</ele>
        <time>2026-05-08T13:02:39.307Z</time>
      </trkpt>
      <trkpt lat="47.607757" lon="11.382372">
        <ele>974.135669</ele>
        <time>2026-05-08T13:02:42.304Z</time>
      </trkpt>
      <trkpt lat="47.607743" lon="11.382516">
        <ele>969.596535</ele>
        <time>2026-05-08T13:02:45.296Z</time>
      </trkpt>
      <trkpt lat="47.607717" lon="11.382656">
        <ele>965.065985</ele>
        <time>2026-05-08T13:02:48.306Z</time>
      </trkpt>
      <trkpt lat="47.607686" lon="11.382799">
        <ele>960.379556</ele>
        <time>2026-05-08T13:02:51.309Z</time>
      </trkpt>
      <trkpt lat="47.607675" lon="11.382956">
        <ele>955.454920</ele>
        <time>2026-05-08T13:02:54.313Z</time>
      </trkpt>
      <trkpt lat="47.607681" lon="11.383103">
        <ele>950.860256</ele>
        <time>2026-05-08T13:02:57.302Z</time>
      </trkpt>
      <trkpt lat="47.607684" lon="11.383242">
        <ele>946.521361</ele>
        <time>2026-05-08T13:03:00.309Z</time>
      </trkpt>
      <trkpt lat="47.607683" lon="11.383406">
        <ele>941.404500</ele>
        <time>2026-05-08T13:03:04.304Z</time>
      </trkpt>
      <trkpt lat="47.607668" lon="11.383555">
        <ele>936.704297</ele>
        <time>2026-05-08T13:03:07.307Z</time>
      </trkpt>
      <trkpt lat="47.607645" lon="11.383700">
        <ele>932.056908</ele>
        <time>2026-05-08T13:03:10.313Z</time>
      </trkpt>
      <trkpt lat="47.607626" lon="11.383836">
        <ele>927.723689</ele>
        <time>2026-05-08T13:03:13.303Z</time>
      </trkpt>
      <trkpt lat="47.607617" lon="11.383984">
        <ele>923.087474</ele>
        <time>2026-05-08T13:03:16.300Z</time>
      </trkpt>
      <trkpt lat="47.607580" lon="11.384110">
        <ele>918.799690</ele>
        <time>2026-05-08T13:03:20.310Z</time>
      </trkpt>
      <trkpt lat="47.607568" lon="11.384270">
        <ele>913.777033</ele>
        <time>2026-05-08T13:03:25.307Z</time>
      </trkpt>
      <trkpt lat="47.607587" lon="11.384404">
        <ele>909.504891</ele>
        <time>2026-05-08T13:03:28.313Z</time>
      </trkpt>
      <trkpt lat="47.607608" lon="11.384541">
        <ele>905.121529</ele>
        <time>2026-05-08T13:03:32.299Z</time>
      </trkpt>
      <trkpt lat="47.607637" lon="11.384676">
        <ele>900.701021</ele>
        <time>2026-05-08T13:03:36.309Z</time>
      </trkpt>
      <trkpt lat="47.607646" lon="11.384811">
        <ele>902.206904</ele>
        <time>2026-05-08T13:03:41.312Z</time>
      </trkpt>
      <trkpt lat="47.607634" lon="11.385122">
        <ele>907.482916</ele>
        <time>2026-05-08T13:05:10.304Z</time>
      </trkpt>
      <trkpt lat="47.607599" lon="11.385269">
        <ele>910.123342</ele>
        <time>2026-05-08T13:05:14.295Z</time>
      </trkpt>
      <trkpt lat="47.607560" lon="11.385396">
        <ele>912.486954</ele>
        <time>2026-05-08T13:05:17.298Z</time>
      </trkpt>
      <trkpt lat="47.607516" lon="11.385531">
        <ele>915.026606</ele>
        <time>2026-05-08T13:05:21.296Z</time>
      </trkpt>
      <trkpt lat="47.607501" lon="11.385665">
        <ele>917.327233</ele>
        <time>2026-05-08T13:05:24.298Z</time>
      </trkpt>
      <trkpt lat="47.607480" lon="11.385826">
        <ele>920.104652</ele>
        <time>2026-05-08T13:05:28.301Z</time>
      </trkpt>
      <trkpt lat="47.607444" lon="11.385952">
        <ele>922.422434</ele>
        <time>2026-05-08T13:05:31.290Z</time>
      </trkpt>
      <trkpt lat="47.607448" lon="11.386088">
        <ele>924.728059</ele>
        <time>2026-05-08T13:05:34.292Z</time>
      </trkpt>
      <trkpt lat="47.607455" lon="11.386258">
        <ele>927.612717</ele>
        <time>2026-05-08T13:05:38.296Z</time>
      </trkpt>
      <trkpt lat="47.607448" lon="11.386497">
        <ele>931.664481</ele>
        <time>2026-05-08T13:05:44.305Z</time>
      </trkpt>
      <trkpt lat="47.607448" lon="11.386658">
        <ele>934.391340</ele>
        <time>2026-05-08T13:05:48.294Z</time>
      </trkpt>
      <trkpt lat="47.607472" lon="11.386816">
        <ele>937.134465</ele>
        <time>2026-05-08T13:05:52.300Z</time>
      </trkpt>
      <trkpt lat="47.607492" lon="11.386980">
        <ele>939.957208</ele>
        <time>2026-05-08T13:05:56.303Z</time>
      </trkpt>
      <trkpt lat="47.607501" lon="11.387117">
        <ele>942.288566</ele>
        <time>2026-05-08T13:05:59.308Z</time>
      </trkpt>
      <trkpt lat="47.607473" lon="11.387251">
        <ele>944.664627</ele>
        <time>2026-05-08T13:06:03.294Z</time>
      </trkpt>
      <trkpt lat="47.607436" lon="11.387402">
        <ele>943.717754</ele>
        <time>2026-05-08T13:06:07.299Z</time>
      </trkpt>
      <trkpt lat="47.607430" lon="11.387576">
        <ele>941.292906</ele>
        <time>2026-05-08T13:06:12.305Z</time>
      </trkpt>
      <trkpt lat="47.607418" lon="11.387736">
        <ele>939.052334</ele>
        <time>2026-05-08T13:06:17.295Z</time>
      </trkpt>
      <trkpt lat="47.607420" lon="11.387900">
        <ele>936.769454</ele>
        <time>2026-05-08T13:06:22.292Z</time>
      </trkpt>
      <trkpt lat="47.607418" lon="11.388034">
        <ele>934.904022</ele>
        <time>2026-05-08T13:06:26.292Z</time>
      </trkpt>
      <trkpt lat="47.607387" lon="11.388161">
        <ele>933.024193</ele>
        <time>2026-05-08T13:06:30.295Z</time>
      </trkpt>
      <trkpt lat="47.607341" lon="11.388275">
        <ele>931.175119</ele>
        <time>2026-05-08T13:06:33.297Z</time>
      </trkpt>
      <trkpt lat="47.607295" lon="11.388410">
        <ele>929.069897</ele>
        <time>2026-05-08T13:06:37.301Z</time>
      </trkpt>
      <trkpt lat="47.607279" lon="11.388551">
        <ele>927.079891</ele>
        <time>2026-05-08T13:06:41.302Z</time>
      </trkpt>
      <trkpt lat="47.607254" lon="11.388696">
        <ele>924.996873</ele>
        <time>2026-05-08T13:06:46.307Z</time>
      </trkpt>
      <trkpt lat="47.607220" lon="11.388858">
        <ele>922.635477</ele>
        <time>2026-05-08T13:06:51.295Z</time>
      </trkpt>
      <trkpt lat="47.607201" lon="11.388991">
        <ele>920.743315</ele>
        <time>2026-05-08T13:06:55.297Z</time>
      </trkpt>
      <trkpt lat="47.607156" lon="11.389146">
        <ele>918.394552</ele>
        <time>2026-05-08T13:06:59.302Z</time>
      </trkpt>
      <trkpt lat="47.607160" lon="11.389303">
        <ele>916.207899</ele>
        <time>2026-05-08T13:07:04.294Z</time>
      </trkpt>
      <trkpt lat="47.607227" lon="11.389396">
        <ele>914.313622</ele>
        <time>2026-05-08T13:07:12.298Z</time>
      </trkpt>
      <trkpt lat="47.607261" lon="11.389716">
        <ele>909.804970</ele>
        <time>2026-05-08T13:08:01.307Z</time>
      </trkpt>
      <trkpt lat="47.607281" lon="11.389880">
        <ele>908.409932</ele>
        <time>2026-05-08T13:08:04.295Z</time>
      </trkpt>
      <trkpt lat="47.607271" lon="11.390054">
        <ele>908.946600</ele>
        <time>2026-05-08T13:08:06.294Z</time>
      </trkpt>
      <trkpt lat="47.607298" lon="11.390196">
        <ele>909.400010</ele>
        <time>2026-05-08T13:08:08.293Z</time>
      </trkpt>
      <trkpt lat="47.607292" lon="11.390348">
        <ele>909.867929</ele>
        <time>2026-05-08T13:08:10.295Z</time>
      </trkpt>
      <trkpt lat="47.607330" lon="11.390475">
        <ele>910.294929</ele>
        <time>2026-05-08T13:08:12.297Z</time>
      </trkpt>
      <trkpt lat="47.607357" lon="11.390639">
        <ele>910.813734</ele>
        <time>2026-05-08T13:08:14.296Z</time>
      </trkpt>
      <trkpt lat="47.607373" lon="11.390790">
        <ele>911.283476</ele>
        <time>2026-05-08T13:08:16.299Z</time>
      </trkpt>
      <trkpt lat="47.607391" lon="11.390959">
        <ele>911.809279</ele>
        <time>2026-05-08T13:08:18.300Z</time>
      </trkpt>
      <trkpt lat="47.607412" lon="11.391136">
        <ele>912.361585</ele>
        <time>2026-05-08T13:08:20.302Z</time>
      </trkpt>
      <trkpt lat="47.607416" lon="11.391319">
        <ele>912.924266</ele>
        <time>2026-05-08T13:08:22.291Z</time>
      </trkpt>
      <trkpt lat="47.607393" lon="11.391517">
        <ele>913.541715</ele>
        <time>2026-05-08T13:08:24.304Z</time>
      </trkpt>
      <trkpt lat="47.607373" lon="11.391688">
        <ele>914.075072</ele>
        <time>2026-05-08T13:08:26.306Z</time>
      </trkpt>
      <trkpt lat="47.607324" lon="11.391839">
        <ele>914.590071</ele>
        <time>2026-05-08T13:08:28.296Z</time>
      </trkpt>
      <trkpt lat="47.607258" lon="11.391957">
        <ele>915.061246</ele>
        <time>2026-05-08T13:08:30.310Z</time>
      </trkpt>
      <trkpt lat="47.607223" lon="11.392114">
        <ele>915.569424</ele>
        <time>2026-05-08T13:08:32.295Z</time>
      </trkpt>
      <trkpt lat="47.607176" lon="11.392230">
        <ele>915.985331</ele>
        <time>2026-05-08T13:08:34.294Z</time>
      </trkpt>
      <trkpt lat="47.607122" lon="11.392367">
        <ele>916.768360</ele>
        <time>2026-05-08T13:08:36.297Z</time>
      </trkpt>
      <trkpt lat="47.607081" lon="11.392569">
        <ele>923.438610</ele>
        <time>2026-05-08T13:08:39.299Z</time>
      </trkpt>
      <trkpt lat="47.607036" lon="11.392750">
        <ele>929.538419</ele>
        <time>2026-05-08T13:08:42.298Z</time>
      </trkpt>
      <trkpt lat="47.606989" lon="11.392907">
        <ele>934.970012</ele>
        <time>2026-05-08T13:08:45.303Z</time>
      </trkpt>
      <trkpt lat="47.606987" lon="11.393049">
        <ele>939.460939</ele>
        <time>2026-05-08T13:08:47.292Z</time>
      </trkpt>
      <trkpt lat="47.606964" lon="11.393227">
        <ele>945.191615</ele>
        <time>2026-05-08T13:08:50.291Z</time>
      </trkpt>
      <trkpt lat="47.606946" lon="11.393413">
        <ele>951.133092</ele>
        <time>2026-05-08T13:08:53.304Z</time>
      </trkpt>
      <trkpt lat="47.606920" lon="11.393569">
        <ele>956.214194</ele>
        <time>2026-05-08T13:08:56.293Z</time>
      </trkpt>
      <trkpt lat="47.606924" lon="11.393710">
        <ele>960.676473</ele>
        <time>2026-05-08T13:09:00.298Z</time>
      </trkpt>
      <trkpt lat="47.606886" lon="11.393861">
        <ele>965.772758</ele>
        <time>2026-05-08T13:09:04.292Z</time>
      </trkpt>
      <trkpt lat="47.606883" lon="11.394014">
        <ele>970.612573</ele>
        <time>2026-05-08T13:09:08.296Z</time>
      </trkpt>
      <trkpt lat="47.606829" lon="11.394160">
        <ele>975.878031</ele>
        <time>2026-05-08T13:09:12.299Z</time>
      </trkpt>
      <trkpt lat="47.606774" lon="11.394281">
        <ele>980.492274</ele>
        <time>2026-05-08T13:09:16.300Z</time>
      </trkpt>
      <trkpt lat="47.606731" lon="11.394418">
        <ele>985.270544</ele>
        <time>2026-05-08T13:09:21.302Z</time>
      </trkpt>
      <trkpt lat="47.606680" lon="11.394530">
        <ele>989.543970</ele>
        <time>2026-05-08T13:09:24.302Z</time>
      </trkpt>
      <trkpt lat="47.606616" lon="11.394652">
        <ele>994.431697</ele>
        <time>2026-05-08T13:09:29.304Z</time>
      </trkpt>
      <trkpt lat="47.606562" lon="11.394777">
        <ele>999.125887</ele>
        <time>2026-05-08T13:09:33.305Z</time>
      </trkpt>
      <trkpt lat="47.606494" lon="11.394876">
        <ele>998.396793</ele>
        <time>2026-05-08T13:09:37.298Z</time>
      </trkpt>
      <trkpt lat="47.606430" lon="11.394987">
        <ele>994.442673</ele>
        <time>2026-05-08T13:09:40.292Z</time>
      </trkpt>
      <trkpt lat="47.606389" lon="11.395128">
        <ele>990.285479</ele>
        <time>2026-05-08T13:09:43.293Z</time>
      </trkpt>
      <trkpt lat="47.606353" lon="11.395283">
        <ele>985.847138</ele>
        <time>2026-05-08T13:09:46.293Z</time>
      </trkpt>
      <trkpt lat="47.606324" lon="11.395428">
        <ele>981.752460</ele>
        <time>2026-05-08T13:09:48.294Z</time>
      </trkpt>
      <trkpt lat="47.606296" lon="11.395620">
        <ele>976.434212</ele>
        <time>2026-05-08T13:09:50.301Z</time>
      </trkpt>
      <trkpt lat="47.606243" lon="11.395762">
        <ele>972.040062</ele>
        <time>2026-05-08T13:09:52.294Z</time>
      </trkpt>
      <trkpt lat="47.606239" lon="11.395925">
        <ele>967.624213</ele>
        <time>2026-05-08T13:09:55.300Z</time>
      </trkpt>
      <trkpt lat="47.606258" lon="11.396074">
        <ele>963.518797</ele>
        <time>2026-05-08T13:09:58.298Z</time>
      </trkpt>
      <trkpt lat="47.606260" lon="11.396221">
        <ele>959.538231</ele>
        <time>2026-05-08T13:10:01.296Z</time>
      </trkpt>
      <trkpt lat="47.606221" lon="11.396373">
        <ele>955.135199</ele>
        <time>2026-05-08T13:10:04.297Z</time>
      </trkpt>
      <trkpt lat="47.606177" lon="11.396520">
        <ele>950.780880</ele>
        <time>2026-05-08T13:10:08.307Z</time>
      </trkpt>
      <trkpt lat="47.606157" lon="11.396655">
        <ele>947.038804</ele>
        <time>2026-05-08T13:10:13.305Z</time>
      </trkpt>
      <trkpt lat="47.606125" lon="11.396794">
        <ele>943.062297</ele>
        <time>2026-05-08T13:10:18.318Z</time>
      </trkpt>
      <trkpt lat="47.606117" lon="11.396964">
        <ele>938.448650</ele>
        <time>2026-05-08T13:10:23.316Z</time>
      </trkpt>
      <trkpt lat="47.606117" lon="11.397101">
        <ele>934.739617</ele>
        <time>2026-05-08T13:10:27.306Z</time>
      </trkpt>
      <trkpt lat="47.606119" lon="11.397235">
        <ele>931.110914</ele>
        <time>2026-05-08T13:10:31.314Z</time>
      </trkpt>
      <trkpt lat="47.606109" lon="11.397369">
        <ele>928.604990</ele>
        <time>2026-05-08T13:10:35.303Z</time>
      </trkpt>
      <trkpt lat="47.606073" lon="11.397519">
        <ele>928.739362</ele>
        <time>2026-05-08T13:10:41.306Z</time>
      </trkpt>
      <trkpt lat="47.606027" lon="11.397659">
        <ele>928.870797</ele>
        <time>2026-05-08T13:10:47.307Z</time>
      </trkpt>
      <trkpt lat="47.605981" lon="11.397788">
        <ele>928.993953</ele>
        <time>2026-05-08T13:10:51.307Z</time>
      </trkpt>
      <trkpt lat="47.605922" lon="11.397922">
        <ele>929.129020</ele>
        <time>2026-05-08T13:10:56.306Z</time>
      </trkpt>
      <trkpt lat="47.605870" lon="11.398039">
        <ele>929.247284</ele>
        <time>2026-05-08T13:11:00.305Z</time>
      </trkpt>
      <trkpt lat="47.605826" lon="11.398189">
        <ele>929.385337</ele>
        <time>2026-05-08T13:11:05.300Z</time>
      </trkpt>
      <trkpt lat="47.605817" lon="11.398345">
        <ele>929.517473</ele>
        <time>2026-05-08T13:11:09.296Z</time>
      </trkpt>
      <trkpt lat="47.605797" lon="11.398487">
        <ele>929.639899</ele>
        <time>2026-05-08T13:11:14.311Z</time>
      </trkpt>
      <trkpt lat="47.605784" lon="11.398622">
        <ele>929.754987</ele>
        <time>2026-05-08T13:11:18.313Z</time>
      </trkpt>
      <trkpt lat="47.605784" lon="11.398762">
        <ele>929.873139</ele>
        <time>2026-05-08T13:11:22.306Z</time>
      </trkpt>
      <trkpt lat="47.605774" lon="11.398914">
        <ele>930.002028</ele>
        <time>2026-05-08T13:11:27.308Z</time>
      </trkpt>
      <trkpt lat="47.605763" lon="11.399070">
        <ele>930.134401</ele>
        <time>2026-05-08T13:11:32.297Z</time>
      </trkpt>
      <trkpt lat="47.605767" lon="11.399210">
        <ele>930.252659</ele>
        <time>2026-05-08T13:11:37.303Z</time>
      </trkpt>
      <trkpt lat="47.605765" lon="11.399369">
        <ele>930.386869</ele>
        <time>2026-05-08T13:11:42.302Z</time>
      </trkpt>
      <trkpt lat="47.605765" lon="11.399527">
        <ele>930.520212</ele>
        <time>2026-05-08T13:11:47.304Z</time>
      </trkpt>
      <trkpt lat="47.605788" lon="11.399657">
        <ele>930.633639</ele>
        <time>2026-05-08T13:11:59.306Z</time>
      </trkpt>
      <trkpt lat="47.605792" lon="11.399927">
        <ele>930.699835</ele>
        <time>2026-05-08T13:12:17.295Z</time>
      </trkpt>
      <trkpt lat="47.605802" lon="11.400099">
        <ele>930.252932</ele>
        <time>2026-05-08T13:12:20.294Z</time>
      </trkpt>
      <trkpt lat="47.605794" lon="11.400260">
        <ele>929.835027</ele>
        <time>2026-05-08T13:12:23.298Z</time>
      </trkpt>
      <trkpt lat="47.605776" lon="11.400418">
        <ele>929.420220</ele>
        <time>2026-05-08T13:12:26.308Z</time>
      </trkpt>
      <trkpt lat="47.605802" lon="11.400614">
        <ele>928.903114</ele>
        <time>2026-05-08T13:12:28.292Z</time>
      </trkpt>
      <trkpt lat="47.605825" lon="11.400747">
        <ele>928.547677</ele>
        <time>2026-05-08T13:12:30.306Z</time>
      </trkpt>
      <trkpt lat="47.605858" lon="11.400943">
        <ele>928.024719</ele>
        <time>2026-05-08T13:12:32.293Z</time>
      </trkpt>
      <trkpt lat="47.605893" lon="11.401111">
        <ele>927.569535</ele>
        <time>2026-05-08T13:12:34.303Z</time>
      </trkpt>
      <trkpt lat="47.605949" lon="11.401251">
        <ele>927.148143</ele>
        <time>2026-05-08T13:12:36.303Z</time>
      </trkpt>
      <trkpt lat="47.606012" lon="11.401347">
        <ele>926.801348</ele>
        <time>2026-05-08T13:12:38.303Z</time>
      </trkpt>
      <trkpt lat="47.606024" lon="11.401495">
        <ele>926.415467</ele>
        <time>2026-05-08T13:12:42.299Z</time>
      </trkpt>
      <trkpt lat="47.606099" lon="11.401605">
        <ele>926.010493</ele>
        <time>2026-05-08T13:12:45.298Z</time>
      </trkpt>
      <trkpt lat="47.606186" lon="11.401712">
        <ele>925.576559</ele>
        <time>2026-05-08T13:12:50.297Z</time>
      </trkpt>
      <trkpt lat="47.606304" lon="11.401769">
        <ele>925.100081</ele>
        <time>2026-05-08T13:12:53.294Z</time>
      </trkpt>
      <trkpt lat="47.606415" lon="11.401798">
        <ele>924.667341</ele>
        <time>2026-05-08T13:12:56.295Z</time>
      </trkpt>
      <trkpt lat="47.606489" lon="11.401897">
        <ele>924.284717</ele>
        <time>2026-05-08T13:13:00.289Z</time>
      </trkpt>
      <trkpt lat="47.606517" lon="11.402058">
        <ele>923.723514</ele>
        <time>2026-05-08T13:13:04.291Z</time>
      </trkpt>
      <trkpt lat="47.606560" lon="11.402195">
        <ele>922.502873</ele>
        <time>2026-05-08T13:13:08.294Z</time>
      </trkpt>
      <trkpt lat="47.606536" lon="11.402331">
        <ele>921.367340</ele>
        <time>2026-05-08T13:13:11.302Z</time>
      </trkpt>
      <trkpt lat="47.606542" lon="11.402498">
        <ele>920.016499</ele>
        <time>2026-05-08T13:13:14.291Z</time>
      </trkpt>
      <trkpt lat="47.606561" lon="11.402673">
        <ele>918.584742</ele>
        <time>2026-05-08T13:13:17.296Z</time>
      </trkpt>
      <trkpt lat="47.606582" lon="11.402845">
        <ele>917.172833</ele>
        <time>2026-05-08T13:13:18.296Z</time>
      </trkpt>
      <trkpt lat="47.606571" lon="11.403060">
        <ele>915.431198</ele>
        <time>2026-05-08T13:13:21.297Z</time>
      </trkpt>
      <trkpt lat="47.606582" lon="11.403218">
        <ele>914.148182</ele>
        <time>2026-05-08T13:13:24.296Z</time>
      </trkpt>
      <trkpt lat="47.606552" lon="11.403367">
        <ele>912.892129</ele>
        <time>2026-05-08T13:13:27.294Z</time>
      </trkpt>
      <trkpt lat="47.606524" lon="11.403496">
        <ele>911.797477</ele>
        <time>2026-05-08T13:13:29.293Z</time>
      </trkpt>
      <trkpt lat="47.606486" lon="11.403663">
        <ele>910.373797</ele>
        <time>2026-05-08T13:13:32.295Z</time>
      </trkpt>
      <trkpt lat="47.606469" lon="11.403814">
        <ele>909.137220</ele>
        <time>2026-05-08T13:13:35.290Z</time>
      </trkpt>
      <trkpt lat="47.606436" lon="11.403982">
        <ele>907.723794</ele>
        <time>2026-05-08T13:13:39.301Z</time>
      </trkpt>
      <trkpt lat="47.606409" lon="11.404142">
        <ele>906.391540</ele>
        <time>2026-05-08T13:13:42.290Z</time>
      </trkpt>
      <trkpt lat="47.606361" lon="11.404301">
        <ele>904.984362</ele>
        <time>2026-05-08T13:13:45.291Z</time>
      </trkpt>
      <trkpt lat="47.606335" lon="11.404548">
        <ele>902.965065</ele>
        <time>2026-05-08T13:13:47.297Z</time>
      </trkpt>
      <trkpt lat="47.606295" lon="11.404723">
        <ele>902.047845</ele>
        <time>2026-05-08T13:13:50.297Z</time>
      </trkpt>
      <trkpt lat="47.606281" lon="11.404886">
        <ele>901.573802</ele>
        <time>2026-05-08T13:13:54.294Z</time>
      </trkpt>
      <trkpt lat="47.606310" lon="11.405100">
        <ele>900.944081</ele>
        <time>2026-05-08T13:13:57.290Z</time>
      </trkpt>
      <trkpt lat="47.606338" lon="11.405281">
        <ele>900.408341</ele>
        <time>2026-05-08T13:13:59.292Z</time>
      </trkpt>
      <trkpt lat="47.606372" lon="11.405439">
        <ele>899.929870</ele>
        <time>2026-05-08T13:14:01.292Z</time>
      </trkpt>
      <trkpt lat="47.606394" lon="11.405593">
        <ele>899.475729</ele>
        <time>2026-05-08T13:14:03.292Z</time>
      </trkpt>
      <trkpt lat="47.606389" lon="11.405767">
        <ele>898.973297</ele>
        <time>2026-05-08T13:14:06.303Z</time>
      </trkpt>
      <trkpt lat="47.606401" lon="11.405912">
        <ele>898.551844</ele>
        <time>2026-05-08T13:14:09.300Z</time>
      </trkpt>
      <trkpt lat="47.606424" lon="11.406073">
        <ele>898.077061</ele>
        <time>2026-05-08T13:14:13.296Z</time>
      </trkpt>
      <trkpt lat="47.606447" lon="11.406238">
        <ele>897.590982</ele>
        <time>2026-05-08T13:14:17.297Z</time>
      </trkpt>
      <trkpt lat="47.606476" lon="11.406392">
        <ele>897.129701</ele>
        <time>2026-05-08T13:14:20.295Z</time>
      </trkpt>
      <trkpt lat="47.606507" lon="11.406578">
        <ele>896.576955</ele>
        <time>2026-05-08T13:14:23.292Z</time>
      </trkpt>
      <trkpt lat="47.606573" lon="11.406747">
        <ele>896.013520</ele>
        <time>2026-05-08T13:14:26.305Z</time>
      </trkpt>
      <trkpt lat="47.606608" lon="11.406890">
        <ele>895.574636</ele>
        <time>2026-05-08T13:14:28.293Z</time>
      </trkpt>
      <trkpt lat="47.606670" lon="11.406988">
        <ele>895.186937</ele>
        <time>2026-05-08T13:14:30.302Z</time>
      </trkpt>
      <trkpt lat="47.606692" lon="11.407180">
        <ele>894.668903</ele>
        <time>2026-05-08T13:14:33.291Z</time>
      </trkpt>
      <trkpt lat="47.606729" lon="11.407371">
        <ele>894.639222</ele>
        <time>2026-05-08T13:14:36.301Z</time>
      </trkpt>
      <trkpt lat="47.606776" lon="11.407502">
        <ele>894.617059</ele>
        <time>2026-05-08T13:14:38.301Z</time>
      </trkpt>
      <trkpt lat="47.606799" lon="11.407646">
        <ele>894.594957</ele>
        <time>2026-05-08T13:14:40.299Z</time>
      </trkpt>
      <trkpt lat="47.606869" lon="11.407774">
        <ele>894.570342</ele>
        <time>2026-05-08T13:14:42.296Z</time>
      </trkpt>
      <trkpt lat="47.606900" lon="11.407912">
        <ele>894.548618</ele>
        <time>2026-05-08T13:14:44.296Z</time>
      </trkpt>
      <trkpt lat="47.606924" lon="11.408042">
        <ele>894.528487</ele>
        <time>2026-05-08T13:14:46.296Z</time>
      </trkpt>
      <trkpt lat="47.606940" lon="11.408193">
        <ele>894.505658</ele>
        <time>2026-05-08T13:14:48.296Z</time>
      </trkpt>
      <trkpt lat="47.606981" lon="11.408327">
        <ele>894.483681</ele>
        <time>2026-05-08T13:14:50.296Z</time>
      </trkpt>
      <trkpt lat="47.607013" lon="11.408465">
        <ele>894.461885</ele>
        <time>2026-05-08T13:14:52.294Z</time>
      </trkpt>
      <trkpt lat="47.607061" lon="11.408607">
        <ele>894.438161</ele>
        <time>2026-05-08T13:14:54.291Z</time>
      </trkpt>
      <trkpt lat="47.607104" lon="11.408756">
        <ele>894.413955</ele>
        <time>2026-05-08T13:14:56.292Z</time>
      </trkpt>
      <trkpt lat="47.607138" lon="11.408881">
        <ele>894.393824</ele>
        <time>2026-05-08T13:14:58.290Z</time>
      </trkpt>
      <trkpt lat="47.607187" lon="11.409028">
        <ele>894.369332</ele>
        <time>2026-05-08T13:15:00.292Z</time>
      </trkpt>
      <trkpt lat="47.607265" lon="11.409190">
        <ele>894.339601</ele>
        <time>2026-05-08T13:15:02.293Z</time>
      </trkpt>
      <trkpt lat="47.607325" lon="11.409354">
        <ele>894.311734</ele>
        <time>2026-05-08T13:15:04.290Z</time>
      </trkpt>
      <trkpt lat="47.607387" lon="11.409502">
        <ele>894.285711</ele>
        <time>2026-05-08T13:15:06.302Z</time>
      </trkpt>
      <trkpt lat="47.607455" lon="11.409645">
        <ele>894.194976</ele>
        <time>2026-05-08T13:15:08.304Z</time>
      </trkpt>
      <trkpt lat="47.607539" lon="11.409800">
        <ele>894.020828</ele>
        <time>2026-05-08T13:15:10.302Z</time>
      </trkpt>
      <trkpt lat="47.607640" lon="11.409942">
        <ele>893.840074</ele>
        <time>2026-05-08T13:15:12.345Z</time>
      </trkpt>
      <trkpt lat="47.607721" lon="11.410068">
        <ele>893.687617</ele>
        <time>2026-05-08T13:15:14.299Z</time>
      </trkpt>
      <trkpt lat="47.607791" lon="11.410199">
        <ele>893.541240</ele>
        <time>2026-05-08T13:15:16.298Z</time>
      </trkpt>
      <trkpt lat="47.607863" lon="11.410303">
        <ele>893.410703</ele>
        <time>2026-05-08T13:15:18.298Z</time>
      </trkpt>
      <trkpt lat="47.607916" lon="11.410479">
        <ele>893.241906</ele>
        <time>2026-05-08T13:15:21.296Z</time>
      </trkpt>
      <trkpt lat="47.607987" lon="11.410651">
        <ele>893.065298</ele>
        <time>2026-05-08T13:15:24.296Z</time>
      </trkpt>
      <trkpt lat="47.608067" lon="11.410798">
        <ele>892.899866</ele>
        <time>2026-05-08T13:15:27.294Z</time>
      </trkpt>
      <trkpt lat="47.608127" lon="11.410913">
        <ele>892.772529</ele>
        <time>2026-05-08T13:15:30.294Z</time>
      </trkpt>
      <trkpt lat="47.608099" lon="11.411043">
        <ele>892.653022</ele>
        <time>2026-05-08T13:15:34.293Z</time>
      </trkpt>
      <trkpt lat="47.608050" lon="11.411190">
        <ele>892.509421</ele>
        <time>2026-05-08T13:15:38.291Z</time>
      </trkpt>
      <trkpt lat="47.607973" lon="11.411284">
        <ele>892.379890</ele>
        <time>2026-05-08T13:15:58.300Z</time>
      </trkpt>
      <trkpt lat="47.607897" lon="11.411403">
        <ele>892.236351</ele>
        <time>2026-05-08T13:16:01.299Z</time>
      </trkpt>
      <trkpt lat="47.607803" lon="11.411528">
        <ele>892.072374</ele>
        <time>2026-05-08T13:16:04.300Z</time>
      </trkpt>
      <trkpt lat="47.607734" lon="11.411623">
        <ele>891.950092</ele>
        <time>2026-05-08T13:16:07.299Z</time>
      </trkpt>
      <trkpt lat="47.607651" lon="11.411751">
        <ele>890.666888</ele>
        <time>2026-05-08T13:16:10.299Z</time>
      </trkpt>
      <trkpt lat="47.607603" lon="11.411924">
        <ele>889.202963</ele>
        <time>2026-05-08T13:16:12.296Z</time>
      </trkpt>
      <trkpt lat="47.607556" lon="11.412098">
        <ele>887.736154</ele>
        <time>2026-05-08T13:16:14.298Z</time>
      </trkpt>
      <trkpt lat="47.607533" lon="11.412294">
        <ele>886.179342</ele>
        <time>2026-05-08T13:16:16.297Z</time>
      </trkpt>
      <trkpt lat="47.607544" lon="11.412465">
        <ele>884.835144</ele>
        <time>2026-05-08T13:16:18.299Z</time>
      </trkpt>
      <trkpt lat="47.607557" lon="11.412628">
        <ele>883.550731</ele>
        <time>2026-05-08T13:16:20.299Z</time>
      </trkpt>
      <trkpt lat="47.607575" lon="11.412786">
        <ele>882.296812</ele>
        <time>2026-05-08T13:16:22.297Z</time>
      </trkpt>
      <trkpt lat="47.607605" lon="11.412956">
        <ele>880.921702</ele>
        <time>2026-05-08T13:16:24.298Z</time>
      </trkpt>
      <trkpt lat="47.607610" lon="11.413123">
        <ele>879.613595</ele>
        <time>2026-05-08T13:16:26.298Z</time>
      </trkpt>
      <trkpt lat="47.607608" lon="11.413268">
        <ele>878.478695</ele>
        <time>2026-05-08T13:16:28.295Z</time>
      </trkpt>
      <trkpt lat="47.607615" lon="11.413432">
        <ele>877.192782</ele>
        <time>2026-05-08T13:16:30.297Z</time>
      </trkpt>
      <trkpt lat="47.607620" lon="11.413584">
        <ele>876.001928</ele>
        <time>2026-05-08T13:16:32.298Z</time>
      </trkpt>
      <trkpt lat="47.607638" lon="11.413737">
        <ele>874.786572</ele>
        <time>2026-05-08T13:16:34.298Z</time>
      </trkpt>
      <trkpt lat="47.607690" lon="11.413924">
        <ele>873.203669</ele>
        <time>2026-05-08T13:16:37.295Z</time>
      </trkpt>
      <trkpt lat="47.607731" lon="11.414072">
        <ele>871.951577</ele>
        <time>2026-05-08T13:16:39.296Z</time>
      </trkpt>
      <trkpt lat="47.607764" lon="11.414225">
        <ele>871.085110</ele>
        <time>2026-05-08T13:16:41.295Z</time>
      </trkpt>
      <trkpt lat="47.607777" lon="11.414385">
        <ele>871.170189</ele>
        <time>2026-05-08T13:16:43.296Z</time>
      </trkpt>
      <trkpt lat="47.607807" lon="11.414553">
        <ele>871.261938</ele>
        <time>2026-05-08T13:16:45.296Z</time>
      </trkpt>
      <trkpt lat="47.607849" lon="11.414700">
        <ele>871.346224</ele>
        <time>2026-05-08T13:16:47.293Z</time>
      </trkpt>
      <trkpt lat="47.607899" lon="11.414847">
        <ele>871.433145</ele>
        <time>2026-05-08T13:16:49.304Z</time>
      </trkpt>
      <trkpt lat="47.607957" lon="11.415013">
        <ele>871.531849</ele>
        <time>2026-05-08T13:16:51.303Z</time>
      </trkpt>
      <trkpt lat="47.607979" lon="11.415158">
        <ele>871.610311</ele>
        <time>2026-05-08T13:16:53.304Z</time>
      </trkpt>
      <trkpt lat="47.607988" lon="11.415295">
        <ele>871.682979</ele>
        <time>2026-05-08T13:16:55.301Z</time>
      </trkpt>
      <trkpt lat="47.607943" lon="11.415466">
        <ele>871.779886</ele>
        <time>2026-05-08T13:16:57.293Z</time>
      </trkpt>
      <trkpt lat="47.607872" lon="11.415626">
        <ele>871.881008</ele>
        <time>2026-05-08T13:16:59.294Z</time>
      </trkpt>
      <trkpt lat="47.607794" lon="11.415781">
        <ele>871.983116</ele>
        <time>2026-05-08T13:17:01.294Z</time>
      </trkpt>
      <trkpt lat="47.607703" lon="11.415897">
        <ele>872.077072</ele>
        <time>2026-05-08T13:17:03.294Z</time>
      </trkpt>
      <trkpt lat="47.607615" lon="11.416016">
        <ele>872.170318</ele>
        <time>2026-05-08T13:17:05.295Z</time>
      </trkpt>
      <trkpt lat="47.607538" lon="11.416141">
        <ele>872.259705</ele>
        <time>2026-05-08T13:17:07.293Z</time>
      </trkpt>
      <trkpt lat="47.607457" lon="11.416282">
        <ele>872.357499</ele>
        <time>2026-05-08T13:17:10.295Z</time>
      </trkpt>
      <trkpt lat="47.607398" lon="11.416433">
        <ele>872.449636</ele>
        <time>2026-05-08T13:17:13.298Z</time>
      </trkpt>
      <trkpt lat="47.607351" lon="11.416611">
        <ele>872.693881</ele>
        <time>2026-05-08T13:17:16.297Z</time>
      </trkpt>
      <trkpt lat="47.607337" lon="11.416798">
        <ele>872.967387</ele>
        <time>2026-05-08T13:17:19.298Z</time>
      </trkpt>
      <trkpt lat="47.607310" lon="11.416975">
        <ele>873.231190</ele>
        <time>2026-05-08T13:17:22.289Z</time>
      </trkpt>
      <trkpt lat="47.607267" lon="11.417153">
        <ele>873.506051</ele>
        <time>2026-05-08T13:17:25.303Z</time>
      </trkpt>
      <trkpt lat="47.607241" lon="11.417289">
        <ele>873.711545</ele>
        <time>2026-05-08T13:17:28.292Z</time>
      </trkpt>
      <trkpt lat="47.607197" lon="11.417421">
        <ele>873.925600</ele>
        <time>2026-05-08T13:17:31.294Z</time>
      </trkpt>
      <trkpt lat="47.607166" lon="11.417566">
        <ele>874.146726</ele>
        <time>2026-05-08T13:17:34.299Z</time>
      </trkpt>
      <trkpt lat="47.607132" lon="11.417713">
        <ele>874.372640</ele>
        <time>2026-05-08T13:17:37.303Z</time>
      </trkpt>
      <trkpt lat="47.607099" lon="11.417863">
        <ele>874.602006</ele>
        <time>2026-05-08T13:17:40.290Z</time>
      </trkpt>
      <trkpt lat="47.607064" lon="11.418009">
        <ele>874.827260</ele>
        <time>2026-05-08T13:17:43.293Z</time>
      </trkpt>
      <trkpt lat="47.607024" lon="11.418148">
        <ele>875.046956</ele>
        <time>2026-05-08T13:17:46.298Z</time>
      </trkpt>
      <trkpt lat="47.606987" lon="11.418281">
        <ele>875.256107</ele>
        <time>2026-05-08T13:17:49.300Z</time>
      </trkpt>
      <trkpt lat="47.606946" lon="11.418413">
        <ele>875.467377</ele>
        <time>2026-05-08T13:17:52.290Z</time>
      </trkpt>
      <trkpt lat="47.606910" lon="11.418579">
        <ele>875.720864</ele>
        <time>2026-05-08T13:17:56.296Z</time>
      </trkpt>
      <trkpt lat="47.606835" lon="11.418888">
        <ele>876.198272</ele>
        <time>2026-05-08T13:18:57.299Z</time>
      </trkpt>
      <trkpt lat="47.606783" lon="11.419035">
        <ele>876.027572</ele>
        <time>2026-05-08T13:19:00.290Z</time>
      </trkpt>
      <trkpt lat="47.606735" lon="11.419217">
        <ele>875.048901</ele>
        <time>2026-05-08T13:19:03.294Z</time>
      </trkpt>
      <trkpt lat="47.606695" lon="11.419359">
        <ele>874.278221</ele>
        <time>2026-05-08T13:19:05.296Z</time>
      </trkpt>
      <trkpt lat="47.606660" lon="11.419486">
        <ele>873.591149</ele>
        <time>2026-05-08T13:19:07.298Z</time>
      </trkpt>
      <trkpt lat="47.606630" lon="11.419633">
        <ele>872.822015</ele>
        <time>2026-05-08T13:19:09.289Z</time>
      </trkpt>
      <trkpt lat="47.606631" lon="11.419805">
        <ele>871.960638</ele>
        <time>2026-05-08T13:19:11.292Z</time>
      </trkpt>
      <trkpt lat="47.606596" lon="11.419977">
        <ele>871.060918</ele>
        <time>2026-05-08T13:19:13.293Z</time>
      </trkpt>
      <trkpt lat="47.606529" lon="11.420167">
        <ele>869.987148</ele>
        <time>2026-05-08T13:19:15.297Z</time>
      </trkpt>
      <trkpt lat="47.606442" lon="11.420364">
        <ele>868.807808</ele>
        <time>2026-05-08T13:19:17.289Z</time>
      </trkpt>
      <trkpt lat="47.606378" lon="11.420613">
        <ele>867.473319</ele>
        <time>2026-05-08T13:19:19.305Z</time>
      </trkpt>
      <trkpt lat="47.606354" lon="11.420746">
        <ele>866.783833</ele>
        <time>2026-05-08T13:19:20.293Z</time>
      </trkpt>
      <trkpt lat="47.606331" lon="11.420892">
        <ele>866.032995</ele>
        <time>2026-05-08T13:19:21.294Z</time>
      </trkpt>
      <trkpt lat="47.606311" lon="11.421037">
        <ele>865.291817</ele>
        <time>2026-05-08T13:19:22.295Z</time>
      </trkpt>
      <trkpt lat="47.606293" lon="11.421193">
        <ele>864.499235</ele>
        <time>2026-05-08T13:19:23.297Z</time>
      </trkpt>
      <trkpt lat="47.606275" lon="11.421349">
        <ele>863.706653</ele>
        <time>2026-05-08T13:19:24.298Z</time>
      </trkpt>
      <trkpt lat="47.606261" lon="11.421492">
        <ele>862.983106</ele>
        <time>2026-05-08T13:19:25.298Z</time>
      </trkpt>
      <trkpt lat="47.606248" lon="11.421634">
        <ele>862.279923</ele>
        <time>2026-05-08T13:19:26.301Z</time>
      </trkpt>
      <trkpt lat="47.606238" lon="11.421780">
        <ele>861.559818</ele>
        <time>2026-05-08T13:19:27.288Z</time>
      </trkpt>
      <trkpt lat="47.606226" lon="11.421929">
        <ele>860.823482</ele>
        <time>2026-05-08T13:19:28.289Z</time>
      </trkpt>
      <trkpt lat="47.606217" lon="11.422086">
        <ele>860.050308</ele>
        <time>2026-05-08T13:19:29.291Z</time>
      </trkpt>
      <trkpt lat="47.606206" lon="11.422242">
        <ele>859.280646</ele>
        <time>2026-05-08T13:19:30.293Z</time>
      </trkpt>
      <trkpt lat="47.606193" lon="11.422403">
        <ele>858.484978</ele>
        <time>2026-05-08T13:19:31.290Z</time>
      </trkpt>
      <trkpt lat="47.606177" lon="11.422567">
        <ele>857.671853</ele>
        <time>2026-05-08T13:19:32.298Z</time>
      </trkpt>
      <trkpt lat="47.606161" lon="11.422732">
        <ele>856.853871</ele>
        <time>2026-05-08T13:19:33.289Z</time>
      </trkpt>
      <trkpt lat="47.606145" lon="11.422897">
        <ele>856.035889</ele>
        <time>2026-05-08T13:19:34.299Z</time>
      </trkpt>
      <trkpt lat="47.606122" lon="11.423061">
        <ele>855.213920</ele>
        <time>2026-05-08T13:19:35.289Z</time>
      </trkpt>
      <trkpt lat="47.606102" lon="11.423225">
        <ele>854.396117</ele>
        <time>2026-05-08T13:19:36.287Z</time>
      </trkpt>
      <trkpt lat="47.606081" lon="11.423387">
        <ele>853.586627</ele>
        <time>2026-05-08T13:19:37.287Z</time>
      </trkpt>
      <trkpt lat="47.606058" lon="11.423552">
        <ele>852.759851</ele>
        <time>2026-05-08T13:19:38.290Z</time>
      </trkpt>
      <trkpt lat="47.606039" lon="11.423714">
        <ele>851.952982</ele>
        <time>2026-05-08T13:19:39.291Z</time>
      </trkpt>
      <trkpt lat="47.606016" lon="11.423876">
        <ele>851.140617</ele>
        <time>2026-05-08T13:19:40.308Z</time>
      </trkpt>
      <trkpt lat="47.605990" lon="11.424036">
        <ele>850.333017</ele>
        <time>2026-05-08T13:19:41.294Z</time>
      </trkpt>
      <trkpt lat="47.605967" lon="11.424193">
        <ele>849.731464</ele>
        <time>2026-05-08T13:19:42.289Z</time>
      </trkpt>
      <trkpt lat="47.605943" lon="11.424349">
        <ele>849.362816</ele>
        <time>2026-05-08T13:19:43.295Z</time>
      </trkpt>
      <trkpt lat="47.605924" lon="11.424504">
        <ele>848.999856</ele>
        <time>2026-05-08T13:19:44.289Z</time>
      </trkpt>
      <trkpt lat="47.605911" lon="11.424663">
        <ele>848.630850</ele>
        <time>2026-05-08T13:19:45.299Z</time>
      </trkpt>
      <trkpt lat="47.605904" lon="11.424823">
        <ele>848.261449</ele>
        <time>2026-05-08T13:19:46.289Z</time>
      </trkpt>
      <trkpt lat="47.605896" lon="11.424987">
        <ele>847.882620</ele>
        <time>2026-05-08T13:19:47.289Z</time>
      </trkpt>
      <trkpt lat="47.605882" lon="11.425147">
        <ele>847.510902</ele>
        <time>2026-05-08T13:19:48.293Z</time>
      </trkpt>
      <trkpt lat="47.605856" lon="11.425303">
        <ele>847.140673</ele>
        <time>2026-05-08T13:19:49.290Z</time>
      </trkpt>
      <trkpt lat="47.605820" lon="11.425453">
        <ele>846.773844</ele>
        <time>2026-05-08T13:19:50.291Z</time>
      </trkpt>
      <trkpt lat="47.605778" lon="11.425602">
        <ele>846.401767</ele>
        <time>2026-05-08T13:19:51.292Z</time>
      </trkpt>
      <trkpt lat="47.605734" lon="11.425736">
        <ele>846.058376</ele>
        <time>2026-05-08T13:19:52.294Z</time>
      </trkpt>
      <trkpt lat="47.605693" lon="11.425880">
        <ele>845.698243</ele>
        <time>2026-05-08T13:19:53.295Z</time>
      </trkpt>
      <trkpt lat="47.605658" lon="11.426016">
        <ele>845.362860</ele>
        <time>2026-05-08T13:19:54.297Z</time>
      </trkpt>
      <trkpt lat="47.605623" lon="11.426152">
        <ele>845.027477</ele>
        <time>2026-05-08T13:19:55.299Z</time>
      </trkpt>
      <trkpt lat="47.605590" lon="11.426283">
        <ele>844.705284</ele>
        <time>2026-05-08T13:19:56.286Z</time>
      </trkpt>
      <trkpt lat="47.605557" lon="11.426414">
        <ele>844.383092</ele>
        <time>2026-05-08T13:19:57.288Z</time>
      </trkpt>
      <trkpt lat="47.605520" lon="11.426537">
        <ele>844.072784</ele>
        <time>2026-05-08T13:19:58.302Z</time>
      </trkpt>
      <trkpt lat="47.605473" lon="11.426779">
        <ele>843.511673</ele>
        <time>2026-05-08T13:20:00.289Z</time>
      </trkpt>
      <trkpt lat="47.605455" lon="11.427022">
        <ele>842.990158</ele>
        <time>2026-05-08T13:20:02.290Z</time>
      </trkpt>
      <trkpt lat="47.605446" lon="11.427272">
        <ele>842.456068</ele>
        <time>2026-05-08T13:20:04.295Z</time>
      </trkpt>
      <trkpt lat="47.605442" lon="11.427408">
        <ele>842.165661</ele>
        <time>2026-05-08T13:20:05.297Z</time>
      </trkpt>
      <trkpt lat="47.605420" lon="11.427671">
        <ele>841.600297</ele>
        <time>2026-05-08T13:20:07.292Z</time>
      </trkpt>
      <trkpt lat="47.605403" lon="11.427917">
        <ele>841.072751</ele>
        <time>2026-05-08T13:20:09.289Z</time>
      </trkpt>
      <trkpt lat="47.605388" lon="11.428163">
        <ele>840.545812</ele>
        <time>2026-05-08T13:20:11.289Z</time>
      </trkpt>
      <trkpt lat="47.605385" lon="11.428417">
        <ele>840.003865</ele>
        <time>2026-05-08T13:20:13.289Z</time>
      </trkpt>
      <trkpt lat="47.605387" lon="11.428553">
        <ele>839.713665</ele>
        <time>2026-05-08T13:20:14.293Z</time>
      </trkpt>
      <trkpt lat="47.605370" lon="11.428802">
        <ele>839.179751</ele>
        <time>2026-05-08T13:20:16.292Z</time>
      </trkpt>
      <trkpt lat="47.605368" lon="11.428935">
        <ele>838.895949</ele>
        <time>2026-05-08T13:20:17.290Z</time>
      </trkpt>
      <trkpt lat="47.605355" lon="11.429082">
        <ele>838.579665</ele>
        <time>2026-05-08T13:20:18.290Z</time>
      </trkpt>
      <trkpt lat="47.605332" lon="11.429334">
        <ele>838.021050</ele>
        <time>2026-05-08T13:20:20.290Z</time>
      </trkpt>
      <trkpt lat="47.605329" lon="11.429478">
        <ele>837.492953</ele>
        <time>2026-05-08T13:20:21.290Z</time>
      </trkpt>
      <trkpt lat="47.605330" lon="11.429622">
        <ele>836.965080</ele>
        <time>2026-05-08T13:20:22.290Z</time>
      </trkpt>
      <trkpt lat="47.605314" lon="11.429765">
        <ele>836.433732</ele>
        <time>2026-05-08T13:20:23.349Z</time>
      </trkpt>
      <trkpt lat="47.605304" lon="11.429909">
        <ele>835.903095</ele>
        <time>2026-05-08T13:20:24.296Z</time>
      </trkpt>
      <trkpt lat="47.605292" lon="11.430043">
        <ele>835.407592</ele>
        <time>2026-05-08T13:20:25.289Z</time>
      </trkpt>
      <trkpt lat="47.605277" lon="11.430188">
        <ele>834.869861</ele>
        <time>2026-05-08T13:20:26.296Z</time>
      </trkpt>
      <trkpt lat="47.605268" lon="11.430327">
        <ele>834.357999</ele>
        <time>2026-05-08T13:20:27.289Z</time>
      </trkpt>
      <trkpt lat="47.605255" lon="11.430464">
        <ele>833.850864</ele>
        <time>2026-05-08T13:20:28.290Z</time>
      </trkpt>
      <trkpt lat="47.605212" lon="11.430706">
        <ele>832.933502</ele>
        <time>2026-05-08T13:20:30.289Z</time>
      </trkpt>
      <trkpt lat="47.605138" lon="11.430928">
        <ele>832.025720</ele>
        <time>2026-05-08T13:20:32.290Z</time>
      </trkpt>
      <trkpt lat="47.605077" lon="11.431128">
        <ele>831.221078</ele>
        <time>2026-05-08T13:20:34.292Z</time>
      </trkpt>
      <trkpt lat="47.605024" lon="11.431297">
        <ele>830.537856</ele>
        <time>2026-05-08T13:20:36.295Z</time>
      </trkpt>
      <trkpt lat="47.604930" lon="11.431477">
        <ele>829.703278</ele>
        <time>2026-05-08T13:20:38.299Z</time>
      </trkpt>
      <trkpt lat="47.604866" lon="11.431664">
        <ele>828.934553</ele>
        <time>2026-05-08T13:20:40.287Z</time>
      </trkpt>
      <trkpt lat="47.604887" lon="11.431862">
        <ele>828.215395</ele>
        <time>2026-05-08T13:20:42.292Z</time>
      </trkpt>
      <trkpt lat="47.605006" lon="11.431972">
        <ele>827.599281</ele>
        <time>2026-05-08T13:20:44.291Z</time>
      </trkpt>
      <trkpt lat="47.605127" lon="11.432099">
        <ele>826.947957</ele>
        <time>2026-05-08T13:20:46.287Z</time>
      </trkpt>
      <trkpt lat="47.605199" lon="11.432183">
        <ele>826.545449</ele>
        <time>2026-05-08T13:20:47.296Z</time>
      </trkpt>
      <trkpt lat="47.605296" lon="11.432354">
        <ele>825.883415</ele>
        <time>2026-05-08T13:20:49.288Z</time>
      </trkpt>
      <trkpt lat="47.605364" lon="11.432518">
        <ele>825.313040</ele>
        <time>2026-05-08T13:20:51.294Z</time>
      </trkpt>
      <trkpt lat="47.605407" lon="11.432686">
        <ele>824.780682</ele>
        <time>2026-05-08T13:20:54.297Z</time>
      </trkpt>
      <trkpt lat="47.605420" lon="11.432867">
        <ele>824.241432</ele>
        <time>2026-05-08T13:20:58.290Z</time>
      </trkpt>
      <trkpt lat="47.605400" lon="11.433005">
        <ele>823.823267</ele>
        <time>2026-05-08T13:21:00.289Z</time>
      </trkpt>
      <trkpt lat="47.605365" lon="11.433130">
        <ele>823.422289</ele>
        <time>2026-05-08T13:21:02.291Z</time>
      </trkpt>
      <trkpt lat="47.605323" lon="11.433269">
        <ele>822.971037</ele>
        <time>2026-05-08T13:21:04.295Z</time>
      </trkpt>
      <trkpt lat="47.605290" lon="11.433395">
        <ele>822.570586</ele>
        <time>2026-05-08T13:21:06.298Z</time>
      </trkpt>
      <trkpt lat="47.605296" lon="11.433540">
        <ele>822.140212</ele>
        <time>2026-05-08T13:21:11.305Z</time>
      </trkpt>
      <trkpt lat="47.605395" lon="11.433639">
        <ele>821.615577</ele>
        <time>2026-05-08T13:21:15.294Z</time>
      </trkpt>
      <trkpt lat="47.605484" lon="11.433701">
        <ele>821.183532</ele>
        <time>2026-05-08T13:21:18.299Z</time>
      </trkpt>
      <trkpt lat="47.605577" lon="11.433743">
        <ele>820.756375</ele>
        <time>2026-05-08T13:21:21.286Z</time>
      </trkpt>
      <trkpt lat="47.605700" lon="11.433778">
        <ele>820.377884</ele>
        <time>2026-05-08T13:21:25.293Z</time>
      </trkpt>
      <trkpt lat="47.605813" lon="11.433708">
        <ele>820.377884</ele>
        <time>2026-05-08T13:21:28.296Z</time>
      </trkpt>
      <trkpt lat="47.605885" lon="11.433572">
        <ele>820.377884</ele>
        <time>2026-05-08T13:21:31.304Z</time>
      </trkpt>
      <trkpt lat="47.605930" lon="11.433427">
        <ele>820.377884</ele>
        <time>2026-05-08T13:21:34.292Z</time>
      </trkpt>
      <trkpt lat="47.605967" lon="11.433284">
        <ele>820.377884</ele>
        <time>2026-05-08T13:21:37.290Z</time>
      </trkpt>
      <trkpt lat="47.606017" lon="11.433159">
        <ele>820.377884</ele>
        <time>2026-05-08T13:21:40.301Z</time>
      </trkpt>
      <trkpt lat="47.606066" lon="11.433043">
        <ele>820.377884</ele>
        <time>2026-05-08T13:21:43.293Z</time>
      </trkpt>
      <trkpt lat="47.606125" lon="11.432903">
        <ele>820.377884</ele>
        <time>2026-05-08T13:21:47.298Z</time>
      </trkpt>
      <trkpt lat="47.606172" lon="11.432786">
        <ele>820.377884</ele>
        <time>2026-05-08T13:21:51.290Z</time>
      </trkpt>
      <trkpt lat="47.606261" lon="11.432735">
        <ele>820.377884</ele>
        <time>2026-05-08T13:21:56.297Z</time>
      </trkpt>
      <trkpt lat="47.606324" lon="11.432852">
        <ele>820.377884</ele>
        <time>2026-05-08T13:22:00.287Z</time>
      </trkpt>
    </trkseg>
  </trk>
</gpx>